ftp/pub/palmer/observations_modified/2019/June/AR190508_BASE.txt

Download

Sample DateTime	Unit Id	WS Avg 2min	WD Avg 2min	WGS 10min	WGD 10min	Air Temp	Rel Humidity	Dew Point	Pyranometer	Quantum	Air Pressure	Snow Level	Rainfall	PW Current	Visibility	CBase 1	CBase 2	CBase 3	Vert Vis
2019/05/08 00:00:00	BASE	12.56	327	15.38	324	0.4	100	0.4	0	0	972.3	NA	0.0000	UP BR	9000	0	0	0	590
2019/05/08 00:01:00	BASE	12.69	327	15.38	324	0.4	100	0.4	0	0	972.3	NA	0.0000	UP BR	9000	0	0	0	590
2019/05/08 00:02:00	BASE	12.52	328	15.38	324	0.4	100	0.4	0	0	972.4	NA	0.0000	UP BR	9000	0	0	0	590
2019/05/08 00:03:00	BASE	12.52	327	15.38	324	0.4	100	0.4	0	0	972.4	NA	0.0000	UP BR	9000	0	0	0	560
2019/05/08 00:04:00	BASE	12.17	328	15.38	324	0.4	100	0.4	0	0	972.0	NA	0.0000	UP BR	9000	0	0	0	560
2019/05/08 00:05:00	BASE	12.06	331	15.38	324	0.4	100	0.4	0	0	972.4	NA	0.0000	UP BR	8000	0	0	0	560
2019/05/08 00:06:00	BASE	12.29	329	15.38	324	0.4	100	0.4	0	0	972.4	NA	0.0000	UP BR	8000	0	0	0	520
2019/05/08 00:07:00	BASE	12.00	327	14.87	324	0.4	100	0.4	0	0	972.4	NA	0.0000	UP BR	7000	0	0	0	520
2019/05/08 00:08:00	BASE	11.40	330	14.40	325	0.4	100	0.4	0	0	972.5	NA	0.0000	UP BR	6000	0	0	0	520
2019/05/08 00:09:00	BASE	10.71	331	14.40	325	0.4	100	0.4	0	0	972.6	NA	0.0000	UP BR	6000	0	0	0	520
2019/05/08 00:10:00	BASE	10.36	331	14.40	325	0.4	100	0.4	0	0	972.6	NA	0.0000	UP BR	5000	0	0	0	490
2019/05/08 00:11:00	BASE	10.84	331	14.40	325	0.3	100	0.3	0	0	972.6	NA	0.0000	BR	5000	0	0	0	460
2019/05/08 00:12:00	BASE	11.95	330	14.40	325	0.3	100	0.3	0	0	972.6	NA	0.0000	BR	6000	0	0	0	460
2019/05/08 00:13:00	BASE	12.18	328	14.40	325	0.3	100	0.3	0	0	972.7	NA	0.0000	BR	7000	0	0	0	460
2019/05/08 00:14:00	BASE	11.92	329	14.40	325	0.3	100	0.3	0	0	972.7	NA	0.0000	BR	6000	0	0	0	460
2019/05/08 00:15:00	BASE	12.14	331	13.22	325	0.3	100	0.3	0	0	972.8	NA	0.0000	BR	6000	0	0	0	460
2019/05/08 00:16:00	BASE	11.69	331	13.22	325	0.3	100	0.3	0	0	972.8	NA	0.0000	BR	6000	0	0	0	490
2019/05/08 00:17:00	BASE	11.03	331	13.22	325	0.3	100	0.3	0	0	972.8	NA	0.0000	BR	6000	0	0	0	460
2019/05/08 00:18:00	BASE	10.67	333	13.22	325	0.3	100	0.3	0	0	972.8	NA	0.0000	BR	6000	0	0	0	460
2019/05/08 00:19:00	BASE	10.49	334	13.22	325	0.3	100	0.3	0	0	972.8	NA	0.0000	BR	5000	0	0	0	430
2019/05/08 00:20:00	BASE	10.85	334	13.22	325	0.2	100	0.2	0	0	972.9	NA	0.0000	BR	6000	0	0	0	460
2019/05/08 00:21:00	BASE	11.27	333	13.22	325	0.2	100	0.2	0	0	972.9	NA	0.0000	BR	6000	0	0	0	490
2019/05/08 00:22:00	BASE	11.01	330	13.17	325	0.2	100	0.2	0	0	972.9	NA	0.0000	BR	7000	0	0	0	490
2019/05/08 00:23:00	BASE	10.63	329	13.17	325	0.2	100	0.2	0	0	972.9	NA	0.0000	BR	7000	0	0	0	490
2019/05/08 00:24:00	BASE	10.51	331	13.17	325	0.2	100	0.2	0	0	972.9	NA	0.0000	BR	7000	0	0	0	490
2019/05/08 00:25:00	BASE	10.16	331	12.09	332	0.2	100	0.2	0	0	972.9	NA	0.0000	BR	7000	0	0	0	490
2019/05/08 00:26:00	BASE	10.09	330	12.09	332	0.2	100	0.2	0	0	973.0	NA	0.0000	BR	7000	0	0	0	520
2019/05/08 00:27:00	BASE	10.63	329	12.04	332	0.2	100	0.2	0	0	973.0	NA	0.0000	BR	7000	0	0	0	520
2019/05/08 00:28:00	BASE	10.86	323	12.40	324	0.2	100	0.2	0	0	973.0	NA	0.0000	BR	8000	0	0	0	520
2019/05/08 00:29:00	BASE	10.00	320	12.40	324	0.2	100	0.2	0	0	973.1	NA	0.0000	BR	8000	0	0	0	560
2019/05/08 00:30:00	BASE	9.68	320	12.40	324	0.2	100	0.2	0	0	973.2	NA	0.0000	BR	7000	0	0	0	520
2019/05/08 00:31:00	BASE	10.14	316	12.40	324	0.2	100	0.2	0	0	973.2	NA	0.0000	BR	8000	0	0	0	590
2019/05/08 00:32:00	BASE	9.52	313	12.40	324	0.2	100	0.2	0	0	973.2	NA	0.0000	BR	8000	200	0	0	0
2019/05/08 00:33:00	BASE	8.52	318	12.40	324	0.2	100	0.2	0	0	973.3	NA	0.0000	BR	7000	200	0	0	0
2019/05/08 00:34:00	BASE	8.32	323	12.40	324	0.2	100	0.2	0	0	973.3	NA	0.0000	BR	6000	0	0	0	590
2019/05/08 00:35:00	BASE	9.11	326	12.40	324	0.2	100	0.2	0	0	973.3	NA	0.0000	BR	6000	0	0	0	560
2019/05/08 00:36:00	BASE	9.95	327	12.40	324	0.2	100	0.2	0	0	973.3	NA	0.0000	BR	6000	0	0	0	520
2019/05/08 00:37:00	BASE	10.00	327	12.40	324	0.2	100	0.2	0	0	973.4	NA	0.0000	BR	6000	0	0	0	520
2019/05/08 00:38:00	BASE	10.28	325	11.88	325	0.2	100	0.2	0	0	973.4	NA	0.0000	BR	6000	0	0	0	520
2019/05/08 00:39:00	BASE	11.23	322	12.35	320	0.2	100	0.2	0	0	973.4	NA	0.0000	BR	6000	0	0	0	590
2019/05/08 00:40:00	BASE	11.92	319	13.58	312	0.2	100	0.2	0	0	973.4	NA	0.0000	BR	7000	0	0	0	560
2019/05/08 00:41:00	BASE	12.20	317	13.99	314	0.1	100	0.1	0	0	973.5	NA	0.0000	BR	7000	0	0	0	560
2019/05/08 00:42:00	BASE	12.68	318	14.35	314	0.1	100	0.1	0	0	973.5	NA	0.0000	BR	7000	0	0	0	560
2019/05/08 00:43:00	BASE	13.07	316	14.61	312	0.1	100	0.1	0	0	973.5	NA	0.0000	BR	8000	0	0	0	590
2019/05/08 00:44:00	BASE	12.29	315	14.61	312	0.1	100	0.1	0	0	973.5	NA	0.0000	BR	8000	0	0	0	560
2019/05/08 00:45:00	BASE	12.04	314	14.61	312	0.1	100	0.1	0	0	973.5	NA	0.0000	BR	7000	0	0	0	560
2019/05/08 00:46:00	BASE	13.26	315	14.92	318	0.1	100	0.1	0	0	973.6	NA	0.0000	BR	7000	0	0	0	520
2019/05/08 00:47:00	BASE	14.43	316	15.74	315	0.1	100	0.1	0	0	973.6	NA	0.0000	BR	8000	0	0	0	560
2019/05/08 00:48:00	BASE	14.91	315	16.10	314	0.1	100	0.1	0	0	973.6	NA	0.0000	BR	9000	0	0	0	560
2019/05/08 00:49:00	BASE	14.84	316	16.10	314	0.1	100	0.1	0	0	973.7	NA	0.0000	BR	9000	200	0	0	0
2019/05/08 00:50:00	BASE	15.02	315	16.57	318	0.1	100	0.1	0	0	973.7	NA	0.0000	BR	9000	0	0	0	560
2019/05/08 00:51:00	BASE	14.79	310	16.57	318	0.1	100	0.1	0	0	973.7	NA	0.0000	BR	8000	0	0	0	520
2019/05/08 00:52:00	BASE	13.74	307	16.57	318	0.1	100	0.1	0	0	973.8	NA	0.0000	BR	8000	0	0	0	560
2019/05/08 00:53:00	BASE	12.74	303	16.57	318	0.0	100	0.0	0	0	973.8	NA	0.0000	BR	8000	0	0	0	560
2019/05/08 00:54:00	BASE	12.82	301	16.57	318	0.0	100	0.0	0	0	973.8	NA	0.0000	BR	8000	0	0	0	560
2019/05/08 00:55:00	BASE	12.30	306	16.57	318	0.0	100	0.0	0	0	973.9	NA	0.0000	BR	9000	0	0	0	560
2019/05/08 00:56:00	BASE	12.05	314	16.57	318	0.0	100	0.0	0	0	973.9	NA	0.0000	BR	8000	0	0	0	520
2019/05/08 00:57:00	BASE	13.58	315	16.57	318	0.0	100	0.0	0	0	973.9	NA	0.0000	BR	8000	0	0	0	520
2019/05/08 00:58:00	BASE	14.20	313	16.57	318	0.0	100	0.0	0	0	973.9	NA	0.0000	BR	9000	0	0	0	520
2019/05/08 00:59:00	BASE	14.14	311	16.57	318	-0.0	100	-0.0	0	0	973.9	NA	0.0000	BR	8000	0	0	0	490
2019/05/08 01:00:00	BASE	14.41	309	15.69	306	-0.1	100	-0.1	0	0	974.0	NA	0.0000	BR	7000	0	0	0	490
2019/05/08 01:01:00	BASE	14.50	308	15.69	308	-0.1	100	-0.1	0	0	974.0	NA	0.0000	BR	6000	0	0	0	490
2019/05/08 01:02:00	BASE	14.52	307	15.69	308	-0.1	100	-0.1	0	0	974.0	NA	0.0000	BR	6000	0	0	0	560
2019/05/08 01:03:00	BASE	14.96	307	16.20	309	-0.1	100	-0.1	0	0	974.1	NA	0.0000	BR	6000	0	0	0	520
2019/05/08 01:04:00	BASE	14.88	307	16.20	309	-0.1	100	-0.1	0	0	974.1	NA	0.0000	BR	5000	0	0	0	520
2019/05/08 01:05:00	BASE	13.39	308	16.20	309	-0.1	100	-0.1	0	0	974.2	NA	0.0000	BR	5000	0	0	0	490
2019/05/08 01:06:00	BASE	12.47	309	16.20	309	-0.1	100	-0.1	0	0	974.2	NA	0.0000	BR	4700	0	0	0	460
2019/05/08 01:07:00	BASE	12.26	309	16.20	309	-0.1	100	-0.1	0	0	974.2	NA	0.0000	BR	4600	0	0	0	490
2019/05/08 01:08:00	BASE	11.53	310	16.20	309	-0.1	100	-0.1	0	0	974.2	NA	0.0000	BR	4700	0	0	0	460
2019/05/08 01:09:00	BASE	11.69	311	16.20	309	-0.1	100	-0.1	0	0	974.3	NA	0.0000	BR	5000	0	0	0	430
2019/05/08 01:10:00	BASE	12.28	309	16.20	309	-0.1	100	-0.1	0	0	974.3	NA	0.0000	BR	5000	0	0	0	460
2019/05/08 01:11:00	BASE	11.84	311	16.20	309	-0.1	100	-0.1	0	0	974.4	NA	0.0000	BR	5000	0	0	0	430
2019/05/08 01:12:00	BASE	11.57	313	16.20	309	-0.1	100	-0.1	0	0	974.4	NA	0.0000	BR	5000	0	0	0	430
2019/05/08 01:13:00	BASE	12.04	313	15.18	308	-0.1	100	-0.1	0	0	974.5	NA	0.0000	BR	3800	0	0	0	390
2019/05/08 01:14:00	BASE	12.44	312	13.84	312	-0.1	100	-0.1	0	0	974.5	NA	0.0000	BR	2700	0	0	0	390
2019/05/08 01:15:00	BASE	12.01	318	13.84	312	-0.1	100	-0.1	0	0	974.5	NA	0.0000	BR	2100	0	0	0	390
2019/05/08 01:16:00	BASE	11.83	319	15.18	311	-0.1	100	-0.1	0	0	974.5	NA	0.0000	BR	2300	0	0	0	430
2019/05/08 01:17:00	BASE	13.44	315	16.00	313	-0.1	100	-0.1	0	0	974.5	NA	0.0000	BR	3800	0	0	0	460
2019/05/08 01:18:00	BASE	14.46	314	16.15	317	-0.1	100	-0.1	0	0	974.5	NA	0.0000	BR	6000	0	0	0	460
2019/05/08 01:19:00	BASE	14.32	314	16.15	317	-0.1	100	-0.1	0	0	974.6	NA	0.0000	BR	8000	0	0	0	490
2019/05/08 01:20:00	BASE	14.14	311	16.15	317	-0.1	100	-0.1	0	0	974.6	NA	0.0000	BR	9000	0	0	0	520
2019/05/08 01:21:00	BASE	13.70	309	16.15	317	-0.1	100	-0.1	0	0	974.6	NA	0.0000	BR	9999	0	0	0	520
2019/05/08 01:22:00	BASE	13.60	307	16.15	317	-0.2	100	-0.2	0	0	974.7	NA	0.0000	BR	9999	200	0	0	0
2019/05/08 01:23:00	BASE	13.62	305	16.15	317	-0.2	100	-0.2	0	0	974.7	NA	0.0000	BR	9999	0	0	0	690
2019/05/08 01:24:00	BASE	13.07	303	16.15	317	-0.2	100	-0.2	0	0	974.7	NA	0.0000	BR	9999	0	0	0	560
2019/05/08 01:25:00	BASE	12.64	305	16.15	317	-0.2	100	-0.2	0	0	974.8	NA	0.0000	BR	9000	0	0	0	490
2019/05/08 01:26:00	BASE	12.72	306	16.15	317	-0.1	100	-0.1	0	0	974.8	NA	0.0000	BR	8000	0	0	0	490
2019/05/08 01:27:00	BASE	12.09	307	16.15	317	-0.1	100	-0.1	0	0	974.8	NA	0.0000	BR	6000	0	0	0	490
2019/05/08 01:28:00	BASE	11.01	311	15.74	304	-0.1	100	-0.1	0	0	974.8	NA	0.0000	BR	6000	0	0	0	460
2019/05/08 01:29:00	BASE	10.58	314	15.74	304	-0.1	100	-0.1	0	0	974.8	NA	0.0000	BR	5000	0	0	0	490
2019/05/08 01:30:00	BASE	10.75	316	14.51	304	-0.1	100	-0.1	0	0	974.8	NA	0.0000	BR	5000	0	0	0	490
2019/05/08 01:31:00	BASE	10.46	321	14.51	304	-0.1	100	-0.1	0	0	974.8	NA	0.0000	BR	4800	0	0	0	460
2019/05/08 01:32:00	BASE	10.80	325	14.51	304	-0.1	100	-0.1	0	0	974.8	NA	0.0000	BR	4600	0	0	0	460
2019/05/08 01:33:00	BASE	11.52	326	13.68	306	-0.1	100	-0.1	0	0	974.8	NA	0.0000	BR	5000	0	0	0	490
2019/05/08 01:34:00	BASE	12.21	325	13.84	323	-0.1	100	-0.1	0	0	974.8	NA	0.0000	BR	7000	0	0	0	490
2019/05/08 01:35:00	BASE	12.51	319	13.84	323	-0.1	100	-0.1	0	0	974.9	NA	0.0000	BR	8000	0	0	0	560
2019/05/08 01:36:00	BASE	11.66	315	13.84	323	-0.1	100	-0.1	0	0	975.0	NA	0.0000	BR	9000	0	0	0	560
2019/05/08 01:37:00	BASE	11.46	312	13.84	323	-0.1	100	-0.1	0	0	975.1	NA	0.0000	BR	9000	200	0	0	0
2019/05/08 01:38:00	BASE	11.81	309	13.84	323	-0.1	100	-0.1	0	0	975.1	NA	0.0000	BR	9000	200	0	0	0
2019/05/08 01:39:00	BASE	11.21	309	13.84	323	-0.1	100	-0.1	0	0	975.1	NA	0.0000	BR	9000	260	0	0	0
2019/05/08 01:40:00	BASE	10.23	309	13.84	323	-0.1	100	-0.1	0	0	975.1	NA	0.0000	BR	9000	260	0	0	0
2019/05/08 01:41:00	BASE	9.95	309	13.84	323	-0.1	100	-0.1	0	0	975.2	NA	0.0000	BR	9000	260	0	0	0
2019/05/08 01:42:00	BASE	9.34	314	13.84	323	-0.1	100	-0.1	0	0	975.2	NA	0.0000	BR	9000	260	0	0	0
2019/05/08 01:43:00	BASE	8.85	318	13.84	323	-0.1	100	-0.1	0	0	975.2	NA	0.0000	BR	9000	300	0	0	0
2019/05/08 01:44:00	BASE	9.17	319	13.17	308	-0.1	100	-0.1	0	0	975.2	NA	0.0000	BR	8000	300	0	0	0
2019/05/08 01:45:00	BASE	9.96	318	13.17	308	-0.1	100	-0.1	0	0	975.2	NA	0.0000	BR	9000	300	0	0	0
2019/05/08 01:46:00	BASE	9.63	319	13.17	308	-0.1	100	-0.1	0	0	975.3	NA	0.0000	BR	9000	300	0	0	0
2019/05/08 01:47:00	BASE	8.74	323	13.17	308	-0.1	100	-0.1	0	0	975.3	NA	0.0000	BR	8000	260	0	0	0
2019/05/08 01:48:00	BASE	8.59	327	11.99	300	-0.1	100	-0.1	0	0	975.3	NA	0.0000	BR	8000	260	0	0	0
2019/05/08 01:49:00	BASE	8.54	329	11.99	300	-0.1	100	-0.1	0	0	975.3	NA	0.0000	BR	8000	230	0	0	0
2019/05/08 01:50:00	BASE	8.89	329	10.75	315	-0.1	100	-0.1	0	0	975.4	NA	0.0000	BR	8000	0	0	0	560
2019/05/08 01:51:00	BASE	9.32	324	10.80	312	-0.1	100	-0.1	0	0	975.4	NA	0.0000	BR	8000	0	0	0	490
2019/05/08 01:52:00	BASE	9.51	321	10.80	312	-0.0	100	-0.0	0	0	975.4	NA	0.0000	BR	6000	0	0	0	460
2019/05/08 01:53:00	BASE	9.76	323	10.80	312	-0.0	100	-0.0	0	0	975.4	NA	0.0000	BR	4700	0	0	0	430
2019/05/08 01:54:00	BASE	10.98	321	12.76	312	-0.0	100	-0.0	0	0	975.4	NA	0.0000	BR	3100	0	0	0	390
2019/05/08 01:55:00	BASE	12.28	316	13.68	318	0.0	100	0.0	0	0	975.4	NA	0.0000	BR	2500	0	0	0	360
2019/05/08 01:56:00	BASE	12.04	316	13.68	318	0.0	100	0.0	0	0	975.4	NA	0.0000	BR	2200	0	0	0	390
2019/05/08 01:57:00	BASE	12.53	313	14.51	307	0.0	100	0.0	0	0	975.5	NA	0.0000	BR	2200	0	0	0	330
2019/05/08 01:58:00	BASE	12.60	316	14.51	307	0.1	100	0.1	0	0	975.5	NA	0.0000	BR	2400	0	0	0	390
2019/05/08 01:59:01	BASE	12.17	317	14.61	314	0.1	100	0.1	0	0	975.5	NA	0.0000	BR	2400	0	0	0	430
2019/05/08 02:00:00	BASE	11.97	316	14.61	314	0.1	100	0.1	0	0	975.6	NA	0.0000	BR	2500	0	0	0	390
2019/05/08 02:01:00	BASE	11.65	316	14.61	314	0.1	100	0.1	0	0	975.6	NA	0.0000	BR	2800	0	0	0	430
2019/05/08 02:02:00	BASE	11.55	316	14.61	314	0.1	100	0.1	0	0	975.6	NA	0.0000	BR	2800	0	0	0	390
2019/05/08 02:03:00	BASE	11.20	317	14.61	314	0.1	100	0.1	0	0	975.6	NA	0.0000	BR	2500	0	0	0	360
2019/05/08 02:04:00	BASE	11.13	317	14.61	314	0.1	100	0.1	0	0	975.6	NA	0.0000	BR	2100	0	0	0	390
2019/05/08 02:05:00	BASE	11.06	318	14.61	314	0.1	100	0.1	0	0	975.6	NA	0.0000	BR	2000	0	0	0	360
2019/05/08 02:06:00	BASE	11.27	317	14.61	314	0.1	100	0.1	0	0	975.7	NA	0.0000	BR	2000	0	0	0	360
2019/05/08 02:07:00	BASE	11.58	317	14.61	314	0.1	100	0.1	0	0	975.8	NA	0.0000	BR	2000	0	0	0	360
2019/05/08 02:08:00	BASE	11.64	319	14.61	314	0.1	100	0.1	0	0	975.8	NA	0.0000	BR	1900	0	0	0	360
2019/05/08 02:09:00	BASE	11.95	319	14.30	313	0.1	100	0.1	0	0	975.8	NA	0.0000	BR	2000	0	0	0	390
2019/05/08 02:10:00	BASE	12.20	318	13.58	313	0.1	100	0.1	0	0	975.8	NA	0.0000	BR	2100	0	0	0	390
2019/05/08 02:11:00	BASE	12.51	317	14.61	310	0.1	100	0.1	0	0	975.8	NA	0.0000	BR	2600	0	0	0	390
2019/05/08 02:12:00	BASE	13.78	316	16.05	312	0.1	100	0.1	0	0	975.8	NA	0.0000	BR	3300	0	0	0	460
2019/05/08 02:13:00	BASE	14.25	316	16.05	312	0.1	100	0.1	0	0	975.8	NA	0.0000	BR	4300	0	0	0	520
2019/05/08 02:14:00	BASE	13.45	317	16.05	312	0.1	100	0.1	0	0	975.9	NA	0.0000	BR	4500	0	0	0	460
2019/05/08 02:15:00	BASE	11.78	321	16.05	312	0.1	100	0.1	0	0	975.9	NA	0.0000	BR	4100	0	0	0	460
2019/05/08 02:16:00	BASE	11.81	320	16.05	312	0.1	100	0.1	0	0	975.9	NA	0.0000	BR	4000	0	0	0	460
2019/05/08 02:17:00	BASE	13.02	316	16.05	312	0.1	100	0.1	0	0	976.0	NA	0.0000	BR	4600	0	0	0	460
2019/05/08 02:18:00	BASE	12.91	317	16.05	312	0.1	100	0.1	0	0	976.0	NA	0.0000	BR	4800	0	0	0	490
2019/05/08 02:19:00	BASE	13.57	317	16.05	312	0.1	100	0.1	0	0	975.9	NA	0.0000	BR	5000	0	0	0	490
2019/05/08 02:20:00	BASE	13.70	312	16.05	312	0.1	100	0.1	0	0	976.0	NA	0.0000	BR	5000	0	0	0	520
2019/05/08 02:21:00	BASE	14.05	309	16.72	303	0.1	100	0.1	0	0	975.9	NA	0.0000	BR	6000	0	0	0	520
2019/05/08 02:22:00	BASE	15.41	309	17.34	305	0.0	100	0.0	0	0	975.9	NA	0.0000	BR	7000	0	0	0	590
2019/05/08 02:23:00	BASE	17.18	308	19.75	304	0.0	100	0.0	0	0	975.9	NA	0.0000	BR	7000	0	0	0	560
2019/05/08 02:24:00	BASE	17.82	309	19.75	304	0.0	100	0.0	0	0	975.9	NA	0.0000	BR	8000	200	0	0	0
2019/05/08 02:25:00	BASE	17.02	311	19.75	304	0.0	100	0.0	0	0	976.0	NA	0.0000	BR	8000	260	0	0	0
2019/05/08 02:26:00	BASE	16.94	313	19.75	304	0.0	100	0.0	0	0	976.0	NA	0.0000	BR	8000	230	0	0	0
2019/05/08 02:27:00	BASE	16.15	317	19.75	304	0.0	100	0.0	0	0	976.0	NA	0.0000	BR	7000	230	0	0	0
2019/05/08 02:28:00	BASE	16.25	317	19.75	304	0.0	100	0.0	0	0	976.0	NA	0.0000	BR	6000	200	0	0	0
2019/05/08 02:29:00	BASE	17.02	317	19.75	314	0.0	100	0.0	0	0	976.0	NA	0.0000	BR	4700	2300	0	0	0
2019/05/08 02:30:00	BASE	17.47	317	20.27	309	-0.0	100	-0.0	0	0	976.0	NA	0.0000	UP BR	4200	0	0	0	690
2019/05/08 02:31:00	BASE	18.04	316	20.27	309	-0.0	100	-0.0	0	0	976.1	NA	0.0000	UP BR	4800	0	0	0	690
2019/05/08 02:32:00	BASE	18.07	315	20.27	309	-0.0	100	-0.0	0	0	976.2	NA	0.0000	UP BR	6000	0	0	0	590
2019/05/08 02:33:00	BASE	17.79	314	20.27	309	-0.1	100	-0.1	0	0	976.2	NA	0.0000	UP BR	7000	0	0	0	690
2019/05/08 02:34:00	BASE	17.34	313	20.27	309	-0.1	100	-0.1	0	0	976.2	NA	0.0000	UP BR	6000	230	0	0	0
2019/05/08 02:35:00	BASE	16.82	313	20.27	309	-0.1	100	-0.1	0	0	976.3	NA	0.0000	UP BR	6000	0	0	0	750
2019/05/08 02:36:00	BASE	15.96	313	20.27	309	-0.1	100	-0.1	0	0	976.4	NA	0.0000	UP BR	4500	0	0	0	720
2019/05/08 02:37:00	BASE	14.30	315	20.27	309	-0.1	100	-0.1	0	0	976.4	NA	0.0000	UP BR	4000	0	0	0	520
2019/05/08 02:38:00	BASE	13.85	318	20.27	309	-0.1	100	-0.1	0	0	976.5	NA	0.0000	UP BR	4100	0	0	0	460
2019/05/08 02:39:00	BASE	14.30	319	20.27	309	-0.1	100	-0.1	0	0	976.5	NA	0.0000	UP BR	3900	0	0	0	460
2019/05/08 02:40:00	BASE	13.65	317	19.34	311	-0.1	100	-0.1	0	0	976.5	NA	0.0000	UP BR	3800	0	0	0	430
2019/05/08 02:41:00	BASE	13.52	319	19.34	311	-0.1	100	-0.1	0	0	976.5	NA	0.0000	UP BR	3800	0	0	0	430
2019/05/08 02:42:00	BASE	13.48	322	18.52	313	-0.2	100	-0.2	0	0	976.6	NA	0.0000	UP BR	3800	0	0	0	430
2019/05/08 02:43:00	BASE	13.50	323	18.47	314	-0.2	100	-0.2	0	0	976.6	NA	0.0000	UP BR	3700	0	0	0	430
2019/05/08 02:44:00	BASE	13.63	321	17.18	313	-0.2	100	-0.2	0	0	976.6	NA	0.0000	UP BR	3500	0	0	0	430
2019/05/08 02:45:00	BASE	13.94	323	16.51	311	-0.2	100	-0.2	0	0	976.6	NA	0.0000	UP BR	3600	0	0	0	430
2019/05/08 02:46:00	BASE	14.72	324	16.26	316	-0.2	100	-0.2	0	0	976.6	NA	0.0000	UP BR	4300	0	0	0	460
2019/05/08 02:47:00	BASE	14.35	324	16.26	316	-0.2	100	-0.2	0	0	976.7	NA	0.0000	UP BR	5000	0	0	0	490
2019/05/08 02:48:00	BASE	13.48	327	16.26	316	-0.2	100	-0.2	0	0	976.7	NA	0.0000	BR	5000	0	0	0	690
2019/05/08 02:49:00	BASE	13.02	327	16.26	316	-0.2	100	-0.2	0	0	976.7	NA	0.0000	BR	6000	0	0	0	790
2019/05/08 02:50:00	BASE	12.88	328	16.26	316	-0.2	100	-0.2	0	0	976.7	NA	0.0000	BR	5000	0	0	0	690
2019/05/08 02:51:00	BASE	12.84	326	16.26	316	-0.2	100	-0.2	0	0	976.7	NA	0.0000	BR	6000	330	0	0	0
2019/05/08 02:52:00	BASE	12.57	326	16.26	316	-0.2	100	-0.2	0	0	976.7	NA	0.0000	BR	6000	0	0	0	750
2019/05/08 02:53:00	BASE	12.50	327	16.26	316	-0.2	100	-0.2	0	0	976.7	NA	0.0000	BR	6000	0	0	0	750
2019/05/08 02:54:00	BASE	12.60	327	16.26	316	-0.2	100	-0.2	0	0	976.7	NA	0.0000	BR	7000	390	0	0	0
2019/05/08 02:55:00	BASE	12.35	329	16.26	316	-0.2	100	-0.2	0	0	976.7	NA	0.0000	BR	8000	260	0	0	0
2019/05/08 02:56:00	BASE	12.09	331	14.71	320	-0.2	100	-0.2	0	0	976.8	NA	0.0000	BR	8000	330	0	0	0
2019/05/08 02:57:00	BASE	12.27	331	14.71	320	-0.3	100	-0.3	0	0	976.8	NA	0.0000	BR	9000	360	0	0	0
2019/05/08 02:58:00	BASE	12.48	331	14.15	323	-0.3	100	-0.3	0	0	976.8	NA	0.0000	BR	9000	330	0	0	0
2019/05/08 02:59:00	BASE	12.33	331	14.15	323	-0.2	100	-0.2	0	0	976.8	NA	0.0000	BR	9999	330	0	0	0
2019/05/08 03:00:00	BASE	12.13	330	13.94	323	-0.3	100	-0.3	0	0	976.8	NA	0.0000	BR	9999	360	0	0	0
2019/05/08 03:01:00	BASE	11.90	328	13.43	320	-0.2	100	-0.2	0	0	976.9	NA	0.0000	BR	9999	360	0	0	0
2019/05/08 03:02:00	BASE	11.26	329	13.38	335	-0.2	100	-0.2	0	0	976.9	NA	0.0000	BR	9000	260	0	0	0
2019/05/08 03:03:00	BASE	11.44	333	13.38	335	-0.2	100	-0.2	0	0	976.9	NA	0.0000	BR	8000	230	0	0	0
2019/05/08 03:04:00	BASE	12.35	333	13.58	332	-0.2	100	-0.2	0	0	976.9	NA	0.0000	BR	8000	0	0	0	590
2019/05/08 03:05:00	BASE	12.54	330	14.35	326	-0.2	100	-0.2	0	0	977.0	NA	0.0000	BR	8000	0	0	0	560
2019/05/08 03:06:00	BASE	12.02	329	14.35	326	-0.2	100	-0.2	0	0	977.0	NA	0.0000	BR	8000	0	0	0	560
2019/05/08 03:07:00	BASE	11.53	330	14.35	326	-0.2	100	-0.2	0	0	977.0	NA	0.0000	BR	8000	0	0	0	620
2019/05/08 03:08:00	BASE	11.69	329	14.35	326	-0.2	100	-0.2	0	0	977.0	NA	0.0000	BR	8000	230	0	0	0
2019/05/08 03:09:01	BASE	12.12	330	14.35	326	-0.2	100	-0.2	0	0	977.0	NA	0.0000	BR	9000	300	0	0	0
2019/05/08 03:10:00	BASE	12.18	331	14.35	326	-0.2	100	-0.2	0	0	977.0	NA	0.0000	BR	9000	300	0	0	0
2019/05/08 03:11:00	BASE	11.76	330	14.35	326	-0.2	100	-0.2	0	0	977.0	NA	0.0000	BR	9000	330	0	0	0
2019/05/08 03:12:00	BASE	11.46	331	14.35	326	-0.2	100	-0.2	0	0	977.0	NA	0.0000	BR	9999	330	0	0	0
2019/05/08 03:13:00	BASE	11.17	331	14.35	326	-0.2	100	-0.2	0	0	977.0	NA	0.0000	BR	9999	360	0	0	0
2019/05/08 03:14:00	BASE	11.16	333	14.35	326	-0.2	100	-0.2	0	0	977.0	NA	0.0000	BR	9999	490	0	0	0
2019/05/08 03:15:00	BASE	11.68	333	13.17	333	-0.2	100	-0.2	0	0	977.0	NA	0.0000	BR	9999	460	0	0	0
2019/05/08 03:16:00	BASE	11.87	333	13.17	333	-0.2	100	-0.2	0	0	977.0	NA	0.0000	BR	9999	490	0	0	0
2019/05/08 03:17:00	BASE	11.03	335	13.17	333	-0.2	100	-0.2	0	0	977.0	NA	0.0000	BR	9999	360	0	0	0
2019/05/08 03:18:00	BASE	10.92	334	13.17	333	-0.2	100	-0.2	0	0	977.0	NA	0.0000	BR	9999	430	0	0	0
2019/05/08 03:19:00	BASE	10.82	334	13.17	333	-0.2	100	-0.2	0	0	977.1	NA	0.0000		9999	560	0	0	0
2019/05/08 03:20:00	BASE	10.06	334	12.81	332	-0.2	100	-0.2	0	0	977.1	NA	0.0000		9999	460	0	0	0
2019/05/08 03:21:00	BASE	10.32	334	12.81	332	-0.2	100	-0.2	0	0	977.1	NA	0.0000		9999	460	0	0	0
2019/05/08 03:22:00	BASE	10.78	335	12.81	332	-0.2	100	-0.2	0	0	977.1	NA	0.0000		9999	430	0	0	0
2019/05/08 03:23:00	BASE	11.09	334	12.81	332	-0.2	100	-0.2	0	0	977.1	NA	0.0000		9999	390	0	0	0
2019/05/08 03:24:00	BASE	10.84	334	12.71	332	-0.2	100	-0.2	0	0	977.2	NA	0.0000		9999	390	0	0	0
2019/05/08 03:25:00	BASE	10.99	333	12.66	333	-0.2	100	-0.2	0	0	977.2	NA	0.0000		9999	390	0	0	0
2019/05/08 03:26:00	BASE	11.54	334	13.22	333	-0.2	100	-0.2	0	0	977.2	NA	0.0000		9999	390	0	0	0
2019/05/08 03:27:00	BASE	11.42	334	13.22	333	-0.2	100	-0.2	0	0	977.2	NA	0.0000		9999	360	0	0	0
2019/05/08 03:28:00	BASE	10.98	332	13.22	333	-0.2	100	-0.2	0	0	977.2	NA	0.0000		9999	390	0	0	0
2019/05/08 03:29:00	BASE	11.13	333	13.22	333	-0.1	100	-0.1	0	0	977.2	NA	0.0000		9999	390	0	0	0
2019/05/08 03:30:00	BASE	11.23	336	13.22	333	-0.1	100	-0.1	0	0	977.2	NA	0.0000		9999	360	0	0	0
2019/05/08 03:31:00	BASE	11.18	334	13.22	333	-0.1	100	-0.1	0	0	977.3	NA	0.0000		9999	390	0	0	0
2019/05/08 03:32:00	BASE	11.54	330	13.22	333	-0.1	100	-0.1	0	0	977.3	NA	0.0000		9999	390	0	0	0
2019/05/08 03:33:00	BASE	11.82	330	13.22	333	-0.1	100	-0.1	0	0	977.3	NA	0.0000		9999	360	0	0	0
2019/05/08 03:34:00	BASE	11.74	332	13.22	333	-0.1	100	-0.1	0	0	977.3	NA	0.0000		9999	330	0	0	0
2019/05/08 03:35:00	BASE	11.08	334	13.22	333	-0.1	100	-0.1	0	0	977.3	NA	0.0000		9999	300	0	0	0
2019/05/08 03:36:00	BASE	10.82	334	12.96	330	-0.1	100	-0.1	0	0	977.3	NA	0.0000		9999	260	0	0	0
2019/05/08 03:37:00	BASE	11.20	335	12.96	330	-0.1	100	-0.1	0	0	977.3	NA	0.0000		9999	260	0	0	0
2019/05/08 03:38:00	BASE	11.64	335	12.96	330	-0.1	100	-0.1	0	0	977.3	NA	0.0000		9999	230	0	0	0
2019/05/08 03:39:00	BASE	11.56	333	12.96	330	-0.1	100	-0.1	0	0	977.3	NA	0.0000		9999	230	0	0	0
2019/05/08 03:40:00	BASE	11.15	331	12.96	330	-0.1	100	-0.1	0	0	977.4	NA	0.0000		9000	0	0	0	590
2019/05/08 03:41:00	BASE	11.10	331	12.71	329	-0.1	100	-0.1	0	0	977.4	NA	0.0000		9000	0	0	0	590
2019/05/08 03:42:00	BASE	11.47	333	12.71	329	-0.1	100	-0.1	0	0	977.4	NA	0.0000	BR	9000	0	0	0	560
2019/05/08 03:43:00	BASE	11.60	334	12.60	336	-0.1	100	-0.1	0	0	977.4	NA	0.0000	BR	8000	0	0	0	560
2019/05/08 03:44:00	BASE	11.14	332	12.60	336	-0.0	100	-0.0	0	0	977.4	NA	0.0000	BR	7000	0	0	0	520
2019/05/08 03:45:00	BASE	10.90	332	12.60	336	-0.0	100	-0.0	0	0	977.4	NA	0.0000	BR	7000	0	0	0	520
2019/05/08 03:46:00	BASE	10.79	332	12.60	336	-0.0	100	-0.0	0	0	977.5	NA	0.0000	BR	6000	0	0	0	520
2019/05/08 03:47:00	BASE	10.55	334	12.60	336	0.0	100	0.0	0	0	977.5	NA	0.0000	BR	6000	0	0	0	520
2019/05/08 03:48:00	BASE	10.81	333	12.40	337	0.0	100	0.0	0	0	977.6	NA	0.0000	BR	6000	0	0	0	490
2019/05/08 03:49:00	BASE	11.11	332	12.40	337	0.0	100	0.0	0	0	977.6	NA	0.0000	BR	5000	0	0	0	490
2019/05/08 03:50:00	BASE	11.13	332	12.40	337	0.0	100	0.0	0	0	977.6	NA	0.0000	BR	5000	0	0	0	460
2019/05/08 03:51:00	BASE	10.85	332	12.40	337	0.0	100	0.0	0	0	977.6	NA	0.0000	BR	4700	0	0	0	490
2019/05/08 03:52:00	BASE	11.07	331	12.35	329	0.0	100	0.0	0	0	977.6	NA	0.0000	BR	4500	0	0	0	490
2019/05/08 03:53:00	BASE	11.72	332	13.02	338	0.0	100	0.0	0	0	977.6	NA	0.0000	BR	4900	0	0	0	460
2019/05/08 03:54:00	BASE	11.53	332	13.02	338	0.0	100	0.0	0	0	977.6	NA	0.0000	BR	5000	0	0	0	520
2019/05/08 03:55:00	BASE	11.81	330	13.38	323	0.0	100	0.0	0	0	977.6	NA	0.0000	BR	5000	0	0	0	490
2019/05/08 03:56:00	BASE	12.15	330	13.38	323	0.1	100	0.1	0	0	977.7	NA	0.0000	BR	6000	0	0	0	490
2019/05/08 03:57:00	BASE	11.84	331	13.38	323	0.1	100	0.1	0	0	977.7	NA	0.0000	BR	5000	0	0	0	490
2019/05/08 03:58:00	BASE	12.00	331	13.48	329	0.1	100	0.1	0	0	977.7	NA	0.0000	BR	5000	0	0	0	490
2019/05/08 03:59:00	BASE	12.32	329	13.74	328	0.1	100	0.1	0	0	977.7	NA	0.0000	BR	5000	0	0	0	490
2019/05/08 04:00:00	BASE	12.22	328	13.74	328	0.1	100	0.1	0	0	977.7	NA	0.0000	BR	5000	0	0	0	490
2019/05/08 04:01:00	BASE	12.20	330	13.74	328	0.1	100	0.1	0	0	977.7	NA	0.0000	BR	5000	0	0	0	490
2019/05/08 04:02:00	BASE	12.19	332	13.74	328	0.1	100	0.1	0	0	977.7	NA	0.0000	BR	5000	0	0	0	560
2019/05/08 04:03:00	BASE	12.59	332	14.15	323	0.1	100	0.1	0	0	977.7	NA	0.0000	BR	6000	0	0	0	560
2019/05/08 04:04:00	BASE	12.51	332	14.15	323	0.1	100	0.1	0	0	977.7	NA	0.0000	BR	6000	0	0	0	590
2019/05/08 04:05:00	BASE	12.33	331	14.15	323	0.1	100	0.1	0	0	977.7	NA	0.0000	BR	7000	0	0	0	520
2019/05/08 04:06:00	BASE	12.37	331	14.15	323	0.1	100	0.1	0	0	977.7	NA	0.0000	BR	7000	0	0	0	560
2019/05/08 04:07:00	BASE	12.47	331	14.15	323	0.1	100	0.1	0	0	977.7	NA	0.0000	BR	9000	0	0	0	590
2019/05/08 04:08:00	BASE	12.86	330	14.71	324	0.1	100	0.1	0	0	977.7	NA	0.0000	BR	9000	0	0	0	590
2019/05/08 04:09:00	BASE	12.97	331	14.71	324	0.1	100	0.1	0	0	977.7	NA	0.0000	BR	9000	0	0	0	590
2019/05/08 04:10:00	BASE	13.67	331	15.38	321	0.1	100	0.1	0	0	977.7	NA	0.0000	BR	9000	0	0	0	520
2019/05/08 04:11:00	BASE	14.54	328	15.90	329	0.1	100	0.1	0	0	977.7	NA	0.0000	BR	9999	0	0	0	590
2019/05/08 04:12:00	BASE	14.94	326	16.26	327	0.1	100	0.1	0	0	977.7	NA	0.0000	BR	9999	0	0	0	590
2019/05/08 04:13:00	BASE	14.94	326	16.26	327	0.1	100	0.1	0	0	977.7	NA	0.0000	BR	9000	0	0	0	590
2019/05/08 04:14:00	BASE	13.91	327	16.26	327	0.1	100	0.1	0	0	977.8	NA	0.0000	BR	9000	0	0	0	590
2019/05/08 04:15:00	BASE	13.20	327	16.26	327	0.1	100	0.1	0	0	977.8	NA	0.0000	BR	9000	0	0	0	690
2019/05/08 04:16:00	BASE	12.49	324	16.26	327	0.0	100	0.0	0	0	977.8	NA	0.0000	BR	9000	0	0	0	660
2019/05/08 04:17:00	BASE	11.77	321	16.26	327	0.0	100	0.0	0	0	977.8	NA	0.0000	BR	8000	0	0	0	660
2019/05/08 04:18:00	BASE	11.43	321	16.26	327	0.0	100	0.0	0	0	977.8	NA	0.0000	BR	9000	0	0	0	660
2019/05/08 04:19:00	BASE	11.30	319	16.26	327	0.0	100	0.0	0	0	977.8	NA	0.0000	BR	9000	0	0	0	690
2019/05/08 04:20:00	BASE	11.16	318	16.26	327	0.0	100	0.0	0	0	977.9	NA	0.0000	BR	9000	230	0	0	0
2019/05/08 04:21:00	BASE	11.51	320	16.26	327	0.0	100	0.0	0	0	977.9	NA	0.0000	BR	8000	260	0	0	0
2019/05/08 04:22:00	BASE	11.27	319	15.48	329	0.0	100	0.0	0	0	977.9	NA	0.0000	BR	9000	430	0	0	0
2019/05/08 04:23:00	BASE	10.89	317	14.51	335	-0.0	100	-0.0	0	0	977.9	NA	0.0000	BR	8000	360	0	0	0
2019/05/08 04:24:00	BASE	11.37	317	13.94	322	-0.0	100	-0.0	0	0	977.9	NA	0.0000	BR	9000	430	0	0	0
2019/05/08 04:25:00	BASE	11.29	316	13.68	316	-0.0	100	-0.0	0	0	978.0	NA	0.0000	BR	9000	430	0	0	0
2019/05/08 04:26:00	BASE	11.36	313	13.68	316	-0.1	100	-0.1	0	0	978.0	NA	0.0000	BR	9000	390	0	0	0
2019/05/08 04:27:00	BASE	11.24	313	13.22	320	-0.1	100	-0.1	0	0	978.1	NA	0.0000	BR	9000	360	0	0	0
2019/05/08 04:28:00	BASE	10.92	314	13.22	320	-0.1	100	-0.1	0	0	978.1	NA	0.0000	BR	9000	330	0	0	0
2019/05/08 04:29:00	BASE	10.40	314	13.22	320	-0.1	100	-0.1	0	0	978.1	NA	0.0000	BR	9999	300	0	0	0
2019/05/08 04:30:00	BASE	9.67	316	13.22	320	-0.1	100	-0.1	0	0	978.1	NA	0.0000	BR	9000	330	0	0	0
2019/05/08 04:31:00	BASE	8.78	319	13.12	309	-0.1	100	-0.1	0	0	978.1	NA	0.0000	BR	9000	330	0	0	0
2019/05/08 04:32:00	BASE	8.35	322	13.12	309	-0.1	100	-0.1	0	0	978.1	NA	0.0000	BR	8000	430	0	0	0
2019/05/08 04:33:00	BASE	9.17	319	13.12	309	-0.1	100	-0.1	0	0	978.2	NA	0.0000	BR	9000	430	0	0	0
2019/05/08 04:34:00	BASE	9.79	316	13.12	309	-0.1	100	-0.1	0	0	978.1	NA	0.0000	BR	9000	430	0	0	0
2019/05/08 04:35:00	BASE	8.87	320	13.12	309	-0.1	100	-0.1	0	0	978.2	NA	0.0000	BR	9000	360	0	0	0
2019/05/08 04:36:00	BASE	7.87	324	11.88	311	-0.1	100	-0.1	0	0	978.2	NA	0.0000	BR	9000	360	0	0	0
2019/05/08 04:37:00	BASE	7.70	323	11.88	311	-0.1	100	-0.1	0	0	978.2	NA	0.0000	BR	9000	330	0	0	0
2019/05/08 04:38:00	BASE	7.91	323	11.42	317	-0.0	100	-0.0	0	0	978.2	NA	0.0000	BR	9000	330	0	0	0
2019/05/08 04:39:00	BASE	8.36	324	11.42	317	-0.0	100	-0.0	0	0	978.2	NA	0.0000	BR	9000	330	0	0	0
2019/05/08 04:40:00	BASE	8.41	326	11.42	317	-0.0	100	-0.0	0	0	978.2	NA	0.0000	BR	9000	330	0	0	0
2019/05/08 04:41:00	BASE	8.23	326	11.42	317	-0.0	100	-0.0	0	0	978.2	NA	0.0000	BR	8000	300	0	0	0
2019/05/08 04:42:00	BASE	7.99	326	11.42	317	-0.0	100	-0.0	0	0	978.2	NA	0.0000	BR	8000	260	0	0	0
2019/05/08 04:43:00	BASE	8.12	327	11.42	317	-0.0	100	-0.0	0	0	978.2	NA	0.0000	BR	8000	260	0	0	0
2019/05/08 04:44:00	BASE	8.86	329	9.77	326	-0.0	100	-0.0	0	0	978.2	NA	0.0000	BR	8000	260	0	0	0
2019/05/08 04:45:00	BASE	9.47	329	10.80	330	-0.0	100	-0.0	0	0	978.2	NA	0.0000	BR	9000	300	0	0	0
2019/05/08 04:46:00	BASE	9.58	330	10.80	330	-0.0	100	-0.0	0	0	978.2	NA	0.0000	BR	9000	300	0	0	0
2019/05/08 04:47:00	BASE	9.44	332	10.80	330	-0.0	100	-0.0	0	0	978.2	NA	0.0000	BR	8000	260	0	0	0
2019/05/08 04:48:00	BASE	9.17	331	10.80	330	-0.0	100	-0.0	0	0	978.2	NA	0.0000	BR	8000	200	0	0	0
2019/05/08 04:49:00	BASE	8.75	331	10.80	330	-0.0	100	-0.0	0	0	978.2	NA	0.0000	BR	8000	0	0	0	1080
2019/05/08 04:50:00	BASE	8.23	331	10.80	330	-0.0	100	-0.0	0	0	978.2	NA	0.0000	BR	8000	230	0	0	0
2019/05/08 04:51:00	BASE	8.08	334	10.80	330	-0.0	100	-0.0	0	0	978.2	NA	0.0000	BR	8000	360	0	0	0
2019/05/08 04:52:00	BASE	8.82	334	10.80	330	-0.0	100	-0.0	0	0	978.2	NA	0.0000	BR	9000	390	0	0	0
2019/05/08 04:53:00	BASE	9.47	333	10.80	330	-0.0	100	-0.1	0	0	978.2	NA	0.0000	BR	9000	520	0	0	0
2019/05/08 04:54:00	BASE	9.45	334	10.80	330	-0.1	100	-0.1	0	0	978.3	NA	0.0000	BR	9999	560	0	0	0
2019/05/08 04:55:00	BASE	9.51	333	10.24	332	-0.1	100	-0.1	0	0	978.2	NA	0.0000	BR	9000	560	0	0	0
2019/05/08 04:56:00	BASE	9.68	333	10.75	327	-0.1	100	-0.1	0	0	978.2	NA	0.0000	BR	9000	520	0	0	0
2019/05/08 04:57:00	BASE	10.02	331	10.91	324	-0.1	100	-0.1	0	0	978.3	NA	0.0000	BR	9000	520	0	0	0
2019/05/08 04:58:00	BASE	9.89	331	10.91	324	-0.1	100	-0.1	0	0	978.3	NA	0.0000	BR	9999	520	0	0	0
2019/05/08 04:59:00	BASE	9.40	333	10.91	324	-0.1	100	-0.1	0	0	978.3	NA	0.0000	BR	9000	520	0	0	0
2019/05/08 05:00:00	BASE	9.85	333	11.32	334	-0.1	100	-0.1	0	0	978.2	NA	0.0000	BR	9000	520	0	0	0
2019/05/08 05:01:00	BASE	9.97	335	11.32	334	-0.1	100	-0.1	0	0	978.2	NA	0.0000	BR	9000	560	0	0	0
2019/05/08 05:02:00	BASE	9.13	338	11.32	334	-0.1	100	-0.1	0	0	978.2	NA	0.0000	BR	9999	660	0	0	0
2019/05/08 05:03:00	BASE	9.05	338	11.32	334	-0.1	100	-0.1	0	0	978.2	NA	0.0000	BR	9999	390	0	0	0
2019/05/08 05:04:00	BASE	9.45	335	11.32	334	-0.1	100	-0.1	0	0	978.2	NA	0.0000	BR	9999	820	0	0	0
2019/05/08 05:05:00	BASE	9.18	335	11.32	334	-0.1	100	-0.1	0	0	978.2	NA	0.0000	BR	9999	790	0	0	0
2019/05/08 05:06:00	BASE	9.22	334	11.32	334	-0.0	100	-0.0	0	0	978.2	NA	0.0000	BR	9999	750	0	0	0
2019/05/08 05:07:00	BASE	9.65	333	11.32	334	-0.0	100	-0.0	0	0	978.2	NA	0.0000	BR	9999	720	0	0	0
2019/05/08 05:08:00	BASE	9.71	334	11.32	334	-0.0	100	-0.0	0	0	978.2	NA	0.0000	BR	9999	690	0	0	0
2019/05/08 05:09:00	BASE	9.58	333	11.32	334	-0.0	100	-0.0	0	0	978.2	NA	0.0000	BR	9999	620	0	0	0
2019/05/08 05:10:00	BASE	9.56	333	10.75	336	-0.0	100	-0.0	0	0	978.2	NA	0.0000	BR	9999	620	0	0	0
2019/05/08 05:11:00	BASE	9.86	334	11.06	336	-0.0	100	-0.0	0	0	978.2	NA	0.0000	BR	9999	620	0	0	0
2019/05/08 05:12:00	BASE	10.25	334	11.21	335	0.0	100	0.0	0	0	978.2	NA	0.0000		9999	890	0	0	0
2019/05/08 05:13:00	BASE	9.95	333	11.21	335	0.0	100	0.0	0	0	978.2	NA	0.0000		9999	690	0	0	0
2019/05/08 05:14:00	BASE	9.53	333	11.21	335	0.0	100	0.0	0	0	978.2	NA	0.0000		9999	790	0	0	0
2019/05/08 05:15:00	BASE	9.07	336	11.21	335	0.0	100	0.0	0	0	978.2	NA	0.0000		9999	820	0	0	0
2019/05/08 05:16:00	BASE	8.77	340	11.21	335	0.0	100	0.0	0	0	978.2	NA	0.0000		9000	590	0	0	0
2019/05/08 05:17:00	BASE	9.06	341	11.21	335	0.0	100	0.0	0	0	978.2	NA	0.0000	BR	8000	690	0	0	0
2019/05/08 05:18:00	BASE	9.28	339	11.21	335	0.0	100	0.0	0	0	978.2	NA	0.0000	BR	9000	720	0	0	0
2019/05/08 05:19:00	BASE	9.60	334	11.21	335	0.0	100	0.0	0	0	978.2	NA	0.0000	BR	9000	720	0	0	0
2019/05/08 05:20:00	BASE	9.66	333	11.21	335	0.0	100	0.0	0	0	978.2	NA	0.0000	BR	9999	750	0	0	0
2019/05/08 05:21:00	BASE	10.00	333	11.42	332	0.0	100	0.0	0	0	978.3	NA	0.0000	BR	9000	720	1510	0	0
2019/05/08 05:22:00	BASE	10.39	333	11.73	329	0.0	100	0.0	0	0	978.3	NA	0.0000	BR	9999	790	0	0	0
2019/05/08 05:23:00	BASE	10.31	333	11.73	329	0.0	100	0.0	0	0	978.3	NA	0.0000	BR	9999	790	1410	0	0
2019/05/08 05:24:00	BASE	9.85	334	11.73	329	0.0	100	0.0	0	0	978.3	NA	0.0000	BR	9999	1050	0	0	0
2019/05/08 05:25:00	BASE	9.36	336	11.73	329	0.0	100	0.0	0	0	978.4	NA	0.0000	BR	9999	890	0	0	0
2019/05/08 05:26:00	BASE	9.40	333	11.73	329	0.0	100	0.0	0	0	978.3	NA	0.0000	BR	9999	1020	0	0	0
2019/05/08 05:27:00	BASE	9.46	333	11.73	329	0.0	100	0.0	0	0	978.4	NA	0.0000		9999	1180	0	0	0
2019/05/08 05:28:00	BASE	9.73	333	11.73	329	-0.0	100	-0.0	0	0	978.4	NA	0.0000		9999	890	1900	0	0
2019/05/08 05:29:01	BASE	9.62	333	11.73	329	-0.0	100	-0.0	0	0	978.4	NA	0.0000		9999	850	1610	0	0
2019/05/08 05:30:00	BASE	9.26	335	11.73	329	-0.0	100	-0.0	0	0	978.4	NA	0.0000		9999	1410	2070	0	0
2019/05/08 05:31:01	BASE	9.13	336	11.73	329	-0.0	100	-0.0	0	0	978.4	NA	0.0000		9999	1150	0	0	0
2019/05/08 05:32:00	BASE	8.79	337	10.91	328	-0.0	100	-0.0	0	0	978.4	NA	0.0000		9999	1180	0	0	0
2019/05/08 05:33:00	BASE	8.16	337	10.70	329	-0.0	100	-0.0	0	0	978.4	NA	0.0000		9999	1150	0	0	0
2019/05/08 05:34:00	BASE	7.95	335	10.70	329	-0.0	100	-0.0	0	0	978.4	NA	0.0000		9999	1050	0	0	0
2019/05/08 05:35:00	BASE	7.94	334	10.70	329	-0.0	100	-0.0	0	0	978.4	NA	0.0000		9999	1020	0	0	0
2019/05/08 05:36:00	BASE	7.89	337	10.70	329	-0.0	100	-0.0	0	0	978.3	NA	0.0000		9999	950	0	0	0
2019/05/08 05:37:00	BASE	8.22	340	10.70	329	-0.0	100	-0.0	0	0	978.3	NA	0.0000		9999	1250	0	0	0
2019/05/08 05:38:00	BASE	8.38	339	9.83	336	-0.0	100	-0.0	0	0	978.3	NA	0.0000		9999	1150	0	0	0
2019/05/08 05:39:01	BASE	8.49	340	9.83	336	-0.0	100	-0.0	0	0	978.3	NA	0.0000		9999	1020	0	0	0
2019/05/08 05:40:00	BASE	8.43	341	9.83	336	-0.0	100	-0.0	0	0	978.3	NA	0.0000		9999	980	0	0	0
2019/05/08 05:41:00	BASE	8.10	340	9.47	340	-0.0	100	-0.0	0	0	978.3	NA	0.0000		9999	920	0	0	0
2019/05/08 05:42:00	BASE	7.90	340	9.47	340	-0.0	100	-0.0	0	0	978.4	NA	0.0000		9999	850	0	0	0
2019/05/08 05:43:00	BASE	7.51	342	9.47	340	-0.0	100	-0.0	0	0	978.4	NA	0.0000		9999	890	0	0	0
2019/05/08 05:44:01	BASE	7.28	345	9.47	340	-0.0	100	-0.0	0	0	978.4	NA	0.0000		9999	950	0	0	0
2019/05/08 05:45:01	BASE	7.67	348	9.47	340	-0.0	100	-0.0	0	0	978.3	NA	0.0000		9999	980	0	0	0
2019/05/08 05:46:01	BASE	7.86	348	9.47	340	-0.0	100	-0.0	0	0	978.3	NA	0.0000		9999	920	0	0	0
2019/05/08 05:47:00	BASE	7.55	347	9.47	340	-0.1	100	-0.1	0	0	978.3	NA	0.0000		9999	890	0	0	0
2019/05/08 05:48:00	BASE	7.61	346	9.47	340	-0.1	100	-0.1	0	0	978.3	NA	0.0000		9999	1020	0	0	0
2019/05/08 05:49:00	BASE	7.72	350	9.00	346	-0.1	100	-0.1	0	0	978.3	NA	0.0000		9999	950	0	0	0
2019/05/08 05:50:00	BASE	7.76	351	9.00	346	-0.1	100	-0.1	0	0	978.3	NA	0.0000		9999	920	0	0	0
2019/05/08 05:51:00	BASE	7.90	344	9.00	346	-0.1	100	-0.1	0	0	978.3	NA	0.0000		9999	950	0	0	0
2019/05/08 05:52:00	BASE	8.33	344	10.19	348	-0.1	100	-0.1	0	0	978.2	NA	0.0000		9999	920	0	0	0
2019/05/08 05:53:00	BASE	8.85	349	10.19	348	-0.1	100	-0.1	0	0	978.2	NA	0.0000		9999	920	0	0	0
2019/05/08 05:54:00	BASE	8.40	350	10.19	348	-0.0	100	-0.0	0	0	978.2	NA	0.0000		9999	920	0	0	0
2019/05/08 05:55:00	BASE	7.65	349	10.19	348	-0.0	100	-0.0	0	0	978.3	NA	0.0000		9999	890	0	0	0
2019/05/08 05:56:01	BASE	7.97	346	10.19	348	-0.0	100	-0.0	0	0	978.3	NA	0.0000		9999	890	0	0	0
2019/05/08 05:57:00	BASE	8.54	348	10.19	348	0.0	100	0.0	0	0	978.2	NA	0.0000		9999	820	0	0	0
2019/05/08 05:58:00	BASE	8.64	349	10.19	348	0.0	100	0.0	0	0	978.2	NA	0.0000		9999	890	0	0	0
2019/05/08 05:59:00	BASE	9.41	348	12.04	345	0.0	100	0.0	0	0	978.1	NA	0.0000		9999	790	0	0	0
2019/05/08 06:00:00	BASE	9.95	347	12.04	345	0.0	100	0.0	0	0	978.2	NA	0.0000		9999	790	0	0	0
2019/05/08 06:01:00	BASE	9.31	340	12.04	345	0.0	100	0.0	0	0	978.2	NA	0.0000		9999	790	0	0	0
2019/05/08 06:02:00	BASE	8.34	342	12.04	345	0.0	100	0.0	0	0	978.2	NA	0.0000		9999	820	0	0	0
2019/05/08 06:03:00	BASE	8.56	341	12.04	345	0.0	100	0.0	0	0	978.2	NA	0.0000		9999	720	0	0	0
2019/05/08 06:04:00	BASE	10.27	337	12.81	334	0.0	100	0.0	0	0	978.2	NA	0.0000		9999	460	0	0	0
2019/05/08 06:05:00	BASE	10.85	335	12.81	334	0.0	100	0.0	0	0	978.2	NA	0.0000		9999	430	0	0	0
2019/05/08 06:06:00	BASE	10.87	330	12.81	334	0.0	100	0.0	0	0	978.2	NA	0.0000		9999	360	0	0	0
2019/05/08 06:07:01	BASE	11.50	330	12.81	334	0.0	100	0.0	0	0	978.2	NA	0.0000		9999	360	0	0	0
2019/05/08 06:08:01	BASE	10.93	332	12.81	334	0.0	100	0.0	0	0	978.2	NA	0.0000		9999	360	0	0	0
2019/05/08 06:09:00	BASE	10.17	332	12.81	334	0.0	100	0.0	0	0	978.2	NA	0.0000		9999	390	0	0	0
2019/05/08 06:10:00	BASE	10.53	331	12.81	334	0.0	100	0.0	0	0	978.2	NA	0.0000		9999	360	0	0	0
2019/05/08 06:11:00	BASE	10.96	328	12.81	334	-0.0	100	-0.0	0	0	978.2	NA	0.0000		8000	0	0	0	1050
2019/05/08 06:12:00	BASE	10.70	328	12.81	334	-0.0	100	-0.0	0	0	978.2	NA	0.0000	UP	6000	0	0	0	890
2019/05/08 06:13:00	BASE	10.55	331	12.81	334	-0.0	100	-0.0	0	0	978.2	NA	0.0000	UP	8000	0	0	0	1210
2019/05/08 06:14:00	BASE	10.46	334	12.40	336	-0.0	100	-0.0	0	0	978.2	NA	0.0000	UP	9999	330	0	0	0
2019/05/08 06:15:00	BASE	9.44	336	12.40	336	-0.0	100	-0.0	0	0	978.2	NA	0.0000	UP	9999	330	0	0	0
2019/05/08 06:16:00	BASE	8.79	337	12.40	336	-0.1	100	-0.1	0	0	978.2	NA	0.0000	UP	9999	330	0	0	0
2019/05/08 06:17:00	BASE	9.17	335	11.99	330	-0.1	100	-0.1	0	0	978.2	NA	0.0000	UP	9999	560	0	0	0
2019/05/08 06:18:28	BASE	10.31	333	11.99	330	-0.1	100	-0.1	0	0	978.2	NA	0.0000	UP	9999	560	0	0	0
2019/05/08 06:19:00	BASE	11.41	333	12.14	339	-0.1	100	-0.1	0	0	M	NA	0.0000	UP	9999	590	0	0	0
2019/05/08 06:20:00	BASE	11.26	333	12.14	339	-0.1	100	-0.1	0	0	978.1	NA	0.0000	UP	9999	660	0	0	0
2019/05/08 06:21:00	BASE	10.92	334	12.14	339	-0.1	100	-0.1	0	0	978.1	NA	0.0000	UP	9999	720	0	0	0
2019/05/08 06:22:00	BASE	10.73	333	12.14	339	-0.1	100	-0.1	0	0	978.1	NA	0.0000	UP	9999	950	0	0	0
2019/05/08 06:23:00	BASE	10.45	332	12.14	339	-0.1	100	-0.1	0	0	978.2	NA	0.0000		9999	1180	0	0	0
2019/05/08 06:24:00	BASE	10.58	332	12.14	339	-0.1	100	-0.1	0	0	978.2	NA	0.0000		9999	920	0	0	0
2019/05/08 06:25:00	BASE	10.46	332	12.14	339	-0.1	100	-0.1	0	0	978.2	NA	0.0000		9999	820	0	0	0
2019/05/08 06:26:00	BASE	10.31	333	12.14	339	-0.1	100	-0.1	0	0	978.2	NA	0.0000		9999	980	0	0	0
2019/05/08 06:27:00	BASE	10.17	332	12.14	339	-0.1	100	-0.1	0	0	978.2	NA	0.0000		9999	980	0	0	0
2019/05/08 06:28:00	BASE	9.64	332	12.14	339	-0.2	100	-0.2	0	0	978.2	NA	0.0000		9999	520	0	0	0
2019/05/08 06:29:00	BASE	9.51	335	11.57	337	-0.2	100	-0.2	0	0	978.2	NA	0.0000		9999	720	0	0	0
2019/05/08 06:30:00	BASE	9.35	335	11.42	334	-0.2	100	-0.2	0	0	978.1	NA	0.0000		9999	560	0	0	0
2019/05/08 06:31:00	BASE	8.98	335	11.32	331	-0.2	100	-0.2	0	0	978.1	NA	0.0000		9999	890	0	0	0
2019/05/08 06:32:00	BASE	8.82	336	11.32	331	-0.2	100	-0.2	0	0	978.1	NA	0.0000		9999	920	0	0	0
2019/05/08 06:33:00	BASE	8.43	339	11.32	331	-0.2	100	-0.2	0	0	978.1	NA	0.0000		9999	430	0	0	0
2019/05/08 06:34:00	BASE	8.23	343	11.01	334	-0.2	100	-0.2	0	0	978.1	NA	0.0000		9999	460	0	0	0
2019/05/08 06:35:00	BASE	8.17	344	11.01	334	-0.2	100	-0.2	0	0	978.2	NA	0.0000		9999	390	0	0	0
2019/05/08 06:36:00	BASE	8.01	343	10.34	331	-0.2	100	-0.2	0	0	978.2	NA	0.0000		9999	0	0	0	2100
2019/05/08 06:37:00	BASE	7.92	342	10.13	334	-0.2	100	-0.2	0	0	978.2	NA	0.0000		9999	0	0	0	2030
2019/05/08 06:38:00	BASE	7.44	341	10.08	327	-0.2	100	-0.2	0	0	978.2	NA	0.0000		9999	0	0	0	2000
2019/05/08 06:39:00	BASE	6.81	339	9.72	336	-0.2	100	-0.2	0	0	978.2	NA	0.0000		9999	980	0	0	0
2019/05/08 06:40:00	BASE	6.75	336	9.21	340	-0.2	100	-0.2	0	0	978.2	NA	0.0000		9999	1350	0	0	0
2019/05/08 06:41:00	BASE	7.02	334	9.16	343	-0.2	100	-0.2	0	0	978.1	NA	0.0000		9999	1480	0	0	0
2019/05/08 06:42:00	BASE	6.66	335	8.95	352	-0.2	100	-0.2	0	0	978.2	NA	0.0000		9999	1250	0	0	0
2019/05/08 06:43:00	BASE	6.17	339	8.95	352	-0.2	100	-0.2	0	0	978.2	NA	0.0000		9999	920	0	0	0
2019/05/08 06:44:00	BASE	6.45	341	8.95	352	-0.2	100	-0.2	0	0	978.1	NA	0.0000		9999	490	0	0	0
2019/05/08 06:45:00	BASE	6.68	341	8.69	343	-0.2	100	-0.2	0	0	978.1	NA	0.0000		9999	1180	0	0	0
2019/05/08 06:46:00	BASE	6.06	340	8.18	337	-0.2	100	-0.2	0	0	978.1	NA	0.0000		9999	1120	0	0	0
2019/05/08 06:47:00	BASE	5.79	343	8.18	337	-0.2	100	-0.2	0	0	978.1	NA	0.0000		9999	1180	0	0	0
2019/05/08 06:48:00	BASE	5.81	349	8.18	337	-0.2	100	-0.2	0	0	978.1	NA	0.0000		9999	560	0	0	0
2019/05/08 06:49:00	BASE	5.84	351	8.18	337	-0.2	100	-0.2	0	0	978.1	NA	0.0000		9999	1020	0	0	0
2019/05/08 06:50:00	BASE	6.03	353	7.61	329	-0.2	100	-0.2	0	0	978.0	NA	0.0000		9999	1410	0	0	0
2019/05/08 06:51:00	BASE	5.62	355	7.51	348	-0.2	100	-0.2	0	0	978.0	NA	0.0000		9999	1510	0	0	0
2019/05/08 06:52:01	BASE	5.66	353	7.51	348	-0.2	100	-0.2	0	0	978.0	NA	0.0000		9999	1310	0	0	0
2019/05/08 06:53:00	BASE	6.12	348	7.51	348	-0.2	100	-0.2	0	0	978.1	NA	0.0000		9999	1210	0	0	0
2019/05/08 06:54:01	BASE	6.33	345	7.20	342	-0.2	100	-0.2	0	0	978.1	NA	0.0000		9999	1210	0	0	0
2019/05/08 06:55:00	BASE	6.51	345	7.20	342	-0.2	100	-0.2	0	0	978.1	NA	0.0000		9999	750	0	0	0
2019/05/08 06:56:01	BASE	6.35	343	7.20	342	-0.1	100	-0.1	0	0	978.1	NA	0.0000		9999	1180	0	0	0
2019/05/08 06:57:00	BASE	5.98	343	7.20	342	-0.1	100	-0.1	0	0	978.1	NA	0.0000		9999	1210	0	0	0
2019/05/08 06:58:00	BASE	5.86	346	7.20	342	-0.1	100	-0.1	0	0	978.1	NA	0.0000		9999	1150	0	0	0
2019/05/08 06:59:00	BASE	6.74	340	8.33	336	-0.1	100	-0.1	0	0	978.1	NA	0.0000		9999	950	0	0	0
2019/05/08 07:00:00	BASE	7.46	334	8.33	336	-0.1	100	-0.1	0	0	978.1	NA	0.0000		9999	1120	0	0	0
2019/05/08 07:01:00	BASE	6.91	335	8.33	336	-0.1	100	-0.1	0	0	978.1	NA	0.0000		9999	1050	0	0	0
2019/05/08 07:02:00	BASE	6.38	337	8.33	336	-0.2	100	-0.2	0	0	978.1	NA	0.0000		9999	1310	0	0	0
2019/05/08 07:03:00	BASE	6.43	336	8.33	336	-0.2	100	-0.2	0	0	978.1	NA	0.0000		9999	1150	0	0	0
2019/05/08 07:04:01	BASE	6.62	340	8.33	336	-0.2	100	-0.2	0	0	978.1	NA	0.0000		9999	1150	0	0	0
2019/05/08 07:05:01	BASE	6.79	342	8.33	336	-0.2	100	-0.2	0	0	978.1	NA	0.0000		9999	1180	0	0	0
2019/05/08 07:06:01	BASE	7.20	341	8.33	336	-0.2	100	-0.2	0	0	978.1	NA	0.0000		9999	1080	0	0	0
2019/05/08 07:07:01	BASE	7.23	341	8.33	336	-0.2	100	-0.2	0	0	978.0	NA	0.0000		9999	1210	0	0	0
2019/05/08 07:08:01	BASE	6.84	343	8.33	336	-0.1	100	-0.1	0	0	978.0	NA	0.0000		9999	1210	0	0	0
2019/05/08 07:09:01	BASE	7.17	347	8.44	344	-0.1	100	-0.1	0	0	977.9	NA	0.0000		9999	1210	0	0	0
2019/05/08 07:10:01	BASE	6.75	347	8.44	344	-0.1	100	-0.1	0	0	977.9	NA	0.0000		9999	1310	0	0	0
2019/05/08 07:11:01	BASE	5.76	347	8.44	344	-0.1	100	-0.1	0	0	977.9	NA	0.0000		9999	950	0	0	0
2019/05/08 07:12:01	BASE	5.99	348	8.44	344	-0.1	100	-0.1	0	0	977.9	NA	0.0000		9999	950	0	0	0
2019/05/08 07:13:01	BASE	6.35	344	8.44	344	-0.1	100	-0.1	0	0	977.9	NA	0.0000		9999	890	0	0	0
2019/05/08 07:14:01	BASE	6.66	342	8.44	344	-0.2	100	-0.2	0	0	977.9	NA	0.0000		9999	1150	0	0	0
2019/05/08 07:15:01	BASE	7.18	346	8.44	344	-0.2	100	-0.2	0	0	977.8	NA	0.0000		9999	1210	0	0	0
2019/05/08 07:16:01	BASE	7.12	348	8.44	344	-0.2	100	-0.2	0	0	977.9	NA	0.0000		9999	690	0	0	0
2019/05/08 07:17:00	BASE	7.07	346	8.44	344	-0.2	100	-0.2	0	0	977.8	NA	0.0000		9999	1150	0	0	0
2019/05/08 07:18:00	BASE	7.05	343	8.44	344	-0.1	100	-0.1	0	0	977.8	NA	0.0000		9999	1280	0	0	0
2019/05/08 07:19:00	BASE	6.98	344	8.08	341	-0.1	100	-0.1	0	0	977.8	NA	0.0000		9999	1180	0	0	0
2019/05/08 07:20:00	BASE	7.14	344	8.28	341	-0.1	100	-0.1	0	0	977.8	NA	0.0000		9999	1150	0	0	0
2019/05/08 07:21:00	BASE	7.71	342	8.49	344	-0.1	100	-0.1	0	0	977.8	NA	0.0000		9999	1020	0	0	0
2019/05/08 07:22:01	BASE	8.40	343	9.05	344	-0.1	100	-0.1	0	0	977.8	NA	0.0000		9999	980	0	0	0
2019/05/08 07:23:00	BASE	9.02	346	10.08	349	-0.1	100	-0.1	0	0	977.8	NA	0.0000		9999	1210	0	0	0
2019/05/08 07:24:01	BASE	8.89	347	10.08	349	-0.1	100	-0.1	0	0	977.8	NA	0.0000		9999	1120	0	0	0
2019/05/08 07:25:00	BASE	8.50	344	10.08	349	-0.1	100	-0.1	0	0	977.7	NA	0.0000		9999	1050	0	0	0
2019/05/08 07:26:00	BASE	8.67	345	10.08	349	-0.1	100	-0.1	0	0	977.7	NA	0.0000		9999	1080	0	0	0
2019/05/08 07:27:00	BASE	8.91	349	10.19	346	-0.2	100	-0.2	0	0	977.7	NA	0.0000		9999	1050	0	0	0
2019/05/08 07:28:00	BASE	8.24	345	10.19	346	-0.2	100	-0.2	0	0	977.7	NA	0.0000		9999	1150	0	0	0
2019/05/08 07:29:00	BASE	7.53	341	10.19	346	-0.2	100	-0.2	0	0	977.7	NA	0.0000		9999	1150	0	0	0
2019/05/08 07:30:00	BASE	7.80	341	10.19	346	-0.2	100	-0.2	0	0	977.7	NA	0.0000		9999	1180	0	0	0
2019/05/08 07:31:00	BASE	8.64	341	10.19	346	-0.2	100	-0.2	0	0	977.7	NA	0.0000		9999	1350	0	0	0
2019/05/08 07:32:00	BASE	9.07	341	10.19	346	-0.2	100	-0.2	0	0	977.7	NA	0.0000		9999	1080	0	0	0
2019/05/08 07:33:00	BASE	8.68	338	10.19	346	-0.2	100	-0.2	0	0	977.7	NA	0.0000		9999	1120	0	0	0
2019/05/08 07:34:00	BASE	8.68	337	10.19	346	-0.2	100	-0.2	0	0	977.7	NA	0.0000		9999	1120	0	0	0
2019/05/08 07:35:00	BASE	8.71	335	10.19	346	-0.2	100	-0.2	0	0	977.7	NA	0.0000		9999	1150	0	0	0
2019/05/08 07:36:00	BASE	8.81	333	10.39	338	-0.2	100	-0.2	0	0	977.7	NA	0.0000		9999	1050	0	0	0
2019/05/08 07:37:00	BASE	9.17	333	10.39	338	-0.2	100	-0.2	0	0	977.6	NA	0.0000		9999	1120	0	0	0
2019/05/08 07:38:00	BASE	8.69	333	10.39	338	-0.2	100	-0.2	0	0	977.6	NA	0.0000		9999	1150	0	0	0
2019/05/08 07:39:00	BASE	7.79	333	10.39	338	-0.2	100	-0.2	0	0	977.6	NA	0.0000		9999	980	0	0	0
2019/05/08 07:40:01	BASE	7.71	331	10.39	338	-0.2	100	-0.2	0	0	977.5	NA	0.0000		9999	950	0	0	0
2019/05/08 07:41:01	BASE	7.60	327	10.39	338	-0.2	100	-0.2	0	0	977.4	NA	0.0000		9999	1020	0	0	0
2019/05/08 07:42:01	BASE	7.38	329	10.39	338	-0.2	100	-0.2	0	0	977.4	NA	0.0000		9999	850	0	0	0
2019/05/08 07:43:01	BASE	7.42	330	10.39	338	-0.2	100	-0.2	0	0	977.4	NA	0.0000		9999	1180	0	0	0
2019/05/08 07:44:01	BASE	7.33	326	10.39	338	-0.2	100	-0.2	0	0	977.3	NA	0.0000		9999	1150	0	0	0
2019/05/08 07:45:01	BASE	6.88	323	10.39	338	-0.2	100	-0.2	0	0	977.3	NA	0.0000		9999	7320	0	0	0
2019/05/08 07:46:01	BASE	6.53	322	10.24	337	-0.2	100	-0.2	0	0	977.3	NA	0.0000		9999	7480	0	0	0
2019/05/08 07:47:01	BASE	6.64	317	9.36	332	-0.2	100	-0.2	0	0	977.3	NA	0.0000		9999	7420	0	0	0
2019/05/08 07:48:01	BASE	6.67	311	8.85	345	-0.2	100	-0.2	0	0	977.2	NA	0.0000		9999	7220	0	0	0
2019/05/08 07:49:01	BASE	6.89	304	8.59	295	-0.2	100	-0.2	0	0	977.1	NA	0.0000		9999	7020	0	0	0
2019/05/08 07:50:01	BASE	8.24	295	10.08	292	-0.2	100	-0.2	0	0	977.1	NA	0.0000		9999	6460	0	0	0
2019/05/08 07:51:01	BASE	9.26	299	10.65	305	-0.1	100	-0.1	0	0	977.1	NA	0.0000		9999	5870	0	0	0
2019/05/08 07:52:01	BASE	9.16	316	10.75	326	-0.1	100	-0.1	0	0	977.1	NA	0.0000		9999	5640	0	0	0
2019/05/08 07:53:01	BASE	8.59	325	10.75	326	-0.1	100	-0.1	0	0	977.1	NA	0.0000		9999	5410	0	0	0
2019/05/08 07:54:01	BASE	9.65	323	12.55	336	-0.1	100	-0.1	0	0	977.1	NA	0.0000		9999	5020	0	0	0
2019/05/08 07:55:01	BASE	10.69	326	12.55	336	-0.0	100	-0.0	0	0	977.1	NA	0.0000		9999	4920	0	0	0
2019/05/08 07:56:00	BASE	9.10	335	12.55	336	0.0	100	0.0	0	0	977.1	NA	0.0000		9999	4560	0	0	0
2019/05/08 07:57:00	BASE	8.66	336	12.55	336	0.0	100	0.0	0	0	977.0	NA	0.0000		9999	1800	0	0	0
2019/05/08 07:58:00	BASE	8.98	327	12.55	336	0.1	100	0.1	0	0	977.0	NA	0.0000		9999	4230	0	0	0
2019/05/08 07:59:00	BASE	8.22	324	12.55	336	0.1	100	0.1	0	0	977.1	NA	0.0000		9999	3900	0	0	0
2019/05/08 08:00:00	BASE	8.40	318	12.55	336	0.1	100	0.1	0	0	977.0	NA	0.0000		9999	0	0	0	560
2019/05/08 08:01:00	BASE	8.44	304	12.55	336	0.1	100	0.1	0	0	977.0	NA	0.0000		9999	3580	0	0	0
2019/05/08 08:02:00	BASE	7.59	297	12.55	336	0.1	100	0.1	0	0	977.0	NA	0.0000		9999	3640	0	0	0
2019/05/08 08:03:00	BASE	6.65	308	12.55	336	0.1	100	0.1	0	0	977.0	NA	0.0000		9999	3670	0	0	0
2019/05/08 08:04:00	BASE	6.35	312	11.27	322	0.1	100	0.1	0	0	977.0	NA	0.0000		9999	3450	0	0	0
2019/05/08 08:05:00	BASE	6.79	310	11.01	325	0.0	100	0.0	0	0	976.9	NA	0.0000		9999	3480	0	0	0
2019/05/08 08:06:00	BASE	6.33	320	11.01	325	0.0	100	0.0	0	0	976.8	NA	0.0000		9999	0	0	0	4130
2019/05/08 08:07:00	BASE	5.43	328	10.70	294	0.1	100	0.1	0	0	976.8	NA	0.0000		9999	4200	0	0	0
2019/05/08 08:08:00	BASE	4.96	332	10.70	294	0.1	100	0.1	0	0	976.7	NA	0.0000		9999	0	0	0	660
2019/05/08 08:09:00	BASE	5.28	317	10.70	294	0.2	100	0.2	0	0	976.7	NA	0.0000		9999	0	0	0	560
2019/05/08 08:10:00	BASE	5.62	292	9.41	299	0.2	100	0.2	0	0	976.7	NA	0.0000		9999	4130	0	0	0
2019/05/08 08:11:00	BASE	4.61	287	8.18	329	0.2	100	0.2	0	0	976.7	NA	0.0000		9999	2620	0	0	0
2019/05/08 08:12:00	BASE	3.53	287	8.18	329	0.2	100	0.2	0	0	976.6	NA	0.0000		9999	2920	0	0	0
2019/05/08 08:13:00	BASE	3.53	314	8.18	329	0.2	100	0.2	0	0	976.6	NA	0.0000		9999	2790	0	0	0
2019/05/08 08:14:01	BASE	4.55	355	8.18	329	0.3	100	0.3	0	0	976.6	NA	0.0000		9999	2950	0	0	0
2019/05/08 08:15:01	BASE	4.55	31	8.18	329	0.4	100	0.4	0	0	976.6	NA	0.0000		9999	2360	0	0	0
2019/05/08 08:16:01	BASE	5.57	50	11.01	26	0.5	100	0.5	0	0	976.6	NA	0.0000		9999	3610	0	0	0
2019/05/08 08:17:01	BASE	8.33	53	12.45	61	0.6	100	0.6	0	0	976.6	NA	0.0000		9999	3410	0	0	0
2019/05/08 08:18:00	BASE	7.91	57	12.45	61	0.7	100	0.7	0	0	976.6	NA	0.0000	UP	9999	0	0	0	3250
2019/05/08 08:19:00	BASE	7.29	61	12.45	61	0.8	100	0.8	0	0	976.6	NA	0.0000	UP	9999	0	0	0	2950
2019/05/08 08:20:00	BASE	5.60	80	12.45	61	0.9	100	0.9	0	0	976.6	NA	0.0000	UP	9999	0	0	0	3900
2019/05/08 08:21:00	BASE	4.53	81	12.45	61	0.9	100	0.9	0	0	976.6	NA	0.0000	UP	9999	0	0	0	3810
2019/05/08 08:22:00	BASE	4.67	64	12.45	61	0.9	100	0.9	0	0	976.6	NA	0.0000	UP	9999	0	0	0	3580
2019/05/08 08:23:00	BASE	5.31	60	12.45	61	1.0	100	1.0	0	0	976.6	NA	0.0000	UP	9999	0	0	0	3840
2019/05/08 08:24:01	BASE	7.59	72	12.45	61	1.0	100	1.0	0	0	976.5	NA	0.0000	UP	9999	0	0	0	3640
2019/05/08 08:25:01	BASE	8.19	98	12.45	61	1.0	100	1.0	0	0	976.5	NA	0.0000	UP	9999	0	0	0	3540
2019/05/08 08:26:01	BASE	8.07	113	12.45	61	1.0	100	1.0	0	0	976.5	NA	0.0000	UP	9999	0	0	0	3480
2019/05/08 08:27:01	BASE	8.07	119	12.04	66	0.9	100	0.9	0	0	976.5	NA	0.0000	UP	9999	2330	0	0	0
2019/05/08 08:28:01	BASE	7.73	123	12.04	66	0.8	100	0.8	0	0	976.5	NA	0.0000	UP	9999	2070	0	0	0
2019/05/08 08:29:01	BASE	6.28	119	10.55	50	0.7	100	0.7	0	0	976.6	NA	0.0000	UP	9999	2000	0	0	0
2019/05/08 08:30:01	BASE	5.22	115	10.55	50	0.6	100	0.6	0	0	976.6	NA	0.0000	UP	9999	2400	0	0	0
2019/05/08 08:31:01	BASE	4.98	108	10.55	50	0.6	100	0.6	0	0	976.5	NA	0.0000	UP	9999	1970	0	0	0
2019/05/08 08:32:01	BASE	5.35	99	10.55	50	0.5	100	0.5	0	0	976.5	NA	0.0000	UP	9999	1710	0	0	0
2019/05/08 08:33:01	BASE	5.57	97	10.08	95	0.5	100	0.5	0	0	976.5	NA	0.0000	UP	9999	1840	0	0	0
2019/05/08 08:34:01	BASE	5.24	98	9.57	85	0.5	100	0.5	0	0	976.5	NA	0.0000	UP	9999	1800	0	0	0
2019/05/08 08:35:00	BASE	5.51	108	8.75	129	0.5	100	0.5	0	0	976.5	NA	0.0000	UP	9999	1740	0	0	0
2019/05/08 08:36:01	BASE	6.78	115	10.34	113	0.5	100	0.5	0	0	976.4	NA	0.0000	UP	9999	2000	0	0	0
2019/05/08 08:37:00	BASE	8.45	114	10.44	107	0.4	100	0.4	0	0	976.4	NA	0.0000	UP	9999	0	0	0	2430
2019/05/08 08:38:00	BASE	8.66	118	10.44	107	0.4	100	0.4	0	0	976.4	NA	0.0000	UP	9999	2260	0	0	0
2019/05/08 08:39:00	BASE	7.76	126	10.44	107	0.3	100	0.3	0	0	976.4	NA	0.0000	UP	9000	2260	0	0	0
2019/05/08 08:40:00	BASE	8.08	127	10.44	107	0.2	100	0.2	0	0	976.4	NA	0.0000	UP	7000	0	0	0	2400
2019/05/08 08:41:00	BASE	7.21	121	10.44	107	0.2	100	0.2	0	0	976.4	NA	0.0000	UP BR	5000	0	0	0	2360
2019/05/08 08:42:00	BASE	5.57	110	10.44	107	0.1	100	0.1	0	0	976.4	NA	0.0000	-SN BR	4400	1510	0	0	0
2019/05/08 08:43:00	BASE	4.79	105	10.44	107	0.1	100	0.1	0	0	976.4	NA	0.0000	-SN BR	4700	1540	0	0	0
2019/05/08 08:44:00	BASE	5.49	102	10.44	107	0.1	100	0.1	0	0	976.3	NA	0.0000	-SN BR	5000	0	0	0	2260
2019/05/08 08:45:00	BASE	7.55	106	10.44	107	0.0	100	0.0	0	0	976.2	NA	0.0000	-SN BR	6000	0	0	0	2300
2019/05/08 08:46:01	BASE	7.47	105	10.44	107	0.0	100	-0.0	0	0	976.2	NA	0.0000	-SN BR	5000	0	0	0	2170
2019/05/08 08:47:01	BASE	6.01	91	10.13	123	-0.0	100	-0.0	0	0	976.2	NA	0.0000	-SN BR	4100	0	0	0	2130
2019/05/08 08:48:01	BASE	5.53	86	10.13	123	-0.1	100	-0.1	0	0	976.2	NA	0.0000	-SN BR	3500	0	0	0	2100
2019/05/08 08:49:00	BASE	6.19	98	10.13	123	-0.1	100	-0.1	0	0	976.2	NA	0.0000	-SN BR	3500	0	0	0	2230
2019/05/08 08:50:00	BASE	7.00	108	9.52	116	-0.1	100	-0.1	0	0	976.2	NA	0.0000	-SN BR	3600	0	0	0	2300
2019/05/08 08:51:00	BASE	6.83	106	9.52	116	-0.1	100	-0.1	0	0	976.1	NA	0.0000	-SN BR	2500	0	0	0	2300
2019/05/08 08:52:00	BASE	6.82	113	9.52	116	-0.2	100	-0.2	0	0	976.0	NA	0.0000	-SN BR	2600	0	0	0	2330
2019/05/08 08:53:00	BASE	7.46	118	9.52	116	-0.2	100	-0.2	0	0	976.0	NA	0.0000	-SN BR	3600	2490	0	0	0
2019/05/08 08:54:00	BASE	7.18	112	9.52	116	-0.2	100	-0.2	0	0	976.0	NA	0.0000	-SN BR	3400	300	0	0	0
2019/05/08 08:55:00	BASE	6.67	112	9.21	109	-0.2	100	-0.2	0	0	976.0	NA	0.0000	-SN BR	2300	0	0	0	2330
2019/05/08 08:56:00	BASE	7.27	119	9.21	109	-0.2	100	-0.2	0	0	976.0	NA	0.0000	-SN BR	1800	0	0	0	2260
2019/05/08 08:57:00	BASE	8.18	134	9.21	109	-0.2	100	-0.2	0	0	975.9	NA	0.0000	-SN BR	1600	0	0	0	2230
2019/05/08 08:58:00	BASE	8.13	139	9.21	109	-0.2	100	-0.2	0	0	975.9	NA	0.0000	-SN BR	1500	0	0	0	2100
2019/05/08 08:59:00	BASE	7.80	130	9.21	109	-0.2	100	-0.2	0	0	975.9	NA	0.0000	-SN BR	1600	0	0	0	2030
2019/05/08 09:00:00	BASE	7.84	124	9.21	109	-0.3	100	-0.3	0	0	975.9	NA	0.0000	-SN BR	1600	0	0	0	2100
2019/05/08 09:01:00	BASE	7.73	121	9.05	127	-0.3	100	-0.3	0	0	975.9	NA	0.0000	-SN BR	1600	0	0	0	2130
2019/05/08 09:02:00	BASE	7.51	120	9.77	96	-0.3	100	-0.3	0	0	975.9	NA	0.0000	-SN BR	1500	0	0	0	2200
2019/05/08 09:03:00	BASE	7.40	128	9.77	96	-0.3	100	-0.3	0	0	975.9	NA	0.0000	UP BR	1500	0	0	0	2230
2019/05/08 09:04:00	BASE	6.65	139	9.77	96	-0.3	100	-0.3	0	0	975.9	NA	0.2540	UP BR	1300	0	0	0	2200
2019/05/08 09:05:01	BASE	6.11	135	9.77	96	-0.3	100	-0.3	0	0	975.9	NA	0.0000	UP BR	1800	0	0	0	2230
2019/05/08 09:06:01	BASE	6.25	121	9.77	96	-0.3	100	-0.3	0	0	975.9	NA	0.0000	UP BR	2200	0	0	0	2200
2019/05/08 09:07:01	BASE	5.64	115	9.77	96	-0.3	100	-0.3	0	0	976.0	NA	0.0000	-SN BR	2300	0	0	0	2200
2019/05/08 09:08:01	BASE	5.15	109	9.77	96	-0.3	100	-0.3	0	0	976.0	NA	0.0000	-SN BR	3600	0	0	0	2200
2019/05/08 09:09:01	BASE	5.24	97	9.77	96	-0.3	100	-0.3	0	0	976.0	NA	0.0000	-SN BR	4800	0	0	0	2200
2019/05/08 09:10:01	BASE	5.00	96	9.77	96	-0.3	100	-0.3	0	0	976.0	NA	0.0000	-SN BR	5000	0	0	0	2130
2019/05/08 09:11:01	BASE	4.68	103	9.77	96	-0.3	100	-0.3	0	0	976.0	NA	0.0000	-SN BR	5000	0	0	0	2070
2019/05/08 09:12:01	BASE	4.20	108	8.69	126	-0.2	100	-0.2	0	0	975.9	NA	0.0000	-SN BR	6000	0	0	0	2100
2019/05/08 09:13:01	BASE	3.02	70	7.51	117	-0.2	100	-0.2	0	0	975.9	NA	0.0000	-SN BR	7000	0	0	0	2100
2019/05/08 09:14:01	BASE	3.44	17	10.80	15	-0.2	100	-0.2	0	0	975.8	NA	0.0000	-SN BR	9000	0	0	0	2130
2019/05/08 09:15:00	BASE	7.04	34	13.79	28	-0.1	100	-0.1	0	0	975.7	NA	0.0000	-SN BR	7000	0	0	0	2170
2019/05/08 09:16:01	BASE	11.37	40	17.34	39	-0.0	100	-0.0	0	0	975.6	NA	0.0000	-SN BR	5000	0	0	0	2300
2019/05/08 09:17:00	BASE	12.64	37	17.34	39	0.1	100	0.1	0	0	975.6	NA	0.0000	-SN BR	5000	0	0	0	2300
2019/05/08 09:18:01	BASE	13.43	35	17.34	39	0.1	100	0.1	0	0	975.4	NA	0.0000	-SN BR	5000	0	0	0	2330
2019/05/08 09:19:01	BASE	14.05	37	17.34	39	0.2	100	0.2	0	0	975.4	NA	0.0000	-SN BR	4700	0	0	0	2260
2019/05/08 09:20:01	BASE	13.43	36	17.34	39	0.2	100	0.2	0	0	975.3	NA	0.0000	-SN BR	3900	0	0	0	2100
2019/05/08 09:21:00	BASE	14.55	34	18.67	36	0.2	100	0.2	0	0	975.2	NA	0.0000	-SN BR	4000	0	0	0	2330
2019/05/08 09:22:00	BASE	13.81	35	18.67	36	0.3	100	0.3	0	0	975.2	NA	0.0000	-SN BR	4200	0	0	0	2490
2019/05/08 09:23:00	BASE	12.21	35	18.67	36	0.3	100	0.3	0	0	975.2	NA	0.0000	-SN BR	4100	0	0	0	2460
2019/05/08 09:24:00	BASE	13.91	33	18.67	36	0.3	100	0.3	0	0	975.1	NA	0.0000	-SN BR	4100	0	0	0	2400
2019/05/08 09:25:00	BASE	15.84	34	18.67	36	0.3	100	0.3	0	0	975.1	NA	0.0000	-SN BR	4100	0	0	0	2460
2019/05/08 09:26:00	BASE	15.97	35	18.78	40	0.3	100	0.3	0	0	975.0	NA	0.0000	-SN BR	3800	0	0	0	2530
2019/05/08 09:27:00	BASE	15.72	35	20.53	39	0.4	100	0.4	0	0	974.9	NA	0.0000	-SN BR	3700	0	0	0	2460
2019/05/08 09:28:00	BASE	16.62	35	21.04	33	0.4	100	0.4	0	0	974.8	NA	0.0000	-SN BR	3500	0	0	0	2130
2019/05/08 09:29:00	BASE	17.68	35	21.61	41	0.4	100	0.4	0	0	974.8	NA	0.0000	-SN BR	4100	0	0	0	2460
2019/05/08 09:30:00	BASE	18.00	35	21.61	41	0.5	100	0.5	0	0	974.7	NA	0.0000	-SN BR	4700	0	0	0	3150
2019/05/08 09:31:00	BASE	18.62	36	21.61	41	0.5	100	0.5	0	0	974.7	NA	0.0000	-SN BR	4500	0	0	0	3350
2019/05/08 09:32:00	BASE	19.36	34	23.72	28	0.6	100	0.6	0	0	974.6	NA	0.0000	-SN BR	4800	0	0	0	3380
2019/05/08 09:33:00	BASE	19.44	33	23.72	28	0.6	100	0.6	0	0	974.6	NA	0.0000	-SN BR	3900	0	0	0	3020
2019/05/08 09:34:00	BASE	19.96	33	24.33	26	0.7	100	0.7	0	0	974.6	NA	0.0000	-SN BR	3300	0	0	0	2990
2019/05/08 09:35:00	BASE	21.25	35	25.05	27	0.7	100	0.7	0	0	974.5	NA	0.0000	-SN BR	3500	0	0	0	2660
2019/05/08 09:36:00	BASE	21.92	32	25.67	27	0.8	100	0.8	0	0	974.6	NA	0.0000	-SN BR	3600	0	0	0	2460
2019/05/08 09:37:00	BASE	21.79	31	25.67	27	0.8	100	0.8	0	0	974.6	NA	0.0000	-SN BR	3100	0	0	0	2530
2019/05/08 09:38:00	BASE	21.73	29	26.24	34	0.8	100	0.8	0	0	974.6	NA	0.0000	-SN BR	2800	0	0	0	2130
2019/05/08 09:39:00	BASE	22.67	29	27.42	39	0.9	100	0.9	0	0	974.6	NA	0.0000	-SN BR	3000	0	0	0	1900
2019/05/08 09:40:00	BASE	23.16	31	27.42	39	0.9	100	0.9	0	0	974.6	NA	0.0000	-SN BR	3000	0	0	0	2030
2019/05/08 09:41:00	BASE	22.36	29	27.42	39	0.9	100	0.9	0	0	974.6	NA	0.0000	-SN BR	3200	0	0	0	2330
2019/05/08 09:42:00	BASE	22.27	28	27.42	39	1.0	100	1.0	0	0	974.6	NA	0.0000	-SN BR	3600	0	0	0	2430
2019/05/08 09:43:00	BASE	23.07	30	27.42	39	0.9	100	0.9	0	0	974.5	NA	0.0000	-SN BR	3600	0	0	0	2690
2019/05/08 09:44:01	BASE	23.54	30	27.42	39	1.0	100	1.0	0	0	974.4	NA	0.0000	-SN BR	3200	0	0	0	2790
2019/05/08 09:45:01	BASE	23.84	29	27.42	39	1.0	100	1.0	0	0	974.4	NA	0.0000	-SN BR	3200	0	0	0	2950
2019/05/08 09:46:01	BASE	23.16	26	27.42	39	1.0	100	1.0	0	0	974.4	NA	0.0000	-SN BR	3500	0	0	0	2850
2019/05/08 09:47:01	BASE	24.26	26	28.71	32	1.0	100	1.0	0	0	974.3	NA	0.0000	-SN BR	3800	0	0	0	2430
2019/05/08 09:48:01	BASE	25.15	27	28.71	32	1.0	100	1.0	0	0	974.4	NA	0.0000	-SN BR	3200	300	0	0	0
2019/05/08 09:49:01	BASE	25.00	27	28.86	31	0.9	100	0.9	0	0	974.3	NA	0.0000	-SN BR	3100	0	0	0	2950
2019/05/08 09:50:01	BASE	26.52	27	29.27	31	0.9	100	0.9	0	0	974.2	NA	0.0000	-SN BR	3800	0	0	0	3180
2019/05/08 09:51:01	BASE	26.47	27	30.15	24	0.9	100	0.9	0	0	974.1	NA	0.0000	-SN BR	3600	0	0	0	3310
2019/05/08 09:52:01	BASE	26.14	29	30.15	24	0.9	100	0.9	0	0	974.1	NA	0.0000	-SN BR	3500	0	0	0	3020
2019/05/08 09:53:01	BASE	25.39	29	30.15	24	0.9	100	0.9	0	0	974.1	NA	0.0000	-SN BR	3500	0	0	0	2990
2019/05/08 09:54:01	BASE	24.80	29	30.15	24	0.9	100	0.9	0	0	974.0	NA	0.0000	-SN BR	3600	0	0	0	3180
2019/05/08 09:55:00	BASE	25.78	31	30.15	24	0.9	100	0.9	0	0	973.9	NA	0.0000	-SN BR	3700	0	0	0	3380
2019/05/08 09:56:00	BASE	27.13	31	30.15	24	0.9	100	0.9	0	0	973.8	NA	0.0000	-SN BR	3600	0	0	0	3450
2019/05/08 09:57:00	BASE	28.17	29	30.51	27	0.9	100	0.9	0	0	973.7	NA	0.0000	-SN BR	3600	0	0	0	3540
2019/05/08 09:58:00	BASE	27.87	26	30.51	27	0.9	100	0.9	0	0	973.8	NA	0.0000	-SN BR	3600	0	0	0	3540
2019/05/08 09:59:00	BASE	27.69	27	30.51	27	0.9	100	0.9	0	0	973.8	NA	0.2540	-SN BR	3300	0	0	0	2920
2019/05/08 10:00:00	BASE	27.04	29	30.51	27	0.9	100	0.9	0	0	973.7	NA	0.0000	-SN BR	3300	0	0	0	2660
2019/05/08 10:01:00	BASE	26.96	28	32.56	23	0.9	100	0.9	0	0	973.7	NA	0.0000	-SN BR	3600	0	0	0	2790
2019/05/08 10:02:00	BASE	26.88	29	32.56	23	0.9	100	0.9	0	0	973.8	NA	0.0000	-SN BR	3700	0	0	0	3220
2019/05/08 10:03:00	BASE	25.28	28	32.56	23	0.9	100	0.9	0	0	973.8	NA	0.0000	-SN BR	3800	0	0	0	3280
2019/05/08 10:04:00	BASE	25.50	28	32.56	23	0.9	100	0.9	0	0	973.8	NA	0.0000	-SN BR	3800	0	0	0	3380
2019/05/08 10:05:00	BASE	26.50	29	32.56	23	0.9	100	0.9	0	0	973.8	NA	0.0000	-SN BR	3700	0	0	0	3310
2019/05/08 10:06:00	BASE	27.71	29	32.56	23	0.9	100	0.9	0	0	973.7	NA	0.0000	-SN BR	3400	0	0	0	2950
2019/05/08 10:07:00	BASE	28.43	30	32.56	23	0.9	100	0.9	0	0	973.7	NA	0.0000	-SN BR	3300	300	0	0	0
2019/05/08 10:08:00	BASE	27.36	30	32.56	23	0.9	100	0.9	0	0	973.8	NA	0.0000	-SN BR	2800	300	0	0	0
2019/05/08 10:09:00	BASE	25.30	26	32.56	23	0.9	100	0.9	0	0	973.8	NA	0.0000	-SN BR	2500	230	0	0	0
2019/05/08 10:10:00	BASE	24.02	26	32.56	23	0.9	100	0.9	0	0	973.7	NA	0.0000	-SN BR	2300	0	0	0	2130
2019/05/08 10:11:00	BASE	26.41	28	31.84	35	0.9	100	0.9	0	0	973.5	NA	0.0000	-SN BR	2000	0	0	0	2300
2019/05/08 10:12:00	BASE	28.25	25	31.84	35	0.9	100	0.9	0	0	973.5	NA	0.0000	-SN BR	1900	0	0	0	2820
2019/05/08 10:13:00	BASE	28.05	22	31.84	35	0.8	100	0.8	0	0	973.5	NA	0.0000	-SN BR	2600	300	0	0	0
2019/05/08 10:14:00	BASE	27.89	21	31.84	35	0.8	100	0.8	0	0	973.4	NA	0.0000	-SN BR	3800	330	0	0	0
2019/05/08 10:15:00	BASE	26.46	21	31.84	35	0.8	100	0.8	0	0	973.5	NA	0.0000	-SN BR	4800	330	0	0	0
2019/05/08 10:16:00	BASE	26.00	23	32.36	29	0.9	100	0.9	0	0	973.4	NA	0.0000	-SN BR	6000	0	0	0	4890
2019/05/08 10:17:00	BASE	27.58	25	32.36	29	0.9	100	0.9	0	0	973.5	NA	0.0000	-SN BR	4900	0	0	0	4630
2019/05/08 10:18:00	BASE	25.82	27	32.36	29	0.9	100	0.9	0	0	973.7	NA	0.0000	-SN BR	6000	4070	0	0	0
2019/05/08 10:19:00	BASE	25.97	34	32.36	29	0.9	100	0.9	0	0	973.4	NA	0.0000	-SN BR	9999	3970	0	0	0
2019/05/08 10:20:00	BASE	29.78	37	32.92	41	1.0	100	1.0	0	0	973.2	NA	0.0000	-SN BR	9999	4000	0	0	0
2019/05/08 10:21:00	BASE	28.84	33	32.92	41	1.0	100	1.0	0	0	973.3	NA	0.0000	-SN BR	9999	4130	0	0	0
2019/05/08 10:22:01	BASE	26.41	30	32.92	41	1.1	100	1.1	0	0	973.4	NA	0.0000	-SN BR	9999	4040	0	0	0
2019/05/08 10:23:01	BASE	26.86	33	32.92	41	1.1	100	1.1	0	0	973.3	NA	0.0000	-SN BR	9999	4070	0	0	0
2019/05/08 10:24:01	BASE	27.66	31	32.92	41	1.2	100	1.2	0	0	973.3	NA	0.0000	-SN BR	9999	4070	0	0	0
2019/05/08 10:25:01	BASE	25.87	25	32.92	41	1.2	100	1.2	0	0	973.4	NA	0.0000	-SN BR	9999	3900	0	0	0
2019/05/08 10:26:01	BASE	23.29	26	32.92	41	1.2	100	1.2	0	0	973.4	NA	0.0000	-SN	9999	4200	0	0	0
2019/05/08 10:27:00	BASE	25.22	30	32.92	41	1.3	100	1.3	0	0	973.1	NA	0.0000	-SN	9999	4130	0	0	0
2019/05/08 10:28:00	BASE	27.50	29	32.92	41	1.4	100	1.4	0	0	973.2	NA	0.0000	-SN	9999	4070	0	0	0
2019/05/08 10:29:00	BASE	27.46	28	32.92	41	1.4	100	1.4	0	0	973.1	NA	0.0000	-SN	9999	4040	0	0	0
2019/05/08 10:30:00	BASE	27.97	27	31.95	36	1.5	100	1.5	0	0	973.1	NA	0.0000	-SN	9999	3840	0	0	0
2019/05/08 10:31:00	BASE	26.98	26	31.95	36	1.5	100	1.5	0	0	973.1	NA	0.0000	-SN	9999	3870	0	0	0
2019/05/08 10:32:00	BASE	26.74	27	31.95	36	1.6	100	1.6	0	0	972.9	NA	0.0000	-SN	9999	4070	0	0	0
2019/05/08 10:33:00	BASE	26.82	26	31.95	36	1.6	100	1.6	0	0	972.9	NA	0.0000	-SN	9999	4460	0	0	0
2019/05/08 10:34:00	BASE	27.61	25	31.95	36	1.6	100	1.6	0	0	972.8	NA	0.0000	-SN	9999	4460	0	0	0
2019/05/08 10:35:00	BASE	28.80	25	31.95	36	1.7	100	1.7	0	0	972.8	NA	0.0000	-SN	9999	4360	0	0	0
2019/05/08 10:36:00	BASE	28.28	25	31.95	36	1.7	100	1.7	0	0	972.8	NA	0.0000	-SN	9999	4430	0	0	0
2019/05/08 10:37:00	BASE	27.27	25	31.95	36	1.8	100	1.8	0	0	972.9	NA	0.0000	-SN	9999	4560	0	0	0
2019/05/08 10:38:00	BASE	25.14	25	31.95	36	1.8	100	1.8	0	0	972.9	NA	0.0000	-SN	9999	4950	0	0	0
2019/05/08 10:39:00	BASE	23.43	25	31.48	20	1.8	100	1.8	0	0	973.0	NA	0.0000	-SN	9999	4660	0	0	0
2019/05/08 10:40:00	BASE	22.97	25	31.48	20	1.8	100	1.8	0	0	973.1	NA	0.0000		9999	4530	0	0	0
2019/05/08 10:41:00	BASE	23.05	26	31.48	20	1.8	100	1.8	0	0	973.0	NA	0.0000		9999	4360	0	0	0
2019/05/08 10:42:00	BASE	24.55	25	31.48	20	1.8	100	1.8	0	0	972.9	NA	0.0000		9999	2820	3610	0	0
2019/05/08 10:43:00	BASE	25.39	24	31.48	20	1.7	100	1.7	0	0	973.0	NA	0.0000		9999	2430	3670	0	0
2019/05/08 10:44:00	BASE	23.80	25	31.48	20	1.7	100	1.7	0	0	973.1	NA	0.0000		9999	2530	4000	0	0
2019/05/08 10:45:00	BASE	24.62	26	30.40	30	1.7	100	1.7	0	0	972.8	NA	0.0000		9999	3710	4330	0	0
2019/05/08 10:46:00	BASE	27.80	27	30.71	25	1.7	100	1.7	0	0	972.7	NA	0.0000		9999	4040	0	0	0
2019/05/08 10:47:00	BASE	29.40	26	32.72	35	1.7	100	1.7	0	0	972.6	NA	0.0000		9999	3280	0	0	0
2019/05/08 10:48:00	BASE	28.50	25	32.72	35	1.7	100	1.7	0	0	972.9	NA	0.0000		9999	3450	0	0	0
2019/05/08 10:49:00	BASE	27.11	24	32.72	35	1.8	100	1.8	0	0	972.9	NA	0.0000		9999	3410	0	0	0
2019/05/08 10:50:00	BASE	26.93	23	32.72	35	1.8	100	1.8	0	0	972.9	NA	0.0000		9999	3020	0	0	0
2019/05/08 10:51:00	BASE	28.28	24	32.72	35	1.8	100	1.8	0	0	972.7	NA	0.0000		9999	3080	0	0	0
2019/05/08 10:52:00	BASE	29.71	23	34.00	26	1.8	100	1.8	0	0	972.8	NA	0.0000		9999	3250	0	0	0
2019/05/08 10:53:00	BASE	30.07	23	34.00	26	1.8	100	1.8	0	0	972.7	NA	0.0000		9999	3480	0	0	0
2019/05/08 10:54:00	BASE	31.04	25	34.47	26	1.7	100	1.7	0	0	972.5	NA	0.0000		8000	3410	0	0	0
2019/05/08 10:55:00	BASE	32.07	24	34.47	26	1.7	100	1.7	0	0	972.6	NA	0.0000	-SN	4500	3610	0	0	0
2019/05/08 10:56:00	BASE	33.21	23	38.74	24	1.8	100	1.8	0	0	972.5	NA	0.0000	-SN BR	4700	4000	0	0	0
2019/05/08 10:57:00	BASE	34.70	24	41.21	23	1.8	100	1.8	0	0	972.4	NA	0.0000	-SN BR	4700	2490	0	0	0
2019/05/08 10:58:00	BASE	35.15	23	41.21	23	1.8	100	1.8	0	0	972.5	NA	0.0000	-SN BR	3800	0	0	0	3380
2019/05/08 10:59:00	BASE	33.88	23	41.21	23	1.8	100	1.8	0	0	972.5	NA	0.0000	-SN BR	3300	0	0	0	2660
2019/05/08 11:00:00	BASE	32.01	22	41.21	23	1.7	100	1.7	0	0	972.6	NA	0.0000	-SN BR	2500	0	0	0	2560
2019/05/08 11:01:00	BASE	28.95	22	41.21	23	1.7	100	1.7	0	0	972.9	NA	0.0000	-SN BR	2600	0	0	0	3350
2019/05/08 11:02:00	BASE	27.61	21	41.21	23	1.6	100	1.6	0	0	972.9	NA	0.0000	-SN BR	4500	0	0	0	5510
2019/05/08 11:03:01	BASE	30.36	24	41.21	23	1.6	100	1.6	0	0	972.6	NA	0.0000	-SN BR	6000	0	0	0	5540
2019/05/08 11:04:01	BASE	32.73	25	41.21	23	1.6	100	1.6	0	0	972.4	NA	0.0000	-SN BR	6000	0	0	0	5810
2019/05/08 11:05:01	BASE	31.53	23	41.21	23	1.7	100	1.7	0	0	972.7	NA	0.0000	-SN BR	8000	0	0	0	6100
2019/05/08 11:06:01	BASE	29.58	21	41.21	23	1.7	100	1.7	0	0	972.9	NA	0.0000	-SN BR	9999	0	0	0	5910
2019/05/08 11:07:01	BASE	28.70	15	40.08	28	1.8	100	1.8	0	0	972.9	NA	0.0000	-SN BR	9999	0	0	0	4560
2019/05/08 11:08:01	BASE	28.57	7	40.08	28	1.8	100	1.8	0	0	973.0	NA	0.0000	-SN BR	7000	0	0	0	4790
2019/05/08 11:09:01	BASE	28.79	8	40.08	28	1.8	100	1.8	0	0	972.9	NA	0.0000	-SN BR	7000	390	0	0	0
2019/05/08 11:10:01	BASE	30.52	14	40.08	28	1.7	100	1.7	0	0	972.8	NA	0.0000	-SN BR	5000	0	0	0	3020
2019/05/08 11:11:01	BASE	33.39	15	40.08	28	1.7	100	1.7	0	0	972.8	NA	0.0000	-SN BR	3200	390	0	0	0
2019/05/08 11:12:01	BASE	34.19	17	40.08	28	1.6	100	1.6	0	0	972.8	NA	0.0000	-SN BR	2400	330	0	0	0
2019/05/08 11:13:01	BASE	31.26	17	40.08	28	1.5	100	1.5	0	0	973.2	NA	0.0000	-SN BR	2100	300	0	0	0
2019/05/08 11:14:01	BASE	27.79	16	38.17	24	1.5	100	1.5	0	0	973.2	NA	0.0000	-SN BR	3200	0	0	0	3120
2019/05/08 11:15:01	BASE	28.36	17	38.17	24	1.4	100	1.4	0	0	973.2	NA	0.0000	-SN BR	5000	0	0	0	3280
2019/05/08 11:16:01	BASE	28.71	13	38.17	24	1.4	100	1.4	0	0	973.4	NA	0.0000	-SN BR	6000	360	0	0	0
2019/05/08 11:17:01	BASE	27.63	10	38.17	24	1.4	100	1.4	0	0	973.4	NA	0.0000	-SN BR	9000	300	0	0	0
2019/05/08 11:18:01	BASE	26.35	10	38.17	24	1.4	100	1.4	0	0	973.5	NA	0.0000	-SN BR	6000	0	0	0	2820
2019/05/08 11:19:01	BASE	25.65	10	38.17	24	1.4	100	1.4	0	0	973.5	NA	0.0000	-SN BR	5000	260	0	0	0
2019/05/08 11:20:01	BASE	29.11	6	38.17	24	1.4	100	1.4	0	0	973.1	NA	0.0000	-SN BR	7000	620	0	0	0
2019/05/08 11:21:01	BASE	28.94	8	38.17	24	1.5	100	1.5	0	0	973.5	NA	0.0000	-SN BR	5000	390	0	0	0
2019/05/08 11:22:01	BASE	26.91	11	35.55	1	1.5	100	1.5	0	0	973.4	NA	0.0000	-SN BR	5000	360	0	0	0
2019/05/08 11:23:01	BASE	28.69	6	35.55	1	1.6	100	1.6	0	0	973.3	NA	0.2540	-SN BR	5000	390	0	0	0
2019/05/08 11:24:01	BASE	27.24	355	35.55	1	1.8	100	1.8	0	0	973.5	NA	0.0000	-SN BR	7000	0	0	0	2850
2019/05/08 11:25:01	BASE	23.19	347	35.55	1	1.9	100	1.9	0	0	973.7	NA	0.0000	-SN BR	9999	0	0	0	3020
2019/05/08 11:26:01	BASE	21.45	346	35.55	1	2.0	100	2.0	0	0	973.7	NA	0.0000	-SN BR	9999	0	0	0	3150
2019/05/08 11:27:00	BASE	20.58	348	35.55	1	2.0	100	2.0	0	0	973.8	NA	0.0000	-SN BR	9999	0	0	0	4100
2019/05/08 11:28:01	BASE	20.13	347	35.55	1	2.0	100	2.0	0	0	973.8	NA	0.0000	-SN BR	9999	520	2400	0	0
2019/05/08 11:29:00	BASE	19.80	348	35.55	1	2.0	100	2.0	0	0	973.8	NA	0.0000	-SN BR	9999	0	0	0	3180
2019/05/08 11:30:00	BASE	20.05	352	35.14	2	2.0	100	2.0	0	0	973.7	NA	0.0000	-SN BR	9999	0	0	0	4790
2019/05/08 11:31:00	BASE	20.57	354	35.14	2	2.0	100	2.0	0	0	973.7	NA	0.0000	-SN	9999	590	0	0	0
2019/05/08 11:32:01	BASE	18.91	356	35.14	2	2.0	100	2.0	0	0	973.8	NA	0.0000	-SN	9999	2990	0	0	0
2019/05/08 11:33:00	BASE	18.29	354	28.86	346	2.0	100	2.0	0	0	973.9	NA	0.0000		9999	0	0	0	4530
2019/05/08 11:34:01	BASE	18.44	349	24.44	347	2.1	100	2.1	0	0	973.9	NA	0.0000		9999	0	0	0	4630
2019/05/08 11:35:01	BASE	19.86	348	24.44	347	2.1	100	2.1	0	0	973.8	NA	0.0000		9999	0	0	0	4490
2019/05/08 11:36:01	BASE	21.65	346	25.67	342	2.1	100	2.1	0	0	973.9	NA	0.0000		9999	0	0	0	3740
2019/05/08 11:37:01	BASE	20.72	345	25.67	342	2.1	100	2.1	0	0	974.0	NA	0.0000		9999	0	0	0	3580
2019/05/08 11:38:01	BASE	19.73	345	25.67	342	2.1	100	2.1	0	0	974.1	NA	0.0000		9999	0	0	0	3580
2019/05/08 11:39:00	BASE	19.48	343	25.67	342	2.0	100	2.0	0	0	974.1	NA	0.0000		9999	0	0	0	3220
2019/05/08 11:40:00	BASE	21.97	343	28.40	333	2.0	100	2.0	0	0	973.9	NA	0.0000		9999	560	0	0	0
2019/05/08 11:41:00	BASE	23.06	348	28.40	333	2.0	100	2.0	0	0	974.0	NA	0.0000		9999	330	0	0	0
2019/05/08 11:42:00	BASE	19.62	348	28.40	333	2.0	100	2.0	0	0	974.1	NA	0.0000		9999	0	0	0	2890
2019/05/08 11:43:00	BASE	18.31	340	28.40	333	1.9	100	1.9	0	0	974.2	NA	0.0000		9999	330	0	0	0
2019/05/08 11:44:00	BASE	18.71	340	28.40	333	1.9	100	1.9	0	0	974.2	NA	0.0000		9999	330	0	0	0
2019/05/08 11:45:00	BASE	18.71	345	28.40	333	1.8	100	1.8	0	0	974.2	NA	0.0000		9999	920	0	0	0
2019/05/08 11:46:00	BASE	19.42	349	28.40	333	1.8	100	1.8	0	0	974.3	NA	0.0000		9999	360	0	0	0
2019/05/08 11:47:00	BASE	20.24	351	28.40	333	1.8	100	1.8	0	0	974.3	NA	0.0000		9999	300	0	0	0
2019/05/08 11:48:00	BASE	19.85	348	28.40	333	1.8	100	1.8	0	0	974.2	NA	0.0000		9999	300	0	0	0
2019/05/08 11:49:00	BASE	20.10	353	28.40	333	1.7	100	1.7	0	0	974.2	NA	0.0000		9999	330	0	0	0
2019/05/08 11:50:00	BASE	21.69	359	24.64	360	1.7	100	1.7	0	0	974.1	NA	0.0000		9999	300	0	0	0
2019/05/08 11:51:00	BASE	23.19	0	26.60	10	1.7	100	1.7	0	0	974.1	NA	0.0000	-SN	9999	360	0	0	0
2019/05/08 11:52:00	BASE	23.87	357	28.40	339	1.7	100	1.7	0	0	974.0	NA	0.0000	-SN	9999	360	0	0	0
2019/05/08 11:53:00	BASE	24.83	357	28.40	1	1.7	100	1.7	0	0	974.0	NA	0.2540	-SN	6000	300	0	0	0
2019/05/08 11:54:00	BASE	24.78	0	28.40	1	1.6	100	1.6	0	0	974.1	NA	0.0000	-SN	6000	300	0	0	0
2019/05/08 11:55:00	BASE	24.11	0	28.40	1	1.6	100	1.6	0	0	974.1	NA	0.0000	-SN	9999	300	0	0	0
2019/05/08 11:56:00	BASE	23.93	2	28.40	1	1.6	100	1.6	0	0	974.1	NA	0.0000	-SN	9999	330	0	0	0
2019/05/08 11:57:00	BASE	23.45	5	28.40	1	1.6	100	1.6	0	0	974.0	NA	0.0000	-SN	9999	330	0	0	0
2019/05/08 11:58:00	BASE	24.19	1	28.40	1	1.6	100	1.6	0	0	974.0	NA	0.0000	-SN	9999	330	0	0	0
2019/05/08 11:59:00	BASE	23.83	355	28.40	1	1.6	100	1.6	0	0	974.0	NA	0.0000	-SN	9999	330	0	0	0
2019/05/08 12:00:00	BASE	22.65	355	28.40	1	1.6	100	1.6	0	0	974.0	NA	0.0000	-SN BR	7000	360	0	0	0
2019/05/08 12:01:00	BASE	23.32	359	28.40	1	1.6	100	1.6	0	0	973.9	NA	0.0000	-SN BR	6000	330	0	0	0
2019/05/08 12:02:00	BASE	25.06	3	28.40	1	1.6	100	1.6	0	0	973.9	NA	0.0000	-SN BR	8000	300	0	0	0
2019/05/08 12:03:00	BASE	25.83	1	28.14	3	1.6	100	1.6	0	0	974.0	NA	0.0000	-SN BR	9999	260	0	0	0
2019/05/08 12:04:00	BASE	24.69	359	28.14	3	1.6	100	1.6	0	0	974.1	NA	0.2540	-SN BR	9999	0	0	0	3150
2019/05/08 12:05:00	BASE	24.13	358	27.93	360	1.6	100	1.6	0	0	974.0	NA	0.0000	-SN BR	9000	0	0	0	2850
2019/05/08 12:06:00	BASE	23.01	357	27.93	360	1.6	100	1.6	0	0	974.2	NA	0.0000	-SN BR	9999	690	0	0	0
2019/05/08 12:07:00	BASE	21.71	354	27.93	360	1.7	100	1.7	0	0	974.2	NA	0.0000	-SN BR	9999	390	0	0	0
2019/05/08 12:08:00	BASE	23.18	356	27.93	360	1.7	100	1.7	0	0	974.1	NA	0.0000	-SN BR	9999	360	0	0	0
2019/05/08 12:09:00	BASE	25.28	360	27.83	1	1.7	100	1.7	0	0	974.1	NA	0.0000	-SN BR	9999	300	0	0	0
2019/05/08 12:10:00	BASE	25.99	4	27.83	1	1.7	100	1.7	0	0	974.1	NA	0.0000	-SN	9999	360	0	0	0
2019/05/08 12:11:00	BASE	25.61	5	27.83	1	1.6	100	1.6	0	0	974.2	NA	0.0000	-SN	9999	0	0	0	2760
2019/05/08 12:12:00	BASE	24.97	2	27.83	1	1.6	100	1.6	0	0	974.2	NA	0.0000	-SN	9999	390	0	0	0
2019/05/08 12:13:01	BASE	24.82	2	27.83	1	1.5	100	1.5	0	0	974.2	NA	0.0000	-SN	9999	390	0	0	0
2019/05/08 12:14:01	BASE	24.87	3	27.83	1	1.5	100	1.5	0	0	974.3	NA	0.0000	-SN	9999	0	0	0	2890
2019/05/08 12:15:01	BASE	25.71	3	28.45	360	1.5	100	1.5	0	0	974.2	NA	0.0000	-SN	9999	0	0	0	2690
2019/05/08 12:16:01	BASE	26.57	5	29.73	4	1.5	100	1.5	0	0	974.2	NA	0.0000	-SN	9999	0	0	0	2690
2019/05/08 12:17:01	BASE	26.35	6	29.73	4	1.6	100	1.6	0	0	974.2	NA	0.0000	-SN	9999	430	0	0	0
2019/05/08 12:18:01	BASE	25.70	4	29.73	4	1.6	100	1.6	0	0	974.3	NA	0.0000	-SN	9999	460	0	0	0
2019/05/08 12:19:01	BASE	26.28	2	31.48	355	1.6	100	1.6	0	0	974.2	NA	0.2540	-SN	9999	590	0	0	0
2019/05/08 12:20:01	BASE	23.72	360	31.48	355	1.7	100	1.7	0	0	974.4	NA	0.0000	-SN	9999	490	0	0	0
2019/05/08 12:21:01	BASE	21.32	0	31.48	355	1.8	100	1.8	0	0	974.3	NA	0.0000	-SN	9999	850	0	0	0
2019/05/08 12:22:01	BASE	23.30	360	31.48	355	1.9	100	1.9	0	0	974.3	NA	0.0000	-SN	9999	1570	0	0	0
2019/05/08 12:23:01	BASE	23.85	356	31.48	355	2.0	100	2.0	0	0	974.3	NA	0.0000	-SN	9999	950	0	0	0
2019/05/08 12:24:01	BASE	24.79	359	31.48	355	2.0	100	2.0	0	0	974.3	NA	0.0000	-SN	9999	1250	0	0	0
2019/05/08 12:25:01	BASE	25.01	356	31.48	355	2.1	100	2.1	0	0	974.4	NA	0.0000	-SN	9999	660	0	0	0
2019/05/08 12:26:01	BASE	23.53	355	31.48	355	2.1	100	2.1	1	0	974.4	NA	0.0000	-SN	9999	660	0	0	0
2019/05/08 12:27:01	BASE	24.19	357	31.48	355	2.2	100	2.2	1	0	974.3	NA	0.0000	-SN	9999	620	0	0	0
2019/05/08 12:28:01	BASE	25.26	352	31.48	355	2.2	100	2.2	1	0	974.4	NA	0.0000		9999	590	0	0	0
2019/05/08 12:29:01	BASE	23.70	348	30.09	3	2.2	100	2.2	1	0	974.5	NA	0.0000		9999	690	0	0	0
2019/05/08 12:30:01	BASE	21.34	352	30.09	3	2.2	100	2.2	1	0	974.6	NA	0.0000		9999	720	0	0	0
2019/05/08 12:31:01	BASE	20.75	354	30.09	3	2.2	100	2.2	1	0	974.6	NA	0.0000		9999	1210	0	0	0
2019/05/08 12:32:01	BASE	21.68	350	30.09	3	2.2	100	2.2	1	0	974.6	NA	0.0000		9999	850	0	0	0
2019/05/08 12:33:01	BASE	21.45	352	30.09	3	2.2	100	2.2	1	0	974.6	NA	0.0000		9999	920	0	0	0
2019/05/08 12:34:01	BASE	20.98	351	28.76	353	2.1	100	2.1	1	0	974.6	NA	0.0000		9999	950	0	0	0
2019/05/08 12:35:01	BASE	20.77	354	28.76	353	2.1	100	2.1	1	0	974.7	NA	0.0000		9999	1080	0	0	0
2019/05/08 12:36:01	BASE	21.07	353	28.76	353	2.1	100	2.1	1	0	974.7	NA	0.0000		9999	1180	0	0	0
2019/05/08 12:37:01	BASE	21.44	351	28.29	3	2.2	100	2.2	1	0	974.6	NA	0.0000		9999	1080	0	0	0
2019/05/08 12:38:01	BASE	21.12	358	27.37	347	2.2	100	2.2	1	0	974.6	NA	0.0000		9999	1050	0	0	0
2019/05/08 12:39:00	BASE	20.86	0	26.13	354	2.1	100	2.1	2	0	974.6	NA	0.0000		9999	1050	0	0	0
2019/05/08 12:40:00	BASE	21.79	357	26.13	354	2.1	100	2.1	1	0	974.5	NA	0.0000		9999	1020	0	0	0
2019/05/08 12:41:01	BASE	23.65	355	28.24	352	2.1	100	2.1	1	0	974.5	NA	0.0000		9999	950	0	0	0
2019/05/08 12:42:01	BASE	24.02	351	28.24	352	2.1	100	2.1	1	0	974.7	NA	0.0000		9999	920	0	0	0
2019/05/08 12:43:01	BASE	21.70	351	28.24	352	2.1	100	2.1	1	0	974.8	NA	0.0000		9999	1250	0	0	0
2019/05/08 12:44:01	BASE	20.95	359	28.24	352	2.1	100	2.1	1	0	974.7	NA	0.0000		9999	1150	0	0	0
2019/05/08 12:45:01	BASE	21.07	359	28.24	352	2.1	100	2.1	1	0	974.7	NA	0.0000		9999	1280	0	0	0
2019/05/08 12:46:01	BASE	21.07	358	28.24	352	2.1	100	2.1	1	0	974.7	NA	0.0000		9999	1380	0	0	0
2019/05/08 12:47:00	BASE	22.15	3	28.24	352	2.1	100	2.1	1	0	974.7	NA	0.0000		9999	1280	0	0	0
2019/05/08 12:48:00	BASE	21.93	352	28.24	352	2.1	100	2.1	1	0	974.7	NA	0.0000		9999	980	0	0	0
2019/05/08 12:49:00	BASE	21.02	346	28.24	352	2.1	100	2.1	1	0	974.8	NA	0.0000		9999	1120	0	0	0
2019/05/08 12:50:00	BASE	20.44	353	28.24	352	2.1	100	2.1	1	0	974.8	NA	0.0000		9999	1020	0	0	0
2019/05/08 12:51:00	BASE	21.46	356	27.01	279	2.1	100	2.1	2	0	974.7	NA	0.0000		9999	950	0	0	0
2019/05/08 12:52:00	BASE	21.00	355	25.72	4	2.1	100	2.1	2	0	974.9	NA	0.0000		9999	790	0	0	0
2019/05/08 12:53:00	BASE	19.26	349	25.72	4	2.1	100	2.1	2	0	975.0	NA	0.0000		9999	750	0	0	0
2019/05/08 12:54:00	BASE	18.87	347	25.72	4	2.1	100	2.1	2	0	975.0	NA	0.0000		9999	750	0	0	0
2019/05/08 12:55:00	BASE	18.86	348	25.72	4	2.1	100	2.1	2	0	975.1	NA	0.0000		9999	950	0	0	0
2019/05/08 12:56:00	BASE	18.76	349	25.26	349	2.1	100	2.1	2	0	975.0	NA	0.0000		9999	950	0	0	0
2019/05/08 12:57:00	BASE	19.13	352	25.26	349	2.1	100	2.1	2	0	975.0	NA	0.0000		9999	950	0	0	0
2019/05/08 12:58:00	BASE	18.39	351	25.05	353	2.1	100	2.1	2	0	975.1	NA	0.0000		9999	790	0	0	0
2019/05/08 12:59:00	BASE	17.88	351	25.05	353	2.0	100	2.0	2	0	975.0	NA	0.0000		9999	980	0	0	0
2019/05/08 13:00:00	BASE	19.95	353	25.05	353	2.0	100	2.0	2	0	974.9	NA	0.0000		9999	750	0	0	0
2019/05/08 13:01:00	BASE	20.23	356	24.44	41	2.0	100	2.0	2	0	975.0	NA	0.0000		9999	820	0	0	0
2019/05/08 13:02:00	BASE	18.27	355	24.44	41	2.1	100	2.1	2	0	975.1	NA	0.0000		9999	890	0	0	0
2019/05/08 13:03:00	BASE	17.71	350	24.44	41	2.1	100	2.1	1	0	975.1	NA	0.0000		9999	750	0	0	0
2019/05/08 13:04:00	BASE	17.89	349	24.44	41	2.1	100	2.1	1	0	975.2	NA	0.0000		9999	590	0	0	0
2019/05/08 13:05:00	BASE	17.36	349	24.44	41	2.1	100	2.1	1	0	975.1	NA	0.0000		9999	590	0	0	0
2019/05/08 13:06:00	BASE	18.01	347	24.44	41	2.1	100	2.1	1	0	975.1	NA	0.0000		9999	590	0	0	0
2019/05/08 13:07:00	BASE	19.10	347	24.44	41	2.1	100	2.1	2	0	975.2	NA	0.0000		9999	890	0	0	0
2019/05/08 13:08:00	BASE	19.51	348	24.44	41	2.1	100	2.1	2	0	975.1	NA	0.0000		9999	660	0	0	0
2019/05/08 13:09:00	BASE	19.34	350	24.44	41	2.2	100	2.2	2	0	975.2	NA	0.0000		9999	850	0	0	0
2019/05/08 13:10:00	BASE	19.07	349	22.53	346	2.2	100	2.2	2	0	975.2	NA	0.0000		9999	520	0	0	0
2019/05/08 13:11:00	BASE	18.98	349	22.53	346	2.2	100	2.2	2	0	975.3	NA	0.0000		9999	430	0	0	0
2019/05/08 13:12:00	BASE	18.57	349	22.53	346	2.2	100	2.2	2	0	975.3	NA	0.0000		9999	430	0	0	0
2019/05/08 13:13:00	BASE	17.37	349	22.53	346	2.2	100	2.2	2	0	975.4	NA	0.0000		9999	360	0	0	0
2019/05/08 13:14:00	BASE	17.46	349	22.53	346	2.1	100	2.1	2	0	975.3	NA	0.0000		9999	460	0	0	0
2019/05/08 13:15:01	BASE	18.00	350	22.53	346	2.1	100	2.1	2	0	975.3	NA	0.0000		9999	430	0	0	0
2019/05/08 13:16:01	BASE	18.45	348	22.53	346	2.1	100	2.1	3	0	975.2	NA	0.0000		9999	460	0	0	0
2019/05/08 13:17:01	BASE	20.02	345	23.05	333	2.1	100	2.1	2	0	975.2	NA	0.0000		9999	430	0	0	0
2019/05/08 13:18:01	BASE	20.54	344	23.05	333	2.1	100	2.1	2	0	975.2	NA	0.0000		9999	460	0	0	0
2019/05/08 13:19:01	BASE	20.77	345	23.10	350	2.0	100	2.0	2	0	975.2	NA	0.0000		9999	390	0	0	0
2019/05/08 13:20:01	BASE	19.95	344	23.10	350	2.0	100	2.0	2	0	975.3	NA	0.0000		9999	460	0	0	0
2019/05/08 13:21:01	BASE	18.83	342	23.10	350	2.0	100	2.0	3	0	975.4	NA	0.0000		9999	560	0	0	0
2019/05/08 13:22:01	BASE	18.18	340	23.10	350	2.0	100	2.0	2	0	975.4	NA	0.0000		9999	460	0	0	0
2019/05/08 13:23:01	BASE	17.75	340	23.10	350	1.9	100	1.9	2	0	975.4	NA	0.0000		9999	460	0	0	0
2019/05/08 13:24:01	BASE	16.91	340	23.10	350	1.9	100	1.9	2	0	975.4	NA	0.0000		9999	490	0	0	0
2019/05/08 13:25:01	BASE	16.43	342	23.10	350	1.8	100	1.8	2	0	975.3	NA	0.0000		9999	490	0	0	0
2019/05/08 13:26:01	BASE	17.37	343	23.10	350	1.8	100	1.8	2	0	975.3	NA	0.0000		9999	460	0	0	0
2019/05/08 13:27:01	BASE	17.04	340	23.10	350	1.7	100	1.7	2	0	975.4	NA	0.0000		9999	490	0	0	0
2019/05/08 13:28:01	BASE	17.26	339	23.10	350	1.7	100	1.7	2	0	975.3	NA	0.0000		9999	460	0	0	0
2019/05/08 13:29:01	BASE	18.31	338	21.09	340	1.6	100	1.6	3	0	975.4	NA	0.0000		9999	490	0	0	0
2019/05/08 13:30:01	BASE	18.63	340	21.97	344	1.6	100	1.6	3	0	975.3	NA	0.0000		9999	490	0	0	0
2019/05/08 13:31:01	BASE	18.67	342	21.97	344	1.6	100	1.6	3	0	975.4	NA	0.0000		9999	490	0	0	0
2019/05/08 13:32:01	BASE	18.63	340	21.97	344	1.6	100	1.6	3	0	975.4	NA	0.0000		9999	430	0	0	0
2019/05/08 13:33:01	BASE	19.71	340	22.64	335	1.6	100	1.6	2	0	975.4	NA	0.0000		9999	430	0	0	0
2019/05/08 13:34:01	BASE	19.93	339	22.64	335	1.6	100	1.6	3	0	975.4	NA	0.0000		9999	430	0	0	0
2019/05/08 13:35:01	BASE	18.89	336	22.64	335	1.7	100	1.7	3	0	975.4	NA	0.0000		9999	460	0	0	0
2019/05/08 13:36:01	BASE	18.41	340	22.64	335	1.6	100	1.6	3	0	975.4	NA	0.0000		9999	430	0	0	0
2019/05/08 13:37:01	BASE	18.00	342	22.64	335	1.6	100	1.6	3	0	975.4	NA	0.0000		9999	430	0	0	0
2019/05/08 13:38:01	BASE	17.66	341	22.64	335	1.6	100	1.6	3	0	975.4	NA	0.0000		9999	460	0	0	0
2019/05/08 13:39:01	BASE	18.08	339	22.64	335	1.6	100	1.6	3	0	975.4	NA	0.0000		9999	520	0	0	0
2019/05/08 13:40:01	BASE	17.44	338	22.64	335	1.6	100	1.6	3	0	975.4	NA	0.0000		9999	460	0	0	0
2019/05/08 13:41:01	BASE	16.41	339	22.64	335	1.6	100	1.6	3	0	975.4	NA	0.0000		9999	460	0	0	0
2019/05/08 13:42:01	BASE	16.35	341	22.64	335	1.5	100	1.5	3	0	975.4	NA	0.0000		9000	460	0	0	0
2019/05/08 13:43:01	BASE	17.28	340	22.02	332	1.5	100	1.5	3	0	975.4	NA	0.0000		9000	520	0	0	0
2019/05/08 13:44:01	BASE	18.19	341	20.94	340	1.5	100	1.5	5	0	975.4	NA	0.0000		9999	490	0	0	0
2019/05/08 13:45:01	BASE	18.68	343	20.17	337	1.5	100	1.5	5	0	975.3	NA	0.0000		9999	460	0	0	0
2019/05/08 13:46:01	BASE	18.74	343	20.17	337	1.5	100	1.5	5	0	975.4	NA	0.0000		9999	460	0	0	0
2019/05/08 13:47:01	BASE	17.62	339	20.17	337	1.5	100	1.5	5	0	975.4	NA	0.0000		9999	460	0	0	0
2019/05/08 13:48:01	BASE	16.46	340	20.01	340	1.5	100	1.5	5	0	975.5	NA	0.0000		9999	490	0	0	0
2019/05/08 13:49:01	BASE	16.16	341	20.01	340	1.5	100	1.5	6	0	975.5	NA	0.0000		9999	520	0	0	0
2019/05/08 13:50:00	BASE	15.97	340	20.01	340	1.5	100	1.5	7	0	975.4	NA	0.0000		9999	520	0	0	0
2019/05/08 13:51:00	BASE	16.17	340	20.01	340	1.5	100	1.5	7	0	975.4	NA	0.0000		9999	690	0	0	0
2019/05/08 13:52:01	BASE	16.59	343	20.01	340	1.5	100	1.5	5	0	975.4	NA	0.0000		9999	560	0	0	0
2019/05/08 13:53:01	BASE	16.78	344	20.01	340	1.5	100	1.5	4	0	975.4	NA	0.0000		9999	620	0	0	0
2019/05/08 13:54:01	BASE	16.16	342	19.86	341	1.5	100	1.5	4	0	975.5	NA	0.0000		9999	660	0	0	0
2019/05/08 13:55:01	BASE	15.43	343	19.86	341	1.5	100	1.5	4	0	975.5	NA	0.0000		9999	520	0	0	0
2019/05/08 13:56:01	BASE	16.57	341	20.27	341	1.5	100	1.5	5	0	975.4	NA	0.0000		9999	620	0	0	0
2019/05/08 13:57:00	BASE	17.04	337	20.27	341	1.5	100	1.5	6	0	975.4	NA	0.0000		9999	620	0	0	0
2019/05/08 13:58:00	BASE	15.76	338	20.27	341	1.6	100	1.6	6	0	975.5	NA	0.0000		9999	660	0	0	0
2019/05/08 13:59:00	BASE	15.06	340	20.27	341	1.6	100	1.6	7	0	975.5	NA	0.0000		9999	660	0	0	0
2019/05/08 14:00:00	BASE	16.58	340	20.58	340	1.6	100	1.6	7	0	975.4	NA	0.0000		9999	690	0	0	0
2019/05/08 14:01:00	BASE	17.60	340	20.58	340	1.5	100	1.5	8	0	975.4	NA	0.0000		9999	750	0	0	0
2019/05/08 14:02:00	BASE	17.07	339	20.58	340	1.5	100	1.5	7	0	975.4	NA	0.0000		9999	690	0	0	0
2019/05/08 14:03:00	BASE	16.84	342	20.58	340	1.5	100	1.5	8	0	975.4	NA	0.0000		9999	790	0	0	0
2019/05/08 14:04:00	BASE	17.38	342	20.58	340	1.5	100	1.5	8	0	975.4	NA	0.0000		9999	720	0	0	0
2019/05/08 14:05:00	BASE	18.15	337	20.58	340	1.5	100	1.5	10	0	975.4	NA	0.0000		9999	660	0	0	0
2019/05/08 14:06:00	BASE	17.58	336	20.58	340	1.5	100	1.5	11	0	975.5	NA	0.0000		9999	720	0	0	0
2019/05/08 14:07:00	BASE	17.69	336	20.58	340	1.6	100	1.6	14	0	975.4	NA	0.0000		9999	690	0	0	0
2019/05/08 14:08:00	BASE	19.00	341	20.58	340	1.6	100	1.6	15	0	975.4	NA	0.0000		9999	850	0	0	0
2019/05/08 14:09:00	BASE	19.41	343	22.28	341	1.6	100	1.6	16	0	975.4	NA	0.0000		9999	1050	2260	0	0
2019/05/08 14:10:00	BASE	18.42	343	22.28	341	1.6	100	1.6	16	0	975.5	NA	0.0000		9999	1080	2300	0	0
2019/05/08 14:11:00	BASE	18.08	341	22.28	341	1.6	100	1.6	14	0	975.5	NA	0.0000		9999	750	0	0	0
2019/05/08 14:12:00	BASE	18.44	340	22.28	341	1.6	100	1.6	13	0	975.5	NA	0.0000		9999	790	0	0	0
2019/05/08 14:13:00	BASE	18.62	339	22.28	341	1.6	100	1.6	13	0	975.5	NA	0.0000		9999	1020	0	0	0
2019/05/08 14:14:00	BASE	19.50	339	22.28	341	1.6	100	1.6	13	0	975.5	NA	0.0000		9999	920	0	0	0
2019/05/08 14:15:01	BASE	19.39	336	22.28	341	1.6	100	1.6	17	0	975.6	NA	0.0000		9999	750	0	0	0
2019/05/08 14:16:01	BASE	17.67	336	22.28	341	1.6	100	1.6	19	0	975.6	NA	0.0000		9999	750	2530	0	0
2019/05/08 14:17:01	BASE	17.74	336	22.28	341	1.6	100	1.6	20	0	975.5	NA	0.0000		9999	790	0	0	0
2019/05/08 14:18:01	BASE	18.87	337	22.28	341	1.6	100	1.6	18	0	975.6	NA	0.0000		9999	890	0	0	0
2019/05/08 14:19:01	BASE	18.73	334	21.76	339	1.6	100	1.6	15	0	975.6	NA	0.0000		9999	890	0	0	0
2019/05/08 14:20:01	BASE	17.54	332	21.76	339	1.6	100	1.6	14	0	975.7	NA	0.0000		9999	790	0	0	0
2019/05/08 14:21:01	BASE	17.11	332	21.76	339	1.6	100	1.6	15	0	975.6	NA	0.0000		9999	790	0	0	0
2019/05/08 14:22:01	BASE	16.83	333	21.76	339	1.6	100	1.6	14	0	975.6	NA	0.0000		9999	850	0	0	0
2019/05/08 14:23:01	BASE	16.42	335	21.76	339	1.6	100	1.6	13	0	975.7	NA	0.0000		9999	850	0	0	0
2019/05/08 14:24:01	BASE	17.78	334	21.76	339	1.6	100	1.6	13	0	975.6	NA	0.0000		9999	790	0	0	0
2019/05/08 14:25:01	BASE	18.41	335	21.76	339	1.7	100	1.7	14	0	975.7	NA	0.0000		9999	820	2690	0	0
2019/05/08 14:26:01	BASE	17.74	336	21.76	339	1.7	100	1.7	14	0	975.7	NA	0.0000		9999	850	2590	0	0
2019/05/08 14:27:01	BASE	16.55	339	21.20	330	1.7	100	1.7	14	0	975.8	NA	0.0000		9999	1080	2590	0	0
2019/05/08 14:28:01	BASE	17.71	337	22.53	335	1.7	100	1.7	15	0	975.7	NA	0.0000		9999	850	0	0	0
2019/05/08 14:29:01	BASE	19.51	336	22.53	335	1.7	100	1.7	16	0	975.7	NA	0.0000		9999	1120	2620	0	0
2019/05/08 14:30:01	BASE	19.17	337	22.53	335	1.7	100	1.7	18	0	975.7	NA	0.0000		9999	1150	2590	0	0
2019/05/08 14:31:01	BASE	18.27	340	22.53	335	1.7	100	1.7	21	0	975.7	NA	0.0000		9999	980	2620	0	0
2019/05/08 14:32:01	BASE	16.82	341	22.53	335	1.7	100	1.7	21	0	975.8	NA	0.0000		9999	1050	0	0	0
2019/05/08 14:33:01	BASE	16.38	340	22.53	335	1.7	100	1.7	22	0	975.7	NA	0.0000		9999	1080	0	0	0
2019/05/08 14:34:01	BASE	16.45	341	22.53	335	1.7	100	1.7	23	0	975.7	NA	0.0000		9999	1050	0	0	0
2019/05/08 14:35:01	BASE	16.00	342	22.53	335	1.7	100	1.7	25	0	975.7	NA	0.0000		9999	980	2720	0	0
2019/05/08 14:36:01	BASE	15.58	345	22.53	335	1.6	100	1.6	27	0	975.7	NA	0.0000		9999	2620	0	0	0
2019/05/08 14:37:01	BASE	15.75	345	22.53	335	1.6	100	1.6	30	0	975.7	NA	0.0000		9999	850	0	0	0
2019/05/08 14:38:01	BASE	16.47	345	21.45	335	1.6	100	1.6	32	0	975.7	NA	0.0000		9999	850	0	0	0
2019/05/08 14:39:01	BASE	15.90	345	21.35	341	1.6	100	1.6	33	0	975.8	NA	0.0000		9999	1050	21360	0	0
2019/05/08 14:40:01	BASE	13.52	345	19.45	332	1.6	100	1.6	33	0	975.9	NA	0.0000		9999	1020	2760	0	0
2019/05/08 14:41:01	BASE	13.08	347	19.39	338	1.6	100	1.6	32	0	975.8	NA	0.0000		9999	1180	2690	0	0
2019/05/08 14:42:01	BASE	13.92	348	19.39	338	1.6	100	1.6	33	0	975.8	NA	0.0000		9999	2720	0	0	0
2019/05/08 14:43:01	BASE	14.65	349	19.86	336	1.6	100	1.6	33	0	975.7	NA	0.0000		9999	1310	2760	0	0
2019/05/08 14:44:01	BASE	15.68	345	19.86	336	1.6	100	1.6	33	0	975.8	NA	0.0000		9999	2690	0	0	0
2019/05/08 14:45:01	BASE	14.51	345	19.86	336	1.6	100	1.6	31	0	975.9	NA	0.0000		9999	2760	0	0	0
2019/05/08 14:46:01	BASE	12.62	346	19.86	336	1.6	100	1.6	31	0	976.0	NA	0.0000		9999	0	0	0	2950
2019/05/08 14:47:01	BASE	11.73	343	19.86	336	1.6	100	1.6	33	0	976.0	NA	0.0000		9999	2850	0	0	0
2019/05/08 14:48:01	BASE	13.04	341	19.86	336	1.5	100	1.5	32	0	976.0	NA	0.0000		9999	2820	0	0	0
2019/05/08 14:49:01	BASE	14.16	340	19.86	336	1.5	100	1.5	33	0	976.0	NA	0.0000		9999	2890	0	0	0
2019/05/08 14:50:01	BASE	13.95	341	19.86	336	1.5	100	1.5	31	0	976.0	NA	0.0000		9999	2920	0	0	0
2019/05/08 14:51:00	BASE	14.17	343	19.86	336	1.5	100	1.5	30	0	976.0	NA	0.0000		9999	2620	0	0	0
2019/05/08 14:52:01	BASE	13.92	345	19.86	336	1.5	100	1.5	28	0	976.0	NA	0.0000		9999	1410	2660	0	0
2019/05/08 14:53:01	BASE	14.81	342	17.75	334	1.5	100	1.5	25	0	976.0	NA	0.0000		9999	1410	0	0	0
2019/05/08 14:54:01	BASE	15.01	341	17.18	334	1.5	100	1.5	26	0	976.0	NA	0.0000		9999	3180	0	0	0
2019/05/08 14:55:00	BASE	14.23	344	17.18	334	1.5	100	1.5	28	0	975.9	NA	0.0000		9999	1310	0	0	0
2019/05/08 14:56:01	BASE	13.60	343	17.18	334	1.5	100	1.5	27	0	976.0	NA	0.0000		9999	0	0	0	2890
2019/05/08 14:57:00	BASE	12.04	344	17.18	334	1.5	100	1.5	28	0	976.0	NA	0.0000		9999	0	0	0	1640
2019/05/08 14:58:01	BASE	11.67	344	17.18	334	1.5	100	1.5	29	0	976.0	NA	0.0000		9999	0	0	0	1610
2019/05/08 14:59:00	BASE	12.16	345	17.18	334	1.4	100	1.4	30	0	976.0	NA	0.0000		9999	0	0	0	2260
2019/05/08 15:00:00	BASE	12.87	344	17.18	334	1.4	100	1.4	30	0	976.0	NA	0.0000		9999	0	0	0	2260
2019/05/08 15:01:01	BASE	13.80	342	17.18	334	1.4	100	1.4	28	0	976.0	NA	0.0000		9999	0	0	0	1770
2019/05/08 15:02:01	BASE	13.75	342	17.18	334	1.4	100	1.4	28	0	976.0	NA	0.0000		9999	0	0	0	1640
2019/05/08 15:03:01	BASE	14.07	341	16.57	337	1.4	100	1.4	29	0	976.0	NA	0.0000		9999	0	0	0	1670
2019/05/08 15:04:01	BASE	14.45	341	16.57	337	1.4	100	1.4	27	0	976.1	NA	0.0000		9999	1020	0	0	0
2019/05/08 15:05:01	BASE	13.77	343	16.57	337	1.4	100	1.4	26	0	976.0	NA	0.0000		9999	0	0	0	1440
2019/05/08 15:06:01	BASE	13.02	342	16.57	337	1.4	100	1.4	24	0	976.1	NA	0.0000		9999	0	0	0	1380
2019/05/08 15:07:01	BASE	13.05	340	16.57	337	1.4	100	1.4	25	0	976.1	NA	0.0000		9999	0	0	0	1440
2019/05/08 15:08:01	BASE	14.19	338	17.54	336	1.4	100	1.4	25	0	976.1	NA	0.0000		9999	1440	0	0	0
2019/05/08 15:09:01	BASE	14.80	338	17.54	336	1.4	100	1.4	29	0	976.1	NA	0.0000		9999	1250	0	0	0
2019/05/08 15:10:01	BASE	14.87	340	17.54	336	1.5	100	1.5	31	0	976.1	NA	0.0000		9999	1020	0	0	0
2019/05/08 15:11:01	BASE	14.69	341	17.54	336	1.5	100	1.5	29	0	976.2	NA	0.0000		9999	980	0	0	0
2019/05/08 15:12:01	BASE	14.45	338	17.54	336	1.5	100	1.5	23	0	976.2	NA	0.0000		9999	1020	0	0	0
2019/05/08 15:13:01	BASE	15.19	335	17.65	332	1.5	100	1.5	19	0	976.2	NA	0.0000		9999	920	0	0	0
2019/05/08 15:14:01	BASE	15.64	335	17.65	332	1.5	100	1.5	17	0	976.3	NA	0.0000		9999	950	0	0	0
2019/05/08 15:15:01	BASE	16.90	335	20.17	330	1.5	100	1.5	20	0	976.2	NA	0.0000		9999	920	0	0	0
2019/05/08 15:16:01	BASE	17.81	335	20.17	330	1.6	100	1.6	22	0	976.3	NA	0.0000		9999	950	0	0	0
2019/05/08 15:17:01	BASE	17.80	334	20.47	333	1.6	100	1.6	22	0	976.2	NA	0.0000		9999	950	0	0	0
2019/05/08 15:18:01	BASE	18.31	333	20.47	333	1.6	100	1.6	24	0	976.3	NA	0.0000		9999	1080	3250	0	0
2019/05/08 15:19:01	BASE	18.18	334	20.47	333	1.6	100	1.6	24	0	976.3	NA	0.0000		9999	3120	0	0	0
2019/05/08 15:20:01	BASE	17.61	333	20.47	333	1.6	100	1.6	23	0	976.3	NA	0.0000		9999	3080	0	0	0
2019/05/08 15:21:01	BASE	17.21	332	20.47	333	1.6	100	1.6	22	0	976.4	NA	0.0000		9999	2890	0	0	0
2019/05/08 15:22:01	BASE	18.07	331	21.56	331	1.6	100	1.6	22	0	976.3	NA	0.0000		9999	2890	0	0	0
2019/05/08 15:23:01	BASE	19.73	330	23.51	324	1.6	100	1.6	26	0	976.3	NA	0.0000		9999	1120	3120	0	0
2019/05/08 15:24:01	BASE	21.31	333	23.51	324	1.7	100	1.7	27	0	976.2	NA	0.0000		9999	1280	3080	0	0
2019/05/08 15:25:01	BASE	21.63	332	24.44	320	1.7	100	1.7	29	0	976.2	NA	0.0000		9999	1050	3120	0	0
2019/05/08 15:26:01	BASE	21.91	331	24.44	320	1.7	100	1.7	30	0	976.2	NA	0.0000		9999	950	3150	0	0
2019/05/08 15:27:01	BASE	21.81	333	24.44	320	1.8	100	1.8	32	0	976.2	NA	0.0000		9999	1050	3220	0	0
2019/05/08 15:28:01	BASE	21.06	332	24.44	320	1.8	100	1.8	34	0	976.2	NA	0.0000		9999	920	3350	0	0
2019/05/08 15:29:01	BASE	20.72	333	24.44	320	1.8	100	1.8	32	0	976.3	NA	0.0000		9999	1410	3350	0	0
2019/05/08 15:30:01	BASE	21.15	333	24.44	320	1.8	100	1.8	31	0	976.2	NA	0.0000		9999	1050	3380	0	0
2019/05/08 15:31:01	BASE	20.94	334	24.44	320	1.8	100	1.8	34	0	976.3	NA	0.0000		9999	950	0	0	0
2019/05/08 15:32:01	BASE	19.87	335	24.44	320	1.8	100	1.8	35	0	976.3	NA	0.0000		9999	890	0	0	0
2019/05/08 15:33:01	BASE	18.31	335	24.44	320	1.8	100	1.8	33	0	976.4	NA	0.0000		9999	1050	0	0	0
2019/05/08 15:34:01	BASE	17.47	335	24.44	320	1.8	100	1.8	33	0	976.4	NA	0.0000		9999	920	0	0	0
2019/05/08 15:35:01	BASE	17.71	337	24.18	332	1.8	100	1.8	32	0	976.3	NA	0.0000		9999	1280	2990	0	0
2019/05/08 15:36:01	BASE	17.63	336	24.08	330	1.7	100	1.7	33	0	976.3	NA	0.0000		9999	2690	0	0	0
2019/05/08 15:37:01	BASE	17.70	333	24.08	330	1.7	100	1.7	36	0	976.3	NA	0.0000		9999	850	2820	0	0
2019/05/08 15:38:01	BASE	17.06	334	24.08	330	1.7	100	1.7	35	0	976.3	NA	0.0000		9999	790	3150	0	0
2019/05/08 15:39:01	BASE	16.71	335	24.08	330	1.6	100	1.6	32	0	976.4	NA	0.0000		9999	790	0	0	0
2019/05/08 15:40:01	BASE	16.88	338	22.12	332	1.6	100	1.6	30	0	976.3	NA	0.0000		9999	820	0	0	0
2019/05/08 15:41:01	BASE	16.94	342	20.83	332	1.6	100	1.6	28	0	976.3	NA	0.0000		9999	790	0	0	0
2019/05/08 15:42:01	BASE	16.70	341	20.11	339	1.6	100	1.6	30	0	976.3	NA	0.0000		9999	950	0	0	0
2019/05/08 15:43:01	BASE	16.90	338	20.11	339	1.6	100	1.6	28	0	976.3	NA	0.0000		9999	920	0	0	0
2019/05/08 15:44:01	BASE	17.22	337	20.11	339	1.6	100	1.6	30	0	976.2	NA	0.0000		9999	920	2850	0	0
2019/05/08 15:45:01	BASE	17.59	336	19.70	335	1.6	100	1.6	38	0	976.2	NA	0.0000		9999	890	0	0	0
2019/05/08 15:46:01	BASE	17.37	338	19.70	335	1.6	100	1.6	44	0	976.2	NA	0.0000		9999	0	0	0	1970
2019/05/08 15:47:01	BASE	16.78	343	19.70	335	1.6	100	1.6	46	0	976.2	NA	0.0000		9999	1020	3480	0	0
2019/05/08 15:48:01	BASE	15.95	345	19.70	335	1.6	100	1.6	45	0	976.2	NA	0.0000		9999	920	0	0	0
2019/05/08 15:49:01	BASE	14.30	346	19.70	335	1.6	100	1.6	48	0	976.2	NA	0.0000		9999	920	0	0	0
2019/05/08 15:50:01	BASE	14.96	345	19.70	335	1.5	100	1.5	48	0	976.1	NA	0.0000		9999	890	0	0	0
2019/05/08 15:51:00	BASE	16.47	343	19.70	335	1.5	100	1.5	43	0	976.1	NA	0.0000		9999	950	0	0	0
2019/05/08 15:52:01	BASE	16.04	344	19.70	335	1.5	100	1.5	40	0	976.1	NA	0.0000		9999	980	0	0	0
2019/05/08 15:53:00	BASE	15.50	344	19.70	335	1.5	100	1.5	39	0	976.2	NA	0.0000		9999	1020	0	0	0
2019/05/08 15:54:01	BASE	15.46	350	19.70	335	1.5	100	1.5	39	0	976.1	NA	0.0000		9999	1080	0	0	0
2019/05/08 15:55:00	BASE	15.19	354	19.29	345	1.5	100	1.5	40	0	976.1	NA	0.0000		9999	980	0	0	0
2019/05/08 15:56:01	BASE	14.95	349	19.29	345	1.5	100	1.5	42	0	976.1	NA	0.0000		9999	950	1480	0	0
2019/05/08 15:57:00	BASE	15.09	346	19.29	345	1.6	100	1.6	43	0	976.1	NA	0.0000		9999	1410	0	0	0
2019/05/08 15:58:01	BASE	15.01	350	19.29	345	1.6	100	1.6	40	0	976.1	NA	0.0000		9999	1080	0	0	0
2019/05/08 15:59:00	BASE	15.51	352	19.29	345	1.6	100	1.6	35	0	976.1	NA	0.0000		9999	1250	22210	0	0
2019/05/08 16:00:01	BASE	16.53	349	19.39	346	1.6	100	1.6	26	0	976.1	NA	0.0000		9999	1050	0	0	0
2019/05/08 16:01:00	BASE	16.26	347	19.39	346	1.6	100	1.6	23	0	976.1	NA	0.0000		9999	1020	0	0	0
2019/05/08 16:02:00	BASE	15.35	347	19.39	346	1.6	100	1.6	21	0	976.1	NA	0.0000		9999	1050	0	0	0
2019/05/08 16:03:00	BASE	14.42	351	19.39	346	1.7	100	1.7	22	0	976.2	NA	0.0000		9999	950	0	0	0
2019/05/08 16:04:01	BASE	15.04	354	19.39	346	1.7	100	1.7	21	0	976.0	NA	0.0000		9999	1080	0	0	0
2019/05/08 16:05:00	BASE	16.41	350	19.39	346	1.7	100	1.7	21	0	976.0	NA	0.0000		9999	980	0	0	0
2019/05/08 16:06:01	BASE	16.00	351	19.39	346	1.7	100	1.7	24	0	976.1	NA	0.0000		9999	890	0	0	0
2019/05/08 16:07:00	BASE	15.39	353	19.39	346	1.8	100	1.8	28	0	976.1	NA	0.0000		9999	920	0	0	0
2019/05/08 16:08:01	BASE	16.30	353	19.39	346	1.8	100	1.8	29	0	976.0	NA	0.0000		9999	920	0	0	0
2019/05/08 16:09:00	BASE	16.99	354	19.39	346	1.8	100	1.8	29	0	976.0	NA	0.0000		9999	1020	0	0	0
2019/05/08 16:10:01	BASE	17.01	352	19.55	354	1.8	100	1.8	27	0	976.0	NA	0.0000		9999	920	0	0	0
2019/05/08 16:11:01	BASE	17.01	348	19.55	354	1.8	100	1.8	26	0	976.0	NA	0.0000		9999	1050	0	0	0
2019/05/08 16:12:01	BASE	16.93	342	19.55	354	1.9	100	1.9	30	0	976.0	NA	0.0000		9999	920	0	0	0
2019/05/08 16:13:01	BASE	16.99	346	19.55	354	1.9	100	1.9	30	0	976.0	NA	0.0000		9999	890	0	0	0
2019/05/08 16:14:01	BASE	16.44	355	19.55	354	1.9	100	1.9	30	0	976.0	NA	0.0000		9999	890	0	0	0
2019/05/08 16:15:01	BASE	16.13	354	19.55	354	1.9	100	1.9	29	0	976.0	NA	0.0000		9999	1250	2170	0	0
2019/05/08 16:16:01	BASE	15.95	347	19.55	354	1.9	100	1.9	31	0	976.0	NA	0.0000		9999	980	0	0	0
2019/05/08 16:17:01	BASE	16.47	346	20.01	352	1.9	100	1.9	34	0	976.0	NA	0.0000		9999	1080	0	0	0
2019/05/08 16:18:01	BASE	17.20	348	20.11	354	1.9	100	1.9	34	0	976.0	NA	0.0000		9999	1150	2760	0	0
2019/05/08 16:19:01	BASE	16.82	349	20.11	354	1.9	100	1.9	29	0	976.0	NA	0.0000		9999	850	0	0	0
2019/05/08 16:20:01	BASE	16.53	352	20.11	354	1.9	100	1.9	24	0	976.0	NA	0.0000		9999	850	1640	0	0
2019/05/08 16:21:01	BASE	17.09	351	20.11	354	1.9	100	1.9	28	0	976.0	NA	0.0000		9999	850	0	0	0
2019/05/08 16:22:01	BASE	17.54	349	20.11	354	1.9	100	1.9	28	0	976.0	NA	0.0000		9999	920	0	0	0
2019/05/08 16:23:01	BASE	17.66	348	21.35	352	1.9	100	1.9	25	0	975.9	NA	0.0000		9999	890	0	0	0
2019/05/08 16:24:01	BASE	17.23	348	21.35	352	1.9	100	1.9	27	0	976.0	NA	0.0000		9999	750	0	0	0
2019/05/08 16:25:01	BASE	17.36	346	21.61	346	1.8	100	1.8	29	0	976.0	NA	0.0000		9999	750	0	0	0
2019/05/08 16:26:01	BASE	19.64	346	22.94	340	1.8	100	1.8	28	0	975.9	NA	0.0000		9999	820	0	0	0
2019/05/08 16:27:01	BASE	19.94	349	22.94	340	1.8	100	1.8	29	0	976.0	NA	0.0000		9999	850	0	0	0
2019/05/08 16:28:01	BASE	19.39	350	22.94	340	1.7	100	1.7	28	0	975.9	NA	0.0000		9999	720	1250	0	0
2019/05/08 16:29:01	BASE	19.31	349	22.94	340	1.7	100	1.7	30	0	976.0	NA	0.0000		9999	720	0	0	0
2019/05/08 16:30:01	BASE	18.37	346	22.94	340	1.7	100	1.7	33	0	975.9	NA	0.0000		9999	690	0	0	0
2019/05/08 16:31:01	BASE	18.28	346	22.94	340	1.7	100	1.7	32	0	975.9	NA	0.0000		9999	690	0	0	0
2019/05/08 16:32:01	BASE	18.61	350	22.94	340	1.7	100	1.7	33	0	975.9	NA	0.0000		9999	690	0	0	0
2019/05/08 16:33:01	BASE	18.90	351	22.94	340	1.7	100	1.7	37	0	975.8	NA	0.0000		9999	790	0	0	0
2019/05/08 16:34:01	BASE	19.28	350	22.94	340	1.7	100	1.7	41	0	975.8	NA	0.0000		9999	790	0	0	0
2019/05/08 16:35:01	BASE	18.92	349	22.94	340	1.7	100	1.7	43	0	975.9	NA	0.0000		9999	660	0	0	0
2019/05/08 16:36:01	BASE	18.15	345	22.53	360	1.7	100	1.7	44	0	975.9	NA	0.0000		9999	660	0	0	0
2019/05/08 16:37:01	BASE	18.48	340	22.53	360	1.7	100	1.7	40	0	975.9	NA	0.0000		9999	690	0	0	0
2019/05/08 16:38:01	BASE	18.18	341	21.81	2	1.7	100	1.7	41	0	975.9	NA	0.0000		9999	750	0	0	0
2019/05/08 16:39:01	BASE	17.68	341	21.81	2	1.6	100	1.6	43	0	975.9	NA	0.0000		9999	820	0	0	0
2019/05/08 16:40:01	BASE	18.01	340	21.81	2	1.6	100	1.6	44	0	975.9	NA	0.0000		9999	850	0	0	0
2019/05/08 16:41:01	BASE	18.11	341	21.50	348	1.6	100	1.6	45	0	975.9	NA	0.0000		9999	920	0	0	0
2019/05/08 16:42:01	BASE	18.65	343	22.17	345	1.6	100	1.6	46	0	975.8	NA	0.0000		9999	920	0	0	0
2019/05/08 16:43:01	BASE	18.57	343	22.17	345	1.6	100	1.6	47	0	975.8	NA	0.0000		9999	4300	0	0	0
2019/05/08 16:44:01	BASE	17.57	341	22.17	345	1.6	100	1.6	46	0	975.8	NA	0.0000		9999	820	0	0	0
2019/05/08 16:45:01	BASE	17.90	340	22.17	345	1.6	100	1.6	44	0	975.8	NA	0.0000		9999	820	0	0	0
2019/05/08 16:46:01	BASE	18.54	339	22.17	345	1.6	100	1.6	41	0	975.8	NA	0.0000		9999	1280	3080	0	0
2019/05/08 16:47:01	BASE	18.70	341	22.17	345	1.6	100	1.6	41	0	975.7	NA	0.0000		9999	890	4430	0	0
2019/05/08 16:48:01	BASE	18.83	342	22.17	345	1.5	100	1.5	40	0	975.6	NA	0.0000		9999	890	0	0	0
2019/05/08 16:49:01	BASE	19.61	344	23.05	348	1.6	100	1.6	37	0	975.5	NA	0.0000		9999	1180	4170	0	0
2019/05/08 16:50:01	BASE	19.58	345	23.05	348	1.6	100	1.6	34	0	975.6	NA	0.0000		9999	4300	0	0	0
2019/05/08 16:51:01	BASE	19.81	343	23.41	341	1.6	100	1.6	32	0	975.5	NA	0.0000		9999	0	0	0	2460
2019/05/08 16:52:01	BASE	19.98	345	23.41	341	1.6	100	1.6	31	0	975.5	NA	0.0000		9999	2460	0	0	0
2019/05/08 16:53:01	BASE	18.71	346	23.41	341	1.6	100	1.6	29	0	975.5	NA	0.0000		9999	2790	0	0	0
2019/05/08 16:54:01	BASE	19.33	346	23.41	341	1.6	100	1.6	27	0	975.5	NA	0.0000		9999	2760	0	0	0
2019/05/08 16:55:01	BASE	20.95	346	23.82	343	1.6	100	1.6	23	0	975.4	NA	0.0000		9999	2920	4720	0	0
2019/05/08 16:56:01	BASE	20.02	346	23.82	343	1.6	100	1.6	24	0	975.5	NA	0.0000		9999	950	2690	0	0
2019/05/08 16:57:00	BASE	18.58	347	23.82	343	1.6	100	1.6	28	0	975.5	NA	0.0000		9999	1250	3540	0	0
2019/05/08 16:58:01	BASE	19.81	347	23.82	343	1.6	100	1.6	33	0	975.4	NA	0.0000		9999	4040	0	0	0
2019/05/08 16:59:01	BASE	20.62	346	23.82	343	1.6	100	1.6	36	0	975.4	NA	0.0000		9999	3580	4130	0	0
2019/05/08 17:00:01	BASE	21.17	345	24.74	345	1.6	100	1.6	37	0	975.3	NA	0.0000		9999	3810	0	0	0
2019/05/08 17:01:00	BASE	21.94	346	24.74	345	1.6	100	1.6	34	0	975.2	NA	0.0000		9999	0	0	0	1510
2019/05/08 17:02:00	BASE	20.39	348	24.74	345	1.6	100	1.6	31	0	975.3	NA	0.0000		9999	4690	5580	0	0
2019/05/08 17:03:00	BASE	18.71	351	24.74	345	1.6	100	1.6	30	0	975.3	NA	0.0000		9999	12430	0	0	0
2019/05/08 17:04:01	BASE	18.28	348	24.74	345	1.6	100	1.6	28	0	975.3	NA	0.0000		9999	3580	0	0	0
2019/05/08 17:05:01	BASE	17.93	345	24.74	345	1.6	100	1.6	25	0	975.3	NA	0.0000		9999	4300	0	0	0
2019/05/08 17:06:00	BASE	17.01	350	24.74	345	1.6	100	1.6	22	0	975.2	NA	0.0000		9999	0	0	0	1440
2019/05/08 17:07:00	BASE	17.38	352	24.74	345	1.6	100	1.6	21	0	975.1	NA	0.0000		9999	3480	0	0	0
2019/05/08 17:08:00	BASE	18.90	349	24.74	345	1.6	100	1.6	20	0	975.2	NA	0.0000		9999	3080	0	0	0
2019/05/08 17:09:00	BASE	18.88	351	24.74	345	1.7	100	1.7	20	0	975.2	NA	0.0000		9999	4890	0	0	0
2019/05/08 17:10:00	BASE	19.21	352	23.15	341	1.7	100	1.7	19	0	975.1	NA	0.0000		9999	4630	0	0	0
2019/05/08 17:11:00	BASE	19.32	347	21.71	350	1.7	100	1.7	19	0	975.2	NA	0.0000		9999	3740	4430	0	0
2019/05/08 17:12:01	BASE	18.29	349	21.71	350	1.8	100	1.8	19	0	975.2	NA	0.0000		9999	2820	4400	0	0
2019/05/08 17:13:00	BASE	17.93	351	21.71	350	1.8	100	1.8	18	0	975.2	NA	0.0000		9999	2890	0	0	0
2019/05/08 17:14:01	BASE	16.76	352	21.71	350	1.8	100	1.8	18	0	975.2	NA	0.0000		9999	2950	0	0	0
2019/05/08 17:15:01	BASE	15.87	356	21.71	350	1.8	100	1.8	20	0	975.3	NA	0.0000		9999	3280	3840	0	0
2019/05/08 17:16:01	BASE	15.89	357	21.71	350	1.8	100	1.8	21	0	975.3	NA	0.0000		9999	3940	5050	0	0
2019/05/08 17:17:00	BASE	17.08	352	22.02	341	1.8	100	1.8	23	0	975.2	NA	0.0000		9999	3020	3740	0	0
2019/05/08 17:18:01	BASE	20.03	348	23.92	345	1.8	100	1.8	25	0	975.1	NA	0.0000		9999	4530	5180	0	0
2019/05/08 17:19:01	BASE	19.30	353	23.92	345	1.8	100	1.8	24	0	975.1	NA	0.0000		9999	4890	0	0	0
2019/05/08 17:20:01	BASE	18.55	358	23.92	345	1.8	100	1.8	23	0	975.1	NA	0.0000		9999	4630	0	0	0
2019/05/08 17:21:01	BASE	18.89	353	23.92	345	1.8	100	1.8	23	0	975.1	NA	0.0000		9999	4100	4820	0	0
2019/05/08 17:22:01	BASE	17.23	352	23.92	345	1.8	100	1.8	21	0	975.2	NA	0.0000		9999	4430	0	0	0
2019/05/08 17:23:01	BASE	17.98	358	23.92	345	1.9	100	1.9	19	0	975.1	NA	0.0000		9999	4300	0	0	0
2019/05/08 17:24:01	BASE	17.94	357	23.92	345	1.9	100	1.9	18	0	975.2	NA	0.0000		9999	3380	0	0	0
2019/05/08 17:25:01	BASE	16.96	352	23.92	345	1.9	100	1.9	19	0	975.2	NA	0.0000		9999	3310	4100	0	0
2019/05/08 17:26:01	BASE	18.44	348	23.92	345	1.9	100	1.9	21	0	975.1	NA	0.0000		9999	3540	0	0	0
2019/05/08 17:27:01	BASE	20.83	350	24.28	349	1.9	100	1.9	22	0	975.0	NA	0.0000		9999	3900	0	0	0
2019/05/08 17:28:01	BASE	22.17	354	25.98	353	2.0	100	2.0	23	0	975.0	NA	0.0000		9999	4230	0	0	0
2019/05/08 17:29:01	BASE	22.16	352	25.98	353	2.0	100	2.0	24	0	975.0	NA	0.0000		9999	4130	0	0	0
2019/05/08 17:30:01	BASE	21.44	347	25.98	353	2.0	100	2.0	24	0	975.0	NA	0.0000		9999	4660	0	0	0
2019/05/08 17:31:18	BASE	21.45	347	25.98	353	2.0	100	2.0	23	0	974.9	NA	0.0000		9999	4430	0	0	0
2019/05/08 17:32:01	BASE	20.74	350	25.98	353	2.0	100	2.0	20	0	975.0	NA	0.0000		9999	3580	4200	0	0
2019/05/08 17:33:01	BASE	19.65	349	25.98	353	2.0	100	2.0	21	0	975.1	NA	0.0000		9999	3810	4400	0	0
2019/05/08 17:34:01	BASE	19.94	348	25.98	353	2.0	100	2.0	22	1	975.0	NA	0.0000		9999	4170	0	0	0
2019/05/08 17:35:01	BASE	20.77	347	25.98	353	2.1	100	2.1	22	0	975.0	NA	0.0000		9999	4560	0	0	0
2019/05/08 17:36:01	BASE	20.90	351	25.98	353	2.1	100	2.1	22	0	975.0	NA	0.0000		9999	4360	0	0	0
2019/05/08 17:37:01	BASE	20.95	353	25.98	353	2.1	100	2.1	21	0	975.0	NA	0.0000		9999	4170	0	0	0
2019/05/08 17:38:01	BASE	21.04	354	27.73	355	2.1	100	2.1	21	0	974.9	NA	0.0000		9999	4130	0	0	0
2019/05/08 17:39:01	BASE	20.91	352	27.73	355	2.1	100	2.1	21	0	974.9	NA	0.0000		9999	4360	0	0	0
2019/05/08 17:40:01	BASE	19.67	352	27.73	355	2.1	100	2.1	21	0	975.0	NA	0.0000		9999	4760	0	0	0
2019/05/08 17:41:01	BASE	18.99	351	27.73	355	2.1	100	2.1	20	0	974.9	NA	0.0000		9999	4330	0	0	0
2019/05/08 17:42:01	BASE	19.41	352	27.73	355	2.1	100	2.1	19	0	974.9	NA	0.0000		9999	4130	0	0	0
2019/05/08 17:43:01	BASE	18.50	355	27.73	355	2.1	100	2.1	20	0	975.0	NA	0.0000		9999	4000	0	0	0
2019/05/08 17:44:01	BASE	17.65	1	27.73	355	2.1	100	2.1	20	0	975.0	NA	0.0000		9999	4360	0	0	0
2019/05/08 17:45:01	BASE	19.19	3	27.73	355	2.1	100	2.1	21	0	975.0	NA	0.0000		9999	4230	0	0	0
2019/05/08 17:46:01	BASE	20.12	1	27.73	355	2.2	100	2.2	24	0	975.0	NA	0.0000		9999	3770	0	0	0
2019/05/08 17:47:01	BASE	19.78	357	27.73	355	2.2	100	2.2	27	0	974.9	NA	0.0000		9999	4230	0	0	0
2019/05/08 17:48:01	BASE	19.30	355	23.36	354	2.2	100	2.2	29	0	974.9	NA	0.0000		9999	4330	0	0	0
2019/05/08 17:49:01	BASE	18.93	357	23.36	354	2.2	100	2.2	32	0	974.9	NA	0.0000		9999	4100	0	0	0
2019/05/08 17:50:01	BASE	18.71	357	23.36	354	2.2	100	2.2	32	0	974.9	NA	0.0000		9999	3770	0	0	0
2019/05/08 17:51:01	BASE	17.67	356	23.36	354	2.2	100	2.2	30	0	975.0	NA	0.0000		9999	4100	0	0	0
2019/05/08 17:52:01	BASE	17.85	357	23.36	354	2.2	100	2.2	28	0	974.9	NA	0.0000		9999	3900	0	0	0
2019/05/08 17:53:00	BASE	18.48	356	23.36	354	2.2	100	2.2	25	0	974.9	NA	0.0000		9999	3940	0	0	0
2019/05/08 17:54:01	BASE	17.60	355	23.36	354	2.2	100	2.2	24	0	974.9	NA	0.0000		9999	4170	0	0	0
2019/05/08 17:55:01	BASE	17.55	354	23.36	354	2.3	100	2.3	27	0	974.9	NA	0.0000		9999	2920	0	0	0
2019/05/08 17:56:00	BASE	19.03	352	22.53	2	2.3	100	2.3	31	0	974.8	NA	0.0000		9999	3670	0	0	0
2019/05/08 17:57:00	BASE	19.98	358	22.53	2	2.3	100	2.3	31	0	974.8	NA	0.0000		9999	3540	0	0	0
2019/05/08 17:58:01	BASE	18.62	355	22.53	2	2.3	100	2.3	28	0	974.9	NA	0.0000		9999	3050	3740	0	0
2019/05/08 17:59:01	BASE	18.92	355	23.51	3	2.3	100	2.3	24	0	974.8	NA	0.0000		9999	3080	3740	0	0
2019/05/08 18:00:00	BASE	20.49	0	23.51	3	2.3	100	2.3	20	0	974.8	NA	0.0000		9999	3670	0	0	0
2019/05/08 18:01:00	BASE	20.21	2	23.51	3	2.3	100	2.3	16	0	974.8	NA	0.0000		9999	3580	0	0	0
2019/05/08 18:02:01	BASE	20.51	1	24.18	360	2.3	100	2.3	14	0	974.7	NA	0.0000		9999	3220	3900	0	0
2019/05/08 18:03:00	BASE	19.82	357	24.18	360	2.2	100	2.2	12	0	974.8	NA	0.0000		9999	3610	4490	0	0
2019/05/08 18:04:01	BASE	19.28	359	24.18	360	2.2	100	2.2	12	0	974.8	NA	0.0000		9999	3740	0	0	0
2019/05/08 18:05:00	BASE	19.00	356	24.18	360	2.2	100	2.2	12	0	974.8	NA	0.0000		9999	3810	0	0	0
2019/05/08 18:06:01	BASE	19.02	353	24.18	360	2.1	100	2.1	12	0	974.7	NA	0.0000		9999	3150	3870	0	0
2019/05/08 18:07:00	BASE	19.67	358	24.18	360	2.1	100	2.1	12	0	974.7	NA	0.0000		9999	3510	4230	0	0
2019/05/08 18:08:00	BASE	19.05	349	24.18	360	2.1	100	2.1	13	0	974.7	NA	0.0000		9999	3840	0	0	0
2019/05/08 18:09:00	BASE	17.77	348	24.18	360	2.1	100	2.1	14	0	974.7	NA	0.0000		9999	4130	0	0	0
2019/05/08 18:10:00	BASE	17.08	352	24.18	360	2.1	100	2.1	14	0	974.8	NA	0.0000		9999	4300	0	0	0
2019/05/08 18:11:00	BASE	19.02	351	24.18	360	2.0	100	2.0	12	0	974.7	NA	0.0000		9999	4100	0	0	0
2019/05/08 18:12:01	BASE	21.52	355	25.31	352	2.0	100	2.0	11	0	974.6	NA	0.0000		9999	3840	0	0	0
2019/05/08 18:13:00	BASE	22.87	357	27.01	360	2.0	100	2.0	10	0	974.6	NA	0.0000		9999	3740	0	0	0
2019/05/08 18:14:01	BASE	22.34	1	27.01	360	2.0	100	2.0	10	0	974.6	NA	0.0000		9999	3640	0	0	0
2019/05/08 18:15:00	BASE	20.26	357	27.01	360	2.0	100	2.0	9	0	974.6	NA	0.0000		9999	3580	0	0	0
2019/05/08 18:16:01	BASE	21.12	358	27.01	360	2.0	100	2.0	9	0	974.4	NA	0.0000		9999	3350	0	0	0
2019/05/08 18:17:00	BASE	22.02	0	27.01	360	2.0	100	2.0	9	0	974.5	NA	0.0000		9999	3480	0	0	0
2019/05/08 18:18:01	BASE	21.28	353	27.01	360	2.0	100	2.0	9	0	974.6	NA	0.0000		9999	2850	0	0	0
2019/05/08 18:19:00	BASE	20.93	355	27.01	360	2.0	100	2.0	8	0	974.6	NA	0.0000		9999	1120	0	0	0
2019/05/08 18:20:00	BASE	21.14	5	27.01	360	2.0	100	2.0	9	0	974.5	NA	0.0000		9999	1280	0	0	0
2019/05/08 18:21:00	BASE	21.84	1	27.01	360	2.0	100	2.0	9	0	974.5	NA	0.0000		9999	2850	0	0	0
2019/05/08 18:22:01	BASE	22.95	355	27.37	1	2.1	100	2.1	10	0	974.4	NA	0.0000		9999	2760	3670	0	0
2019/05/08 18:23:00	BASE	23.25	356	27.37	1	2.1	100	2.1	11	0	974.5	NA	0.0000		9999	3840	0	0	0
2019/05/08 18:24:01	BASE	21.05	356	27.37	1	2.1	100	2.1	11	0	974.6	NA	0.0000		9999	4100	0	0	0
2019/05/08 18:25:00	BASE	19.93	358	27.37	1	2.1	100	2.1	12	0	974.6	NA	0.0000		9999	4040	0	0	0
2019/05/08 18:26:01	BASE	19.83	357	27.37	1	2.1	100	2.1	12	0	974.7	NA	0.0000		9999	3580	0	0	0
2019/05/08 18:27:00	BASE	19.78	356	27.37	1	2.1	100	2.1	11	0	974.6	NA	0.0000		9999	3770	0	0	0
2019/05/08 18:28:00	BASE	19.74	355	27.37	1	2.0	100	2.0	9	0	974.7	NA	0.0000		9999	3710	0	0	0
2019/05/08 18:29:00	BASE	20.89	352	27.37	1	2.0	100	2.0	8	0	974.6	NA	0.0000		9999	3580	0	0	0
2019/05/08 18:30:00	BASE	21.45	354	27.37	1	2.0	100	2.0	7	0	974.6	NA	0.0000		9999	3250	0	0	0
2019/05/08 18:31:00	BASE	20.63	353	27.37	1	2.0	100	2.0	7	0	974.6	NA	0.0000		9999	3380	0	0	0
2019/05/08 18:32:00	BASE	19.98	354	25.57	355	2.0	100	2.0	7	0	974.6	NA	0.0000		9999	1800	3380	0	0
2019/05/08 18:33:00	BASE	21.40	356	27.57	360	2.0	100	2.0	7	0	974.4	NA	0.0000		9999	3480	0	0	0
2019/05/08 18:34:01	BASE	24.81	1	27.83	1	2.1	100	2.1	7	0	974.3	NA	0.0000		9999	3580	0	0	0
2019/05/08 18:35:00	BASE	24.12	360	27.83	1	2.1	100	2.1	7	0	974.4	NA	0.0000		9999	3510	0	0	0
2019/05/08 18:36:00	BASE	22.62	353	27.83	1	2.1	100	2.1	7	0	974.4	NA	0.0000		9999	3410	0	0	0
2019/05/08 18:37:00	BASE	22.91	357	27.83	1	2.1	100	2.1	7	0	974.4	NA	0.0000		9999	3450	0	0	0
2019/05/08 18:38:01	BASE	23.47	2	29.01	1	2.1	100	2.1	7	0	974.4	NA	0.0000		9999	3410	0	0	0
2019/05/08 18:39:00	BASE	23.44	5	29.01	1	2.0	100	2.0	7	0	974.4	NA	0.0000		9999	3410	0	0	0
2019/05/08 18:40:00	BASE	23.98	6	29.01	1	2.0	100	2.0	7	1	974.3	NA	0.0000		9999	3450	0	0	0
2019/05/08 18:41:00	BASE	25.05	0	29.01	1	2.0	100	2.0	7	0	974.2	NA	0.0000		9999	3410	0	0	0
2019/05/08 18:42:00	BASE	25.70	358	30.61	360	2.0	100	2.0	7	0	974.1	NA	0.0000		9999	3510	0	0	0
2019/05/08 18:43:01	BASE	26.28	359	30.61	360	2.0	100	2.0	7	1	974.2	NA	0.0000		9999	1800	0	0	0
2019/05/08 18:44:00	BASE	25.42	1	30.61	360	2.0	100	2.0	7	0	974.2	NA	0.0000		9999	1210	0	0	0
2019/05/08 18:45:00	BASE	23.98	1	30.61	360	2.0	100	2.0	7	0	974.3	NA	0.0000		9999	620	0	0	0
2019/05/08 18:46:00	BASE	23.17	358	30.61	360	2.0	100	2.0	6	0	974.2	NA	0.0000		9999	1150	0	0	0
2019/05/08 18:47:00	BASE	22.46	0	30.61	360	2.1	100	2.1	6	0	974.3	NA	0.0000		9999	3080	0	0	0
2019/05/08 18:48:00	BASE	22.31	3	30.61	360	2.1	100	2.1	5	0	974.2	NA	0.0000		9999	3310	0	0	0
2019/05/08 18:49:00	BASE	22.40	1	30.61	360	2.1	100	2.1	5	0	974.2	NA	0.0000		9999	3220	0	0	0
2019/05/08 18:50:00	BASE	21.73	1	30.61	360	2.2	100	2.2	5	0	974.2	NA	0.0000		9999	3380	0	0	0
2019/05/08 18:51:00	BASE	23.08	3	30.61	360	2.2	100	2.2	5	0	974.1	NA	0.0000		9999	3410	0	0	0
2019/05/08 18:52:00	BASE	24.10	4	28.76	2	2.2	100	2.2	5	0	974.1	NA	0.0000		9999	3510	0	0	0
2019/05/08 18:53:00	BASE	23.65	4	27.11	8	2.1	100	2.1	4	0	974.1	NA	0.0000		9999	3380	0	0	0
2019/05/08 18:54:00	BASE	24.38	4	27.06	360	2.1	100	2.1	4	0	974.0	NA	0.0000		9999	3280	0	0	0
2019/05/08 18:55:00	BASE	24.99	4	27.06	360	2.1	100	2.1	4	0	974.0	NA	0.0000		9999	3350	0	0	0
2019/05/08 18:56:00	BASE	25.83	6	28.24	3	2.1	100	2.1	4	0	973.9	NA	0.0000		9999	3150	0	0	0
2019/05/08 18:57:00	BASE	26.07	7	28.24	3	2.1	100	2.1	4	1	973.9	NA	0.0000		9999	3250	0	0	0
2019/05/08 18:58:00	BASE	25.92	6	28.81	360	2.1	100	2.1	4	0	973.9	NA	0.0000		9999	3220	0	0	0
2019/05/08 18:59:00	BASE	25.80	5	28.81	360	2.1	100	2.1	4	0	973.9	NA	0.0000		9999	3310	0	0	0
2019/05/08 19:00:01	BASE	24.55	3	28.81	360	2.1	100	2.1	3	0	974.0	NA	0.0000		9999	3280	0	0	0
2019/05/08 19:01:00	BASE	24.03	360	29.99	8	2.1	100	2.1	4	0	973.9	NA	0.0000		9999	3350	0	0	0
2019/05/08 19:02:00	BASE	24.92	2	29.99	8	2.1	100	2.1	4	0	973.8	NA	0.0000		9999	3380	0	0	0
2019/05/08 19:03:00	BASE	23.79	3	29.99	8	2.1	100	2.1	4	0	973.9	NA	0.0000		9999	1210	0	0	0
2019/05/08 19:04:00	BASE	24.37	4	29.99	8	2.1	100	2.1	4	0	973.7	NA	0.0000		9999	0	0	0	3870
2019/05/08 19:05:00	BASE	26.85	5	31.69	10	2.1	100	2.1	5	0	973.6	NA	0.0000		9999	0	0	0	3770
2019/05/08 19:06:00	BASE	26.71	3	31.69	10	2.1	100	2.1	5	0	973.6	NA	0.0000		9999	0	0	0	3740
2019/05/08 19:07:00	BASE	25.80	4	31.69	10	2.1	100	2.1	5	0	973.6	NA	0.0000		9999	0	0	0	4330
2019/05/08 19:08:00	BASE	25.86	7	31.69	10	2.1	100	2.1	5	0	973.5	NA	0.0000		9999	3510	0	0	0
2019/05/08 19:09:00	BASE	28.09	10	31.90	9	2.1	100	2.1	4	0	973.4	NA	0.0000		9999	3510	0	0	0
2019/05/08 19:10:00	BASE	28.95	9	31.90	9	2.0	100	2.0	3	0	973.5	NA	0.0000		9999	3050	0	0	0
2019/05/08 19:11:00	BASE	28.94	7	32.67	7	2.0	100	2.0	3	0	973.5	NA	0.0000		9999	3050	0	0	0
2019/05/08 19:12:00	BASE	29.30	7	32.77	1	2.0	100	2.0	3	0	973.5	NA	0.0000		9999	3020	0	0	0
2019/05/08 19:13:00	BASE	28.42	6	32.77	1	2.0	100	2.0	3	0	973.5	NA	0.0000	UP	9999	790	0	0	0
2019/05/08 19:14:00	BASE	27.99	2	32.77	1	2.0	100	2.0	3	0	973.5	NA	0.0000	UP	9999	950	0	0	0
2019/05/08 19:15:00	BASE	28.05	2	32.77	1	2.0	100	2.0	2	0	973.5	NA	0.0000	UP	9999	0	0	0	4130
2019/05/08 19:16:00	BASE	27.96	4	32.77	1	2.0	100	2.0	3	0	973.5	NA	0.0000	UP	9999	260	0	0	0
2019/05/08 19:17:00	BASE	27.93	3	32.77	1	2.0	100	2.0	3	0	973.4	NA	0.0000	UP	9999	360	0	0	0
2019/05/08 19:18:00	BASE	27.54	3	32.77	1	2.0	100	2.0	3	0	973.5	NA	0.0000	UP	9999	0	0	0	4200
2019/05/08 19:19:00	BASE	27.52	4	32.77	1	2.0	100	2.0	3	0	973.3	NA	0.0000	UP	9999	300	3840	0	0
2019/05/08 19:20:00	BASE	28.03	6	32.77	1	2.0	100	2.0	3	0	973.3	NA	0.0000	UP	9999	3740	0	0	0
2019/05/08 19:21:00	BASE	28.33	8	32.77	1	1.9	100	1.9	3	0	973.3	NA	0.0000	UP	9999	3580	0	0	0
2019/05/08 19:22:00	BASE	28.67	8	32.46	13	1.9	100	1.9	2	0	973.3	NA	0.0000	UP	9999	3540	0	0	0
2019/05/08 19:23:00	BASE	28.81	7	32.46	13	1.9	100	1.9	2	0	973.4	NA	0.0000	UP	9999	2920	0	0	0
2019/05/08 19:24:00	BASE	27.91	8	32.46	13	1.9	100	1.9	2	0	973.4	NA	0.0000	UP	9999	2920	0	0	0
2019/05/08 19:25:00	BASE	26.96	4	32.31	9	2.0	100	2.0	1	0	973.5	NA	0.0000	UP	9999	3050	0	0	0
2019/05/08 19:26:00	BASE	27.33	0	32.31	9	2.0	100	2.0	1	0	973.4	NA	0.0000	UP	9999	1670	0	0	0
2019/05/08 19:27:00	BASE	27.10	2	32.31	9	2.0	100	2.0	1	0	973.5	NA	0.0000	UP	9999	1640	0	0	0
2019/05/08 19:28:00	BASE	26.54	5	32.31	9	1.9	100	1.9	1	0	973.5	NA	0.0000	UP	9999	1870	0	0	0
2019/05/08 19:29:00	BASE	25.69	6	32.31	9	1.9	100	1.9	1	0	973.6	NA	0.0000	UP	9999	1640	2790	0	0
2019/05/08 19:30:00	BASE	24.68	4	31.48	263	1.9	100	1.9	1	0	973.5	NA	0.0000	UP	9999	1540	2820	0	0
2019/05/08 19:31:00	BASE	24.52	2	31.48	263	2.0	100	2.0	1	0	973.6	NA	0.0000	UP	9999	1380	0	0	0
2019/05/08 19:32:00	BASE	23.32	1	31.48	263	2.0	100	2.0	1	0	973.8	NA	0.0000	UP	9999	430	0	0	0
2019/05/08 19:33:00	BASE	21.29	1	31.48	263	2.0	100	2.0	1	0	973.8	NA	0.0000	UP	9999	260	0	0	0
2019/05/08 19:34:00	BASE	20.36	358	31.48	263	2.0	100	2.0	1	0	973.8	NA	0.0000	UP	9999	330	1770	0	0
2019/05/08 19:35:00	BASE	21.11	353	31.48	263	2.0	100	2.0	0	0	973.8	NA	0.0000	UP	9999	330	0	0	0
2019/05/08 19:36:00	BASE	22.37	346	30.30	3	2.0	100	2.0	0	0	973.8	NA	0.0000	UP	9999	1610	0	0	0
2019/05/08 19:37:00	BASE	23.01	348	28.71	2	2.0	100	2.0	0	0	973.8	NA	0.0000	UP	9999	1380	0	0	0
2019/05/08 19:38:00	BASE	21.98	356	27.57	6	2.0	100	2.0	0	0	973.9	NA	0.0000	UP	9999	1440	0	0	0
2019/05/08 19:39:00	BASE	21.76	356	27.57	6	2.0	100	2.0	0	0	973.7	NA	0.0000	UP	9999	1440	0	0	0
2019/05/08 19:40:00	BASE	22.79	356	27.93	2	2.0	100	2.0	0	0	973.8	NA	0.0000	UP	9999	520	1570	0	0
2019/05/08 19:41:00	BASE	22.53	356	27.93	2	2.0	100	2.0	0	0	973.8	NA	0.0000	UP	9999	360	0	0	0
2019/05/08 19:42:01	BASE	21.86	357	27.93	2	2.0	100	2.0	1	0	973.8	NA	0.0000	UP	9999	390	0	0	0
2019/05/08 19:43:00	BASE	20.95	359	27.93	2	2.0	100	2.0	1	0	973.8	NA	0.0000	UP	9999	390	0	0	0
2019/05/08 19:44:01	BASE	22.70	3	29.43	5	2.0	100	2.0	1	0	973.6	NA	0.0000	UP	9999	360	0	0	0
2019/05/08 19:45:01	BASE	24.91	6	29.43	5	2.0	100	2.0	1	0	973.6	NA	0.0000	UP	9999	1610	0	0	0
2019/05/08 19:46:01	BASE	24.72	4	29.43	5	2.0	100	2.0	1	0	973.6	NA	0.0000	UP	9999	430	0	0	0
2019/05/08 19:47:00	BASE	23.49	0	29.43	5	2.0	100	2.0	1	0	973.7	NA	0.0000	UP	9999	460	0	0	0
2019/05/08 19:48:01	BASE	21.34	356	29.43	5	1.9	100	1.9	1	0	973.8	NA	0.0000	UP	9999	520	1540	0	0
2019/05/08 19:49:00	BASE	20.37	355	29.43	5	1.9	100	1.9	0	0	973.8	NA	0.0000	UP	9999	1510	0	0	0
2019/05/08 19:50:00	BASE	20.73	355	29.43	5	1.9	100	1.9	0	0	973.7	NA	0.0000	UP	9999	590	0	0	0
2019/05/08 19:51:00	BASE	20.56	356	29.43	5	1.9	100	1.9	0	0	973.8	NA	0.0000	UP	9999	460	0	0	0
2019/05/08 19:52:00	BASE	20.50	354	29.43	5	1.9	100	1.9	0	0	973.8	NA	0.0000	UP	9999	390	0	0	0
2019/05/08 19:53:00	BASE	20.53	353	29.43	5	1.9	100	1.9	0	0	973.8	NA	0.0000	UP	9999	0	0	0	3310
2019/05/08 19:54:01	BASE	21.20	354	27.27	7	1.9	100	1.9	0	0	973.7	NA	0.0000	UP	9999	1440	0	0	0
2019/05/08 19:55:00	BASE	20.83	347	27.27	7	1.9	100	1.9	0	0	973.8	NA	0.0000	UP	9999	1350	0	0	0
2019/05/08 19:56:00	BASE	18.30	349	24.49	349	1.8	100	1.8	0	0	973.8	NA	0.0000	UP	9999	1510	0	0	0
2019/05/08 19:57:00	BASE	18.68	354	26.39	7	1.8	100	1.8	0	0	973.7	NA	0.0000		9999	1440	0	0	0
2019/05/08 19:58:00	BASE	21.88	352	27.78	360	1.8	100	1.8	0	0	973.5	NA	0.0000		9999	1440	0	0	0
2019/05/08 19:59:00	BASE	23.58	356	27.78	360	1.8	100	1.8	0	0	973.5	NA	0.0000		9999	1480	0	0	0
2019/05/08 20:00:00	BASE	24.52	2	27.78	360	1.7	100	1.7	0	0	973.3	NA	0.0000		9999	590	0	0	0
2019/05/08 20:01:00	BASE	26.02	5	30.15	3	1.8	100	1.8	0	0	973.3	NA	0.0000		9999	430	3540	0	0
2019/05/08 20:02:01	BASE	25.65	4	30.15	3	1.8	100	1.8	0	0	973.4	NA	0.0000	UP	9999	390	0	0	0
2019/05/08 20:03:00	BASE	24.77	0	30.15	3	1.8	100	1.8	0	0	973.4	NA	0.0000	UP	9999	1380	0	0	0
2019/05/08 20:04:00	BASE	24.10	359	30.15	3	1.8	100	1.8	0	0	973.5	NA	0.0000	UP	9999	1440	0	0	0
2019/05/08 20:05:00	BASE	26.11	2	32.20	6	1.8	100	1.8	0	0	973.3	NA	0.2540	UP	9999	620	1480	0	0
2019/05/08 20:06:00	BASE	27.33	3	32.20	6	1.8	100	1.8	0	0	973.4	NA	0.0000	UP	9999	1410	0	0	0
2019/05/08 20:07:00	BASE	25.24	1	32.20	6	1.8	100	1.8	0	0	973.5	NA	0.0000	UP	9000	1380	0	0	0
2019/05/08 20:08:00	BASE	24.81	0	32.20	6	1.8	100	1.8	0	0	973.4	NA	0.0000	UP	9000	1410	3870	0	0
2019/05/08 20:09:00	BASE	26.30	2	32.20	6	1.8	100	1.8	0	0	973.3	NA	0.0000	UP	9000	0	0	0	1940
2019/05/08 20:10:00	BASE	26.57	0	32.20	6	1.8	100	1.8	0	0	973.4	NA	0.0000	UP	9000	0	0	0	6270
2019/05/08 20:11:00	BASE	25.45	353	32.20	6	1.8	100	1.8	0	0	973.4	NA	0.0000	UP	9000	0	0	0	2000
2019/05/08 20:12:00	BASE	24.59	356	32.20	6	1.8	100	1.8	0	0	973.5	NA	0.0000	UP BR	7000	0	0	0	3510
2019/05/08 20:13:00	BASE	23.66	357	32.20	6	1.9	100	1.9	0	0	973.4	NA	0.0000	UP BR	6000	0	0	0	5580
2019/05/08 20:14:00	BASE	22.58	357	32.20	6	1.9	100	1.9	0	0	973.5	NA	0.0000	UP BR	6000	1540	0	0	0
2019/05/08 20:15:00	BASE	23.64	2	29.48	1	1.9	100	1.9	0	0	973.4	NA	0.0000	BR	7000	1510	0	0	0
2019/05/08 20:16:00	BASE	26.06	4	30.46	3	1.9	100	1.9	0	0	973.3	NA	0.0000	BR	7000	1610	0	0	0
2019/05/08 20:17:00	BASE	24.53	1	30.46	3	1.9	100	1.9	0	0	973.4	NA	0.0000	BR	8000	1670	0	0	0
2019/05/08 20:18:00	BASE	22.15	356	30.46	3	1.9	100	1.9	0	0	973.5	NA	0.0000	BR	8000	0	0	0	1870
2019/05/08 20:19:00	BASE	22.56	358	30.46	3	1.9	100	1.9	0	0	973.3	NA	0.0000	BR	8000	0	0	0	1380
2019/05/08 20:20:00	BASE	22.69	357	30.46	3	1.9	100	1.9	0	0	973.3	NA	0.0000	BR	8000	0	0	0	1640
2019/05/08 20:21:00	BASE	22.16	358	30.46	3	1.9	100	1.9	0	0	973.4	NA	0.0000	BR	8000	0	0	0	1800
2019/05/08 20:22:00	BASE	23.89	355	30.46	3	1.9	100	1.9	0	0	973.2	NA	0.0000	BR	9000	0	0	0	1510
2019/05/08 20:23:00	BASE	25.07	355	30.46	3	1.9	100	1.9	0	0	973.3	NA	0.0000	BR	9000	0	0	0	1640
2019/05/08 20:24:00	BASE	24.96	1	30.46	3	1.9	100	1.9	0	0	973.3	NA	0.0000	BR	9000	0	0	0	2000
2019/05/08 20:25:00	BASE	24.62	359	30.46	3	1.9	100	1.9	0	0	973.4	NA	0.0000	BR	9999	2000	0	0	0
2019/05/08 20:26:00	BASE	23.29	352	30.09	354	1.9	100	1.9	0	0	973.4	NA	0.0000	BR	9999	2030	0	0	0
2019/05/08 20:27:00	BASE	23.23	356	30.09	354	1.8	100	1.8	0	0	973.4	NA	0.0000	BR	9999	1740	0	0	0
2019/05/08 20:28:00	BASE	22.65	3	30.09	354	1.8	100	1.8	0	0	973.5	NA	0.0000	BR	9999	1800	0	0	0
2019/05/08 20:29:00	BASE	23.31	1	30.09	354	1.8	100	1.8	0	0	973.3	NA	0.0000	BR	9999	1670	0	0	0
2019/05/08 20:30:00	BASE	24.77	1	30.09	354	1.8	100	1.8	0	0	973.4	NA	0.0000	BR	9999	1510	0	0	0
2019/05/08 20:31:00	BASE	24.38	3	30.09	354	1.8	100	1.8	0	0	973.4	NA	0.0000		9999	1540	0	0	0
2019/05/08 20:32:00	BASE	24.72	2	29.22	3	1.8	100	1.8	0	0	973.3	NA	0.0000		9999	1540	0	0	0
2019/05/08 20:33:00	BASE	23.95	1	29.22	3	1.8	100	1.8	0	0	973.4	NA	0.0000		9999	1410	0	0	0
2019/05/08 20:34:00	BASE	23.99	1	29.58	5	1.9	100	1.9	0	0	973.3	NA	0.0000		9999	1510	0	0	0
2019/05/08 20:35:00	BASE	25.00	352	29.58	5	1.9	100	1.9	0	0	973.3	NA	0.0000		9999	1570	0	0	0
2019/05/08 20:36:00	BASE	23.18	351	29.58	5	1.9	100	1.9	0	0	973.4	NA	0.0000		9999	1540	2230	0	0
2019/05/08 20:37:00	BASE	22.17	354	29.58	5	1.9	100	1.9	0	0	973.4	NA	0.0000		9999	1740	0	0	0
2019/05/08 20:38:00	BASE	23.40	355	29.58	5	1.9	100	1.9	0	0	973.4	NA	0.0000		9999	1970	0	0	0
2019/05/08 20:39:00	BASE	24.01	356	29.58	5	1.9	100	1.9	0	0	973.4	NA	0.0000		9999	1900	0	0	0
2019/05/08 20:40:00	BASE	23.14	356	29.58	5	1.9	100	1.9	0	0	973.4	NA	0.0000		9999	1840	0	0	0
2019/05/08 20:41:00	BASE	22.86	359	29.58	5	2.0	100	2.0	0	0	973.4	NA	0.0000		9999	1740	0	0	0
2019/05/08 20:42:00	BASE	22.59	360	29.58	5	2.0	100	2.0	0	0	973.5	NA	0.0000		9999	1840	0	0	0
2019/05/08 20:43:00	BASE	21.81	356	29.58	5	2.0	100	2.0	0	0	973.5	NA	0.0000		9999	1800	0	0	0
2019/05/08 20:44:00	BASE	22.09	354	27.52	67	2.0	100	2.0	0	0	973.4	NA	0.0000		9999	1770	0	0	0
2019/05/08 20:45:00	BASE	23.58	359	27.52	67	2.0	100	2.0	0	0	973.3	NA	0.0000		9999	1670	0	0	0
2019/05/08 20:46:00	BASE	23.32	359	27.52	67	1.9	100	1.9	0	0	973.5	NA	0.0000		9999	1670	0	0	0
2019/05/08 20:47:00	BASE	22.03	356	27.52	67	1.9	100	1.9	0	0	973.4	NA	0.0000		9999	1800	0	0	0
2019/05/08 20:48:00	BASE	22.12	360	26.75	337	1.9	100	1.9	0	0	973.4	NA	0.0000		9999	1640	0	0	0
2019/05/08 20:49:00	BASE	21.98	1	26.75	337	1.9	100	1.9	0	0	973.4	NA	0.0000		9999	1510	0	0	0
2019/05/08 20:50:00	BASE	22.24	355	26.75	337	1.9	100	1.9	0	0	973.4	NA	0.0000		9999	1510	0	0	0
2019/05/08 20:51:00	BASE	23.50	354	28.14	349	1.9	100	1.9	0	0	973.3	NA	0.0000		9999	1510	0	0	0
2019/05/08 20:52:00	BASE	24.23	353	28.40	353	1.9	100	1.9	0	0	973.3	NA	0.0000		9999	1440	0	0	0
2019/05/08 20:53:00	BASE	22.69	350	28.40	353	1.9	100	1.9	0	0	973.4	NA	0.0000		9999	1480	0	0	0
2019/05/08 20:54:00	BASE	22.01	352	28.40	353	1.9	100	1.9	0	0	973.4	NA	0.0000		9999	1350	0	0	0
2019/05/08 20:55:00	BASE	22.99	355	28.40	353	1.9	100	1.9	0	0	973.4	NA	0.0000		9999	1410	0	0	0
2019/05/08 20:56:00	BASE	22.92	356	28.40	353	2.0	100	2.0	0	0	973.4	NA	0.0000		9999	1410	0	0	0
2019/05/08 20:57:00	BASE	23.36	354	28.40	353	2.0	100	2.0	0	0	973.3	NA	0.0000		9999	1350	0	0	0
2019/05/08 20:58:00	BASE	24.76	353	28.40	353	2.0	100	2.0	0	0	973.3	NA	0.0000		9999	1310	0	0	0
2019/05/08 20:59:00	BASE	23.94	354	28.40	353	2.0	100	2.0	0	0	973.4	NA	0.0000		9999	1310	0	0	0
2019/05/08 21:00:00	BASE	23.30	356	28.40	353	2.0	100	2.0	0	0	973.3	NA	0.0000		9999	1310	0	0	0
2019/05/08 21:01:00	BASE	23.78	355	28.40	353	2.0	100	2.0	0	0	973.3	NA	0.0000		9999	1280	0	0	0
2019/05/08 21:02:00	BASE	23.38	353	28.35	350	2.0	100	2.0	0	0	973.4	NA	0.0000		9999	1350	0	0	0
2019/05/08 21:03:00	BASE	22.83	352	28.35	350	2.0	100	2.0	0	0	973.4	NA	0.0000		9999	1250	0	0	0
2019/05/08 21:04:00	BASE	22.51	357	28.24	360	2.0	100	2.0	0	0	973.4	NA	0.0000		9999	1210	0	0	0
2019/05/08 21:05:00	BASE	23.95	2	30.51	353	2.0	100	2.0	0	0	973.3	NA	0.0000		9999	1280	0	0	0
2019/05/08 21:06:00	BASE	24.85	2	30.51	353	2.0	100	2.0	0	0	973.3	NA	0.0000		9999	1250	0	0	0
2019/05/08 21:07:00	BASE	24.61	3	30.51	353	2.0	100	2.0	0	0	973.3	NA	0.0000		9999	1180	0	0	0
2019/05/08 21:08:00	BASE	25.58	359	30.51	353	2.0	100	2.0	0	0	973.3	NA	0.0000		9999	1250	0	0	0
2019/05/08 21:09:00	BASE	25.68	351	30.51	353	2.0	100	2.0	0	0	973.3	NA	0.0000		9999	1180	0	0	0
2019/05/08 21:10:00	BASE	24.86	351	30.51	353	2.0	100	2.0	0	0	973.3	NA	0.0000		9999	1120	0	0	0
2019/05/08 21:11:00	BASE	24.29	1	30.51	353	2.0	100	2.0	0	0	973.3	NA	0.0000		9999	1180	0	0	0
2019/05/08 21:12:00	BASE	22.65	2	30.51	353	2.0	100	2.0	0	0	973.4	NA	0.0000		9999	1150	0	0	0
2019/05/08 21:13:00	BASE	22.90	3	30.51	353	2.0	100	2.0	0	0	973.3	NA	0.0000		9999	1210	0	0	0
2019/05/08 21:14:00	BASE	23.96	4	30.51	353	1.9	100	1.9	0	0	973.4	NA	0.0000		9999	1120	0	0	0
2019/05/08 21:15:00	BASE	23.51	1	28.81	352	1.9	100	1.9	0	0	973.4	NA	0.0000		9999	1150	0	0	0
2019/05/08 21:16:00	BASE	24.06	2	29.01	360	1.9	100	1.9	0	0	973.3	NA	0.0000		9999	1150	0	0	0
2019/05/08 21:17:00	BASE	23.81	360	29.01	360	1.9	100	1.9	0	0	973.4	NA	0.0000		9999	1150	0	0	0
2019/05/08 21:18:00	BASE	22.90	354	29.01	360	1.9	100	1.9	0	0	973.4	NA	0.0000		9999	1210	0	0	0
2019/05/08 21:19:00	BASE	21.66	353	29.01	360	1.9	100	1.9	0	0	973.5	NA	0.0000		9999	1150	0	0	0
2019/05/08 21:20:00	BASE	20.88	354	29.01	360	1.9	100	1.9	0	0	973.5	NA	0.0000		9999	1150	0	0	0
2019/05/08 21:21:00	BASE	21.74	350	29.01	360	1.8	100	1.8	0	0	973.4	NA	0.0000		9999	1180	0	0	0
2019/05/08 21:22:00	BASE	21.20	349	29.01	360	1.8	100	1.8	0	0	973.5	NA	0.0000		9999	1120	0	0	0
2019/05/08 21:23:00	BASE	20.67	353	29.01	360	1.8	100	1.8	0	0	973.5	NA	0.0000		9999	1050	0	0	0
2019/05/08 21:24:00	BASE	22.29	360	29.01	360	1.8	100	1.8	0	0	973.4	NA	0.0000		9999	1150	0	0	0
2019/05/08 21:25:00	BASE	23.14	2	29.01	360	1.8	100	1.8	0	0	973.4	NA	0.0000		9999	1120	0	0	0
2019/05/08 21:26:00	BASE	22.78	358	28.14	354	1.9	100	1.9	0	0	973.4	NA	0.0000		9999	1120	0	0	0
2019/05/08 21:27:00	BASE	22.04	358	28.14	354	1.9	100	1.9	0	0	973.4	NA	0.0000		9999	1080	0	0	0
2019/05/08 21:28:00	BASE	22.72	359	28.14	354	1.9	100	1.9	0	0	973.3	NA	0.0000		9999	1050	0	0	0
2019/05/08 21:29:00	BASE	22.46	1	28.14	354	1.9	100	1.9	0	0	973.5	NA	0.0000		9999	1050	0	0	0
2019/05/08 21:30:00	BASE	20.33	359	28.14	354	1.8	100	1.8	0	0	973.5	NA	0.0000		9999	1150	0	0	0
2019/05/08 21:31:00	BASE	19.05	354	28.14	354	1.8	100	1.8	0	0	973.5	NA	0.0000		9999	1150	0	0	0
2019/05/08 21:32:00	BASE	19.83	347	28.14	354	1.8	100	1.8	0	0	973.4	NA	0.0000		9999	1120	0	0	0
2019/05/08 21:33:00	BASE	22.27	345	28.14	354	1.8	100	1.8	0	0	973.3	NA	0.0000		9999	1180	0	0	0
2019/05/08 21:34:00	BASE	22.90	348	27.68	8	1.8	100	1.8	0	0	973.3	NA	0.0000		9999	1250	0	0	0
2019/05/08 21:35:00	BASE	23.13	349	27.68	8	1.8	100	1.8	0	0	973.3	NA	0.0000		9999	1310	0	0	0
2019/05/08 21:36:00	BASE	23.01	347	27.68	8	1.8	100	1.8	0	0	973.4	NA	0.0000		9999	1280	0	0	0
2019/05/08 21:37:00	BASE	22.10	352	27.68	8	1.8	100	1.8	0	0	973.4	NA	0.0000		9999	1180	0	0	0
2019/05/08 21:38:00	BASE	21.16	351	25.77	353	1.8	100	1.8	0	0	973.5	NA	0.0000		9999	1250	0	0	0
2019/05/08 21:39:00	BASE	22.11	349	26.55	348	1.8	100	1.8	0	0	973.4	NA	0.0000		9999	1050	0	0	0
2019/05/08 21:40:00	BASE	23.81	349	26.55	348	1.8	100	1.8	0	0	973.4	NA	0.0000		9999	1180	0	0	0
2019/05/08 21:41:00	BASE	22.61	346	26.55	348	1.8	100	1.8	0	0	973.5	NA	0.0000		9999	1180	0	0	0
2019/05/08 21:42:00	BASE	21.52	347	26.55	348	1.8	100	1.8	0	0	973.5	NA	0.0000		9999	1180	0	0	0
2019/05/08 21:43:00	BASE	22.09	346	26.55	348	1.7	100	1.7	0	0	973.4	NA	0.0000		9999	1080	0	0	0
2019/05/08 21:44:00	BASE	21.99	347	26.55	348	1.7	100	1.7	0	0	973.4	NA	0.0000		9999	1150	0	0	0
2019/05/08 21:45:00	BASE	20.41	355	26.55	348	1.7	100	1.7	0	0	973.5	NA	0.0000		9999	1250	0	0	0
2019/05/08 21:46:00	BASE	19.24	355	26.55	348	1.8	100	1.8	0	0	973.5	NA	0.0000		9999	1150	1770	0	0
2019/05/08 21:47:00	BASE	19.73	350	26.55	348	1.8	100	1.8	0	0	973.5	NA	0.0000		9999	980	0	0	0
2019/05/08 21:48:00	BASE	20.02	352	26.55	348	1.8	100	1.8	0	0	973.5	NA	0.0000		9999	1080	0	0	0
2019/05/08 21:49:00	BASE	19.87	352	25.67	348	1.8	100	1.8	0	0	973.5	NA	0.0000		9999	1120	0	0	0
2019/05/08 21:50:00	BASE	20.44	352	24.44	349	1.8	100	1.8	0	0	973.5	NA	0.0000		9999	1120	0	0	0
2019/05/08 21:51:00	BASE	20.86	355	24.44	349	1.8	100	1.8	0	0	973.5	NA	0.0000		9999	1280	0	0	0
2019/05/08 21:52:00	BASE	20.40	350	24.44	349	1.8	100	1.8	0	0	973.5	NA	0.0000		9999	1180	0	0	0
2019/05/08 21:53:00	BASE	20.06	350	23.87	360	1.8	100	1.8	0	0	973.5	NA	0.0000		9999	1210	0	0	0
2019/05/08 21:54:00	BASE	20.22	353	23.87	360	1.8	100	1.8	0	0	973.4	NA	0.0000		9999	1350	2170	0	0
2019/05/08 21:55:00	BASE	19.82	351	23.87	360	1.7	100	1.7	0	0	973.5	NA	0.0000		9999	1380	2460	0	0
2019/05/08 21:56:00	BASE	20.26	348	23.87	360	1.7	100	1.7	0	0	973.4	NA	0.0000		9999	1570	2430	0	0
2019/05/08 21:57:00	BASE	20.85	349	23.87	360	1.7	100	1.7	0	0	973.4	NA	0.0000		9999	2490	0	0	0
2019/05/08 21:58:00	BASE	20.19	350	23.87	360	1.7	100	1.7	0	0	973.5	NA	0.0000		9999	2490	0	0	0
2019/05/08 21:59:00	BASE	19.57	347	23.87	360	1.6	100	1.6	0	0	973.5	NA	0.0000		9999	2530	0	0	0
2019/05/08 22:00:00	BASE	20.04	346	23.87	360	1.6	100	1.6	0	0	973.4	NA	0.0000		9999	2620	0	0	0
2019/05/08 22:01:00	BASE	20.96	345	23.72	344	1.6	100	1.6	0	0	973.4	NA	0.0000		9999	1770	2620	0	0
2019/05/08 22:04:00	BASE	M	M	23.72	344	1.6	100	1.6	0	0	973.1	NA	0.0000		9999	2430	0	0	0
2019/05/08 22:05:00	BASE	20.33	345	23.72	344	1.6	100	1.6	0	0	973.2	NA	0.0000		9999	2590	0	0	0
2019/05/08 22:06:00	BASE	19.24	344	23.72	344	1.6	100	1.6	0	0	973.3	NA	0.0000		9999	950	0	0	0
2019/05/08 22:07:00	BASE	19.39	343	23.72	344	1.6	100	1.6	0	0	973.3	NA	0.0000		9999	980	3150	0	0
2019/05/08 22:08:00	BASE	18.46	342	23.72	344	1.5	100	1.5	0	0	973.4	NA	0.0000		9999	920	0	0	0
2019/05/08 22:09:00	BASE	16.57	341	23.72	344	1.5	100	1.5	0	0	973.4	NA	0.0000		9999	980	0	0	0
2019/05/08 22:10:00	BASE	16.01	342	22.64	341	1.5	100	1.5	0	0	973.4	NA	0.0000		9999	950	2790	0	0
2019/05/08 22:11:00	BASE	17.03	345	22.64	341	1.5	100	1.5	0	0	973.3	NA	0.0000		9999	950	0	0	0
2019/05/08 22:12:00	BASE	19.00	347	22.64	341	1.6	100	1.6	0	0	973.3	NA	0.0000		9999	1020	0	0	0
2019/05/08 22:13:00	BASE	18.63	349	22.64	341	1.6	100	1.6	0	0	973.4	NA	0.0000		9999	1020	2760	0	0
2019/05/08 22:14:00	BASE	17.29	353	21.81	348	1.7	100	1.7	0	0	973.3	NA	0.0000		9999	1310	2850	0	0
2019/05/08 22:15:00	BASE	18.04	354	21.50	346	1.7	100	1.7	0	0	973.3	NA	0.0000		9999	2920	0	0	0
2019/05/08 22:16:00	BASE	18.82	350	21.50	346	1.8	100	1.8	0	0	973.3	NA	0.0000		9999	2920	0	0	0
2019/05/08 22:17:00	BASE	17.57	345	21.35	346	1.8	100	1.8	0	0	973.4	NA	0.0000		9999	2950	0	0	0
2019/05/08 22:18:01	BASE	16.66	344	21.35	346	1.8	100	1.8	0	0	973.4	NA	0.0000		9999	2990	0	0	0
2019/05/08 22:19:00	BASE	16.53	340	21.35	346	1.7	100	1.7	0	0	973.4	NA	0.0000		9999	3050	0	0	0
2019/05/08 22:20:00	BASE	16.25	340	21.35	346	1.7	100	1.7	0	0	973.4	NA	0.0000		9999	3080	0	0	0
2019/05/08 22:21:00	BASE	16.98	344	21.35	346	1.6	100	1.6	0	0	973.3	NA	0.0000		9999	2990	0	0	0
2019/05/08 22:22:00	BASE	16.94	344	20.63	345	1.6	100	1.6	0	0	973.3	NA	0.0000		9999	2950	0	0	0
2019/05/08 22:23:00	BASE	17.08	345	20.63	345	1.6	100	1.6	0	0	973.3	NA	0.0000		9999	2690	3220	0	0
2019/05/08 22:24:01	BASE	17.99	349	20.63	345	1.6	100	1.6	0	0	973.3	NA	0.0000		9999	3220	3900	0	0
2019/05/08 22:25:00	BASE	18.02	353	20.01	345	1.6	100	1.6	0	0	973.3	NA	0.0000		9999	3050	0	0	0
2019/05/08 22:26:00	BASE	16.64	351	20.01	345	1.7	100	1.7	0	0	973.3	NA	0.0000		9999	2760	3480	0	0
2019/05/08 22:27:00	BASE	15.05	350	20.01	345	1.7	100	1.7	0	0	973.4	NA	0.0000		9999	2920	4100	0	0
2019/05/08 22:28:00	BASE	14.96	351	20.01	345	1.7	100	1.7	0	0	973.4	NA	0.0000		9999	3180	0	0	0
2019/05/08 22:29:00	BASE	15.41	352	20.01	345	1.7	100	1.7	0	0	973.3	NA	0.0000		9999	2920	0	0	0
2019/05/08 22:30:00	BASE	15.62	350	20.01	345	1.7	100	1.7	0	0	973.3	NA	0.0000		9999	2890	0	0	0
2019/05/08 22:31:00	BASE	15.12	349	20.01	345	1.8	100	1.8	0	0	973.4	NA	0.0000		9999	3380	0	0	0
2019/05/08 22:32:00	BASE	13.79	350	20.01	345	1.8	100	1.8	0	0	973.5	NA	0.0000		9999	1510	3380	0	0
2019/05/08 22:33:00	BASE	13.16	353	20.01	345	1.8	100	1.8	0	0	973.4	NA	0.0000		9999	1120	0	0	0
2019/05/08 22:34:00	BASE	13.60	356	19.14	351	1.8	100	1.8	0	0	973.4	NA	0.0000		9999	1120	3770	0	0
2019/05/08 22:35:00	BASE	14.93	354	18.37	346	1.8	100	1.8	0	0	973.3	NA	0.0000		9999	1120	0	0	0
2019/05/08 22:36:00	BASE	14.66	360	17.95	354	1.7	100	1.7	0	0	973.4	NA	0.0000		9999	950	0	0	0
2019/05/08 22:37:00	BASE	13.67	2	17.95	354	1.7	100	1.7	0	0	973.4	NA	0.0000		9999	950	0	0	0
2019/05/08 22:38:00	BASE	14.93	354	18.67	354	1.6	100	1.6	0	0	973.3	NA	0.0000		9999	390	0	0	0
2019/05/08 22:39:00	BASE	15.47	348	18.67	354	1.6	100	1.6	0	0	973.3	NA	0.0000	UP	9999	1020	0	0	0
2019/05/08 22:40:00	BASE	15.28	354	18.67	354	1.6	100	1.6	0	0	973.3	NA	0.0000	UP	9999	1050	0	0	0
2019/05/08 22:41:00	BASE	16.24	355	18.67	354	1.6	100	1.6	0	0	973.2	NA	0.0000	UP	9999	330	0	0	0
2019/05/08 22:42:00	BASE	16.40	353	18.67	354	1.6	100	1.6	0	0	973.3	NA	0.0000	UP	9999	980	2920	0	0
2019/05/08 22:43:00	BASE	15.18	350	18.67	354	1.6	100	1.6	0	0	973.3	NA	0.0000	UP	9999	950	1770	0	0
2019/05/08 22:44:00	BASE	14.21	352	18.67	354	1.6	100	1.6	0	0	973.3	NA	0.0000	UP	9999	890	2620	0	0
2019/05/08 22:45:00	BASE	14.44	355	18.67	354	1.6	100	1.6	0	0	973.3	NA	0.0000	UP	9999	1050	0	0	0
2019/05/08 22:46:00	BASE	15.03	353	18.67	354	1.6	100	1.6	0	0	973.3	NA	0.0000	UP	9999	980	0	0	0
2019/05/08 22:47:00	BASE	14.23	357	18.67	354	1.6	100	1.6	0	0	973.3	NA	0.0000	UP	9999	950	0	0	0
2019/05/08 22:48:00	BASE	13.91	359	18.47	5	1.6	100	1.6	0	0	973.3	NA	0.0000	UP	9999	890	0	0	0
2019/05/08 22:49:00	BASE	14.67	360	18.47	5	1.6	100	1.6	0	0	973.3	NA	0.0000	UP	9999	920	0	0	0
2019/05/08 22:50:00	BASE	15.16	357	18.47	5	1.6	100	1.6	0	0	973.2	NA	0.0000		9999	1020	0	0	0
2019/05/08 22:51:00	BASE	15.06	348	17.90	2	1.6	100	1.6	0	0	973.3	NA	0.0000		9999	1080	0	0	0
2019/05/08 22:52:00	BASE	15.40	352	18.06	351	1.6	100	1.6	0	0	973.2	NA	0.0000		9999	950	0	0	0
2019/05/08 22:53:00	BASE	15.91	356	18.06	351	1.6	100	1.6	0	0	973.2	NA	0.0000		9999	1050	0	0	0
2019/05/08 22:54:00	BASE	15.06	354	18.06	351	1.6	100	1.6	0	0	973.3	NA	0.0000		9999	1020	0	0	0
2019/05/08 22:55:00	BASE	13.82	355	18.06	351	1.6	100	1.6	0	0	973.3	NA	0.0000		9999	920	0	0	0
2019/05/08 22:56:00	BASE	13.04	354	18.06	351	1.6	100	1.6	0	0	973.3	NA	0.0000		9999	850	0	0	0
2019/05/08 22:57:00	BASE	13.44	351	18.06	351	1.6	100	1.6	0	0	973.3	NA	0.0000		9999	1020	0	0	0
2019/05/08 22:58:00	BASE	14.12	351	18.06	351	1.6	100	1.6	0	0	973.3	NA	0.0000		9999	980	0	0	0
2019/05/08 22:59:00	BASE	14.23	354	18.06	351	1.6	100	1.6	0	0	973.3	NA	0.0000		9999	1250	3280	0	0
2019/05/08 23:00:00	BASE	13.74	353	18.06	351	1.6	100	1.6	0	0	973.3	NA	0.0000		9999	1350	3380	0	0
2019/05/08 23:01:00	BASE	14.37	354	18.21	355	1.6	100	1.6	0	0	973.2	NA	0.0000		9999	1350	3250	0	0
2019/05/08 23:02:00	BASE	15.46	358	18.21	355	1.6	100	1.6	0	0	973.2	NA	0.0000		9999	1280	3350	0	0
2019/05/08 23:03:00	BASE	15.48	359	18.21	355	1.6	100	1.6	0	0	973.3	NA	0.0000		9999	950	3450	0	0
2019/05/08 23:04:00	BASE	15.41	359	18.21	355	1.6	100	1.6	0	0	973.3	NA	0.0000		9999	980	3350	0	0
2019/05/08 23:05:00	BASE	15.28	1	18.21	355	1.6	100	1.6	0	0	973.3	NA	0.0000		9999	950	3350	0	0
2019/05/08 23:06:00	BASE	14.93	4	18.21	355	1.6	100	1.6	0	0	973.3	NA	0.0000		9999	980	3350	0	0
2019/05/08 23:07:00	BASE	14.85	1	18.21	355	1.6	100	1.6	0	0	973.2	NA	0.0000		9999	890	3280	0	0
2019/05/08 23:08:00	BASE	14.15	0	18.21	355	1.6	100	1.6	0	0	973.3	NA	0.0000		9999	890	3120	0	0
2019/05/08 23:09:00	BASE	13.79	2	18.21	355	1.6	100	1.6	0	0	973.3	NA	0.0000		9999	3050	0	0	0
2019/05/08 23:10:00	BASE	13.90	358	18.21	355	1.5	100	1.5	0	0	973.3	NA	0.0000		9999	3050	0	0	0
2019/05/08 23:11:00	BASE	13.49	357	17.54	1	1.5	100	1.5	0	0	973.3	NA	0.0000		9999	3080	0	0	0
2019/05/08 23:12:00	BASE	14.05	355	17.54	1	1.5	100	1.5	0	0	973.3	NA	0.0000		9999	3120	0	0	0
2019/05/08 23:13:00	BASE	13.44	0	17.54	1	1.5	100	1.5	0	0	973.4	NA	0.0000		9999	1080	3050	0	0
2019/05/08 23:14:00	BASE	13.98	4	17.54	1	1.5	100	1.5	0	0	973.3	NA	0.0000		9999	2990	0	0	0
2019/05/08 23:15:00	BASE	15.78	355	18.88	351	1.5	100	1.5	0	0	973.3	NA	0.0000		9999	920	0	0	0
2019/05/08 23:16:00	BASE	16.07	350	18.88	351	1.5	100	1.5	0	0	973.3	NA	0.0000		9999	890	0	0	0
2019/05/08 23:17:00	BASE	15.37	353	18.88	351	1.5	100	1.5	0	0	973.3	NA	0.0000		9999	790	0	0	0
2019/05/08 23:18:00	BASE	15.27	352	18.88	351	1.6	100	1.6	0	0	973.3	NA	0.0000		9999	750	0	0	0
2019/05/08 23:19:00	BASE	14.83	349	18.88	351	1.6	100	1.6	0	0	973.4	NA	0.0000		9999	850	0	0	0
2019/05/08 23:20:00	BASE	13.79	356	18.88	351	1.6	100	1.6	0	0	973.4	NA	0.0000		9999	820	0	0	0
2019/05/08 23:21:00	BASE	14.54	356	18.88	351	1.6	100	1.6	0	0	973.4	NA	0.0000		9999	920	0	0	0
2019/05/08 23:22:00	BASE	14.83	351	18.88	351	1.6	100	1.6	0	0	973.4	NA	0.0000		9999	820	0	0	0
2019/05/08 23:23:00	BASE	13.95	353	18.88	351	1.6	100	1.6	0	0	973.5	NA	0.0000		9999	790	0	0	0
2019/05/08 23:24:00	BASE	13.22	350	18.88	351	1.6	100	1.6	0	0	973.5	NA	0.0000		9999	850	0	0	0
2019/05/08 23:25:01	BASE	13.49	347	18.26	349	1.6	100	1.6	0	0	973.5	NA	0.0000		9999	750	0	0	0
2019/05/08 23:26:01	BASE	13.01	349	17.29	352	1.6	100	1.6	0	0	973.5	NA	0.0000		9999	750	0	0	0
2019/05/08 23:27:00	BASE	12.41	356	17.29	352	1.6	100	1.6	0	0	973.6	NA	0.0000		9999	820	0	0	0
2019/05/08 23:28:00	BASE	12.57	356	16.77	1	1.6	100	1.6	0	0	973.6	NA	0.0000		9999	790	0	0	0
2019/05/08 23:29:00	BASE	13.39	351	16.77	1	1.6	100	1.6	0	0	973.5	NA	0.0000		9999	1020	3150	0	0
2019/05/08 23:30:00	BASE	13.69	350	16.77	1	1.6	100	1.6	0	0	973.5	NA	0.0000		9999	1180	3150	0	0
2019/05/08 23:31:00	BASE	13.38	348	15.69	349	1.6	100	1.6	0	0	973.6	NA	0.0000		9999	890	3050	0	0
2019/05/08 23:32:01	BASE	13.69	350	15.69	349	1.5	100	1.5	0	0	973.5	NA	0.0000		9999	1480	2890	0	0
2019/05/08 23:33:00	BASE	14.67	349	16.98	349	1.5	100	1.5	0	0	973.5	NA	0.0000		9999	1840	2620	0	0
2019/05/08 23:34:01	BASE	16.09	344	18.67	339	1.5	100	1.5	0	0	973.5	NA	0.0000		9999	2760	0	0	0
2019/05/08 23:35:01	BASE	16.15	345	18.67	339	1.5	100	1.5	0	0	973.5	NA	0.0000		9999	1020	1610	0	0
2019/05/08 23:36:01	BASE	16.28	346	18.67	339	1.5	100	1.5	0	0	973.5	NA	0.0000		9999	2170	0	0	0
2019/05/08 23:37:01	BASE	16.96	345	18.67	339	1.4	100	1.4	0	0	973.5	NA	0.0000		9999	850	0	0	0
2019/05/08 23:38:01	BASE	16.26	344	18.67	339	1.4	100	1.4	0	0	973.5	NA	0.0000		9999	790	0	0	0
2019/05/08 23:39:01	BASE	15.56	345	18.67	339	1.4	100	1.4	0	0	973.5	NA	0.0000		9999	790	0	0	0
2019/05/08 23:40:01	BASE	14.94	346	18.67	339	1.3	100	1.3	0	0	973.6	NA	0.0000		9999	690	0	0	0
2019/05/08 23:41:01	BASE	14.83	345	18.67	339	1.3	100	1.3	0	0	973.5	NA	0.0000		9999	720	0	0	0
2019/05/08 23:42:01	BASE	14.88	343	18.67	339	1.4	100	1.4	0	0	973.6	NA	0.0000		9999	690	0	0	0
2019/05/08 23:43:01	BASE	14.34	339	18.67	339	1.4	100	1.4	0	0	973.6	NA	0.0000		9999	720	0	0	0
2019/05/08 23:44:01	BASE	15.23	338	18.98	345	1.4	100	1.4	0	0	973.5	NA	0.0000		9999	690	0	0	0
2019/05/08 23:45:01	BASE	16.13	338	18.98	345	1.4	100	1.4	0	0	973.5	NA	0.0000		9999	660	0	0	0
2019/05/08 23:46:01	BASE	15.79	340	18.98	345	1.4	100	1.4	0	0	973.6	NA	0.0000		9999	620	0	0	0
2019/05/08 23:47:01	BASE	15.28	341	18.98	345	1.4	100	1.4	0	0	973.6	NA	0.0000		9999	690	0	0	0
2019/05/08 23:48:01	BASE	15.68	341	18.98	345	1.4	100	1.4	0	0	973.5	NA	0.0000		9999	690	0	0	0
2019/05/08 23:49:01	BASE	15.78	343	18.98	345	1.5	100	1.4	0	0	973.6	NA	0.0000		9999	660	0	0	0
2019/05/08 23:50:01	BASE	15.82	346	19.14	344	1.4	100	1.4	0	0	973.5	NA	0.0000		9999	660	0	0	0
2019/05/08 23:51:00	BASE	15.99	348	19.14	344	1.5	100	1.5	0	0	973.5	NA	0.0000		9999	690	0	0	0
2019/05/08 23:52:01	BASE	16.55	349	20.17	351	1.5	100	1.5	0	0	973.5	NA	0.0000		9999	620	0	0	0
2019/05/08 23:53:00	BASE	16.55	349	20.17	351	1.5	100	1.5	0	0	973.5	NA	0.0000		9999	590	0	0	0
2019/05/08 23:54:01	BASE	15.30	347	20.17	351	1.5	100	1.5	0	0	973.5	NA	0.0000		9999	590	0	0	0
2019/05/08 23:55:00	BASE	15.21	347	20.17	351	1.5	100	1.5	0	0	973.5	NA	0.0000		9999	620	0	0	0
2019/05/08 23:56:00	BASE	16.08	349	20.17	351	1.5	100	1.5	0	0	973.5	NA	0.0000		9999	520	0	0	0
2019/05/08 23:57:00	BASE	16.13	351	20.17	351	1.5	100	1.5	0	0	973.5	NA	0.0000		9999	560	0	0	0
2019/05/08 23:58:00	BASE	15.87	351	20.17	351	1.5	100	1.5	0	0	973.5	NA	0.0000		9999	590	0	0	0
2019/05/08 23:59:00	BASE	16.05	347	20.17	351	1.5	100	1.5	0	0	973.5	NA	0.0000		9999	590	0	0	0